     2              OBSERVATION DATA    GPS                 RINEX VERSION / TYPE
teqc 2000Feb29 20020409 20:35:11UTC                         PGM / RUN BY / DATE
                                                            COMMENT
L2: 1 -> 1; 150 -> 5; 250 -> 9                              COMMENT
L2: 1 -> 1; 150 -> 5; 250 -> 9                              COMMENT
L2: 1 -> 1; 150 -> 5; 250 -> 9                              COMMENT
L2: 1 -> 1; 150 -> 5; 250 -> 9                              COMMENT
L2: 1 -> 1; 150 -> 5; 250 -> 9                              COMMENT
Original Marker Name: CG09                                  COMMENT
Campaign Name: Northern Baja                                COMMENT
4-Character Station Name: CG09                              COMMENT
6-Character Antenna Code: DMRCHT                            COMMENT
Vertical Measurement Point: BCR                             COMMENT
Vertical Offset to Rinex Ref. Point: 0.0348                 COMMENT
Radial Measurement Point: ECF                               COMMENT
Radial Offset to Rinex Ref. Point: 0.1897                   COMMENT
Antenna Height from Field Measurement: 1.2731 m             COMMENT
Additional Antenna Identification Info.:                    COMMENT
Turborogue and Ashtech Choke Ring                           COMMENT
Original XYZ: -2175558.8328 -4998790.5571 3299462.3734      COMMENT
New XYZ position is based on association with SCEC monument COMMENT
E1C9D2S1+0011. Position of that monument is believed to be  COMMENT
valid to within 1 m horizontally; vertical accuracy         COMMENT
should be no worse than 3-times this value.                 COMMENT
                                                            COMMENT
Revised Rinex header created by UCSD GPS archive for        COMMENT
GSAC on 27-Jun-2003 (2003:178) 15:47:17 GMT                 COMMENT
For assistance contact dagnew@ucsd.edu                      COMMENT
or anderson@python.ucsd.edu                                 COMMENT
                                                            COMMENT
GEOTERMICO CP 09                                            MARKER NAME
JGG CICESE (ENSENADA)                                       OBSERVER / AGENCY
317 ASHTECH Z-XII3 CC00                                     REC # / TYPE / VERS
16408 DORNE-MARGOL. TYPE T                                  ANT # / TYPE
 -2297858.3129 -4875660.8560  3398561.9802                  APPROX POSITION XYZ
        1.2241        0.0000        0.0000                  ANTENNA: DELTA H/E/N
     1     1     0                                          WAVELENGTH FACT L1/2
     7    C1    L1    L2    P1    P2    S1    S2            # / TYPES OF OBSERV
     0                                                      INTERVAL
  2002     2    13    21    54    0.000000                  TIME OF FIRST OBS
  2002     2    13    23    59   30.000000                  TIME OF LAST OBS
                                                            END OF HEADER
 02  2 13 21 54  0.0000000  0  7G30G24G 4G 5G 6G 9G10
  22537379.937     -253690.42849   -178561.52646  22537379.527    22537393.135
       229.000         178.000
  20954989.332       52518.79049     37457.68647  20954988.983    20955000.552
       244.000         211.000
  23017002.568      214188.64449    150455.05846  23017002.401    23017016.189
       227.000         174.000
  20892911.785     -138520.29049    -95947.50147  20892910.989    20892922.571
       244.000         212.000
                   -215261.00749   -157316.04943                  24694102.835
       204.000          74.000
  23219190.276      180466.27549    126395.32746  23219189.120    23219205.131
       227.000         176.000
  23122171.465     -279912.97349   -193454.73846  23122170.674    23122187.423
       225.000         166.000
 02  2 13 21 54 30.0000000  0  7G30G24G 4G 5G 6G 9G10
  22218497.402     -354008.15049   -256731.00946  22218497.664    22218511.616
       229.000         179.000
  20659337.723       74276.88049     54412.02747  20659336.899    20659348.197
       244.000         212.000
  22732058.686      292219.68349    211258.30346  22732059.263    22732072.591
       227.000         175.000
  20583820.130     -187388.11249   -134026.28347  20583819.568    20583830.465
       244.000         212.000
  24378807.848     -296629.91749   -220720.16245  24378807.273    24378827.498
       205.000         137.000
  22931901.413      246173.96849    177595.98746  22931901.335    22931916.651
       226.000         176.000
  22801676.943     -388704.25949   -278226.92746  22801675.898    22801691.927
       225.000         169.000
 02  2 13 21 55  0.0000000  0  7G30G24G 4G 5G 6G 9G10
  22159274.780     -665225.47549   -499237.84346  22159274.773    22159288.698
       229.000         181.000
  20623377.234     -114696.84449    -92840.23647  20623376.524    20623387.690
       244.000         212.000
  22706759.206      159268.20549    107659.59846  22706759.088    22706773.379
       228.000         175.000
  20534428.290     -446944.68049   -336278.11148  20534427.801    20534438.448
       245.000         213.000
  24323147.019     -589124.60949   -448637.83145  24323146.246    24323166.256
       211.000         142.000
  22904268.865      100962.76249     64444.27446  22904267.995    22904284.397
       225.000         175.000
  22740833.984     -708435.51149   -527367.89746  22740833.019    22740850.225
       224.000         171.000
 02  2 13 21 55 30.0000000  0  7G30G24G 4G 5G 6G 9G10
  22142934.040     -751096.20249   -566149.92346  22142934.765    22142947.857
       229.000         181.000
  20630330.308      -78157.72049    -64368.20247  20630329.640    20630341.055
       244.000         212.000
  22724325.696      251579.81649    179590.56546  22724325.966    22724340.430
       227.000         175.000
  20527958.627     -480943.39049   -362770.56948  20527957.920    20527969.011
       245.000         213.000
  24310325.632     -656501.11549   -501138.78145  24310324.543    24310343.224
       210.000         142.000
  22919514.082      181077.46749    126871.17446  22919514.151    22919529.719
       226.000         175.000
  22722865.637     -802859.86449   -600945.06946  22722864.388    22722880.663
       225.000         171.000
 02  2 13 21 56  0.0000000  0  7G30G24G 4G 5G 6G 9G10
  22126639.928     -836722.66649   -632871.67246  22126639.996    22126653.593
       230.000         181.000
  20637360.872      -41211.82249    -35579.20047  20637360.343    20637372.048
       244.000         212.000
  22741921.912      344047.89949    251643.44146  22741922.195    22741936.796
       227.000         175.000
  20521575.379     -514487.33849   -388908.66748  20521574.590    20521585.771
       244.000         213.000
  24297506.784     -723864.59949   -553629.59845  24297505.747    24297525.267
       210.000         142.000
  22934801.004      261410.63049    189468.30946  22934801.467    22934816.696
       225.000         174.000
  22704936.210     -897079.18349   -674362.45646  22704934.791    22704951.907
       224.000         172.000
 02  2 13 21 56 30.0000000  0  7G30G24G 4G 5G 6G 9G10
  22110392.839     -922101.95049   -699400.81646  22110393.343    22110405.972
       231.000         181.000
  20644468.396       -3861.15949     -6474.80047  20644467.792    20644479.314
       244.000         212.000
  22759547.576      436670.68849    323816.89146  22759547.323    22759562.081
       229.000         175.000
  20515279.173     -547574.00849   -414690.45148  20515278.438    20515289.398
       244.000         213.000
  24284690.412     -791214.57149   -606109.88345  24284689.409    24284709.716
       211.000         144.000
  22950129.132      341959.90349    252233.83446  22950129.196    22950145.475
       224.000         174.000
  22687046.541     -991089.47849   -747616.96846  22687044.706    22687061.448
       225.000         172.000
 02  2 13 21 57  0.0000000  0  7G30G24G 4G 5G 6G 9G10
  22094193.163    -1007231.90749   -765735.69046  22094193.068    22094206.943
       231.000         182.000
  20651652.686       33892.31549     22943.47347  20651652.349    20651663.656
       244.000         212.000
  22777202.086      529445.20449    396108.55346  22777202.191    22777217.100
       227.000         175.000
  20509070.313     -580201.96549   -440114.79048  20509069.557    20509080.532
       245.000         213.000
  24271876.474     -858551.56449   -658580.06545  24271875.530    24271895.253
       212.000         146.000
  22965497.746      422721.97849    315165.18046  22965497.967    22965513.455
       225.000         174.000
  22669197.157    -1084887.73849   -820706.25546  22669195.303    22669212.096
       226.000         172.000
 02  2 13 21 57 30.0000000  0  7G30G24G 4G 5G 6G 9G10
  22078041.407    -1092109.38249   -831873.82746  22078040.970    22078055.126
       231.000         183.000
  20658913.327       72046.99549     52674.37147  20658912.872    20658924.370
       244.000         212.000
  22794885.125      622369.93149    468517.24946  22794884.880    22794899.751
       228.000         175.000
  20502949.081     -612369.12349   -465180.07548  20502948.214    20502959.313
       245.000         213.000
  24259065.178     -925875.00349   -711039.69745  24259064.829    24259083.901
       214.000         149.000
  22980906.442      503694.50749    378260.51046  22980906.489    22980921.934
       224.000         174.000
  22651388.946    -1178469.83449   -893627.09146  22651387.631    22651403.542
       224.000         173.000
 02  2 13 21 58  0.0000000  0  7G30G24G 4G 5G 6G 9G10
  22061938.096    -1176732.39049   -897813.67046  22061938.038    22061951.573
       231.000         183.000
  20666249.857      110600.81649     82716.29347  20666249.453    20666260.971
       244.000         212.000
  22812596.379      715441.77649    541040.59846  22812596.798    22812611.151
       228.000         174.000
  20496915.802     -644074.30649   -489885.37348  20496915.101    20496926.119
       245.000         213.000
  24246256.235     -993185.72149   -763489.37945  24246256.106    24246275.389
       211.000         152.000
  22996354.499      584874.00449    441517.12446  22996353.686    22996370.767
       224.000         173.000
  22633622.260    -1271833.32049   -966377.57246  22633620.461    22633637.083
       225.000         173.000
 02  2 13 21 58 30.0000000  0  7G30G24G 4G 5G 6G 9G10
  22045883.888    -1261097.82349   -963552.81846  22045883.822    22045896.854
       233.000         183.000
  20673662.031      149551.88749    113067.75247  20673661.732    20673673.058
       245.000         212.000
  22830335.315      808659.15549    613677.34746  22830334.978    22830349.963
       227.000         174.000
  20490970.872     -675315.02049   -514228.74748  20490970.067    20490981.011
       245.000         213.000
  24233449.803    -1060483.14049   -815928.71945  24233448.852    24233469.141
       212.000         154.000
  23011841.487      666258.31749    504933.33046  23011840.874    23011857.806
       222.000         172.000
  22615897.981    -1364974.06249  -1038954.49446  22615896.281    22615912.557
       225.000         173.000
 02  2 13 21 59  0.0000000  0  7G30G24G 4G 5G 6G 9G10
  22029879.043    -1345204.18349  -1029090.10046  22029879.282    22029892.295
       232.000         183.000
  20681149.247      188897.01649    143726.26847  20681148.719    20681160.308
       244.000         212.000
  22848101.005      902018.23049    686424.50646  22848100.949    22848116.151
       226.000         173.000
  20485114.434     -706091.02449   -538210.00948  20485113.411    20485124.567
       245.000         213.000
  24220645.763    -1127768.83149   -868358.92045  24220645.166    24220664.567
       213.000         156.000
  23027366.632      747843.18349    568505.80946  23027367.515    23027382.361
       223.000         172.000
  22598216.514    -1457889.97849  -1111356.22446  22598215.181    22598231.026
       225.000         173.000
 02  2 13 21 59 30.0000000  0  7G30G24G 4G 5G 6G 9G10
  22013923.902    -1429048.60449  -1094423.26246  22013923.488    22013937.456
       231.000         184.000
  20688711.143      228635.21449    174691.06947  20688710.804    20688722.367
       245.000         212.000
  22865893.442      995517.39149    759280.81446  22865893.961    22865907.716
       227.000         173.000
  20479346.766     -736400.14949   -561827.47848  20479346.004    20479356.944
       245.000         214.000
  24207843.964    -1195042.32549   -920779.61845  24207843.429    24207863.443
       214.000         156.000
  23042929.497      829626.00949    632232.53546  23042929.562    23042945.455
       223.000         172.000
  22580578.587    -1550577.25749  -1183579.79446  22580577.102    22580591.992
       224.000         173.000
 02  2 13 22  0  0.0000000  0  7G30G24G 4G 5G 6G 9G10
  21998019.065    -1512628.00849  -1159549.90446  21998018.599    21998032.901
       231.000         185.000
  20696347.547      268764.29049    205960.44947  20696347.357    20696358.834
       245.000         212.000
  22883712.113     1089154.41249    832244.55646  22883712.485    22883726.047
       225.000         172.000
  20473668.407     -766240.26049   -585079.47348  20473667.665    20473678.603
       246.000         214.000
  24195044.471    -1262303.14549   -973190.45545  24195043.190    24195062.785
       213.000         154.000
  23058529.522      911604.27849    696111.55146  23058529.202    23058545.249
       222.000         172.000
  22562984.803    -1643031.90249  -1255622.08246  22562982.822    22562999.175
       224.000         173.000
 02  2 13 22  0 30.0000000  0  7G30G24G 4G 5G 6G 9G10
  21982165.330    -1595939.54549  -1224467.83646  21982165.633    21982178.194
       233.000         185.000
  20704058.082      309282.74149    237533.23247  20704057.569    20704069.260
       244.000         212.000
  22901556.651     1182927.55449    905314.35246  22901557.302    22901571.725
       226.000         171.000
  20468079.672     -795609.21249   -607964.34148  20468078.814    20468089.783
       246.000         214.000
  24182247.484    -1329551.01349  -1025591.19145  24182246.339    24182266.203
       211.000         151.000
  23074166.289      993775.35749    760140.81146  23074166.527    23074182.220
       225.000         171.000
  22545435.960    -1735250.39249  -1327480.35946  22545434.081    22545450.385
       224.000         173.000
 02  2 13 22  1  0.0000000  0  7G30G24G 4G 5G 6G 9G10
  21966363.034    -1678981.77149  -1289175.92046  21966362.883    21966375.783
       233.000         185.000
  20711841.983      350187.51949    269407.04847  20711841.381    20711852.849
       244.000         212.000
  22919426.585     1276833.40249    978487.56946  22919427.211    22919440.450
       226.000         171.000
  20462580.659     -824506.53949   -630481.70948  20462579.931    20462591.134
       245.000         214.000
  24169452.635    -1396787.22449  -1077982.84745  24169451.317    24169470.548
       210.000         150.000
  23089839.051     1076135.07749    824317.06346  23089839.467    23089855.848
       223.000         172.000
  22527932.486    -1827230.69949  -1399153.04446  22527930.608    22527946.991
       224.000         174.000
 02  2 13 22  1 30.0000000  0  7G30G24G 4G 5G 6G 9G10
  21950612.489    -1761751.60249  -1353671.74046  21950612.057    21950625.182
       232.000         185.000
  20719699.017      391476.37949    301580.14547  20719698.701    20719710.257
       244.000         212.000
  22937321.212     1370869.94449   1051762.62046  22937321.793    22937335.209
       225.000         170.000
  20457171.816     -852930.39649   -652630.14048  20457171.135    20457181.869
       246.000         214.000
  24156660.133    -1464011.44449  -1130365.15845  24156659.503    24156678.377
       210.000         150.000
  23105547.063     1158680.76349    888638.21946  23105547.962    23105563.178
       223.000         171.000
  22510475.071    -1918968.70449  -1470636.92446  22510473.903    22510489.172
       224.000         174.000
 02  2 13 22  2  0.0000000  0  7G30G24G 4G 5G 6G 9G10
  21934914.111    -1844246.10749  -1417953.03446  21934913.545    21934926.792
       233.000         185.000
  20727629.018      433148.26249    334051.70047  20727628.781    20727640.155
       245.000         212.000
  22955240.447     1465035.39649   1125138.10546  22955241.347    22955254.817
       224.000         169.000
  20451853.467     -880878.65949   -674407.97548  20451852.547    20451863.584
       245.000         214.000
  24143870.013    -1531223.36149  -1182737.87945  24143869.037    24143888.556
       208.000         149.000
  23121290.127     1241410.17749    953102.53846  23121290.244    23121307.320
       223.000         171.000
  22493064.491    -2010460.69049  -1541929.09746  22493062.587    22493078.247
       224.000         174.000
 02  2 13 22  2 30.0000000  0  7G30G24G 4G 5G 6G 9G10
  21919268.521    -1926463.64349  -1482018.49346  21919268.096    21919281.060
       232.000         186.000
  20735631.345      475200.60849    366819.72547  20735630.961    20735642.607
       244.000         212.000
  22973183.647     1559326.51849   1198611.53646  22973184.435    22973198.347
       225.000         169.000
  20446625.681     -908350.53449   -695814.60648  20446624.856    20446635.851
       246.000         214.000
  24131081.820    -1598423.92949  -1235101.74445  24131081.060    24131100.310
       208.000         149.000
  23137067.383     1324319.35749   1017706.92646  23137068.051    23137083.487
       224.000         170.000
  22475701.314    -2101704.29049  -1613027.72946  22475700.017    22475714.964
       225.000         175.000
 02  2 13 22  3  0.0000000  0  7G30G24G 4G 5G 6G 9G10
  21903676.106    -2008401.80049  -1545866.26146  21903675.831    21903688.798
       233.000         185.000
  20743705.537      517630.84749    399882.21447  20743705.302    20743716.879
       245.000         212.000
  22991150.254     1653740.75949   1272180.90046  22991150.008    22991165.023
       224.000         169.000
  20441488.937     -935344.66549   -716848.96648  20441488.212    20441499.262
       247.000         215.000
  24118295.958    -1665613.38649  -1287456.96145  24118295.092    24118314.785
       211.000         150.000
  23152878.331     1407405.31649   1082449.07746  23152878.116    23152894.458
       222.000         169.000
  22458385.990    -2192696.19049  -1683930.23346  22458384.694    22458399.767
       225.000         175.000
 02  2 13 22  3 30.0000000  0  7G30G24G 4G 5G 6G 9G10
  21888137.517    -2090057.54449  -1609493.97446  21888137.768    21888149.960
       233.000         186.000
  20751851.434      560437.29049    433237.84247  20751851.322    20751862.460
       245.000         211.000
  23009139.901     1748276.66249   1345845.06046  23009139.984    23009154.578
       224.000         169.000
  20436443.511     -961858.61149   -737509.15748  20436442.645    20436453.601
       245.000         215.000
  24105512.299    -1732791.30449  -1339803.18045  24105511.672    24105530.781
       209.000         151.000
  23168722.371     1490665.70749   1147327.13246  23168722.507    23168738.959
       223.000         168.000
  22441119.225    -2283432.81249  -1754633.83746  22441117.338    22441133.125
       225.000         176.000
 02  2 13 22  4  0.0000000  0  7G30G24G 4G 5G 6G 9G10
  21872653.085    -2171427.95949  -1672899.35446  21872652.618    21872666.255
       234.000         187.000
  20760068.560      603618.04749    466885.15547  20760068.274    20760079.742
       244.000         211.000
  23027152.442     1842931.92949   1419602.23446  23027152.624    23027168.243
       225.000         169.000
  20431489.698     -987890.90349   -757794.03648  20431488.845    20431499.734
       246.000         214.000
  24092730.851    -1799957.72249  -1392140.44045  24092730.080    24092749.209
       213.000         151.000
  23184599.107     1574097.52149   1212338.77846  23184598.736    23184615.513
       224.000         169.000
  22423901.717    -2373910.55149  -1825135.69846  22423900.737    22423915.464
       226.000         176.000
 02  2 13 22  4 30.0000000  0  7G30G24G 4G 5G 6G 9G10
  21857223.188    -2252511.21549  -1736080.97746  21857223.109    21857236.032
       232.000         187.000
  20768356.311      647170.46749    500822.07847  20768355.587    20768367.587
       243.000         211.000
  23045187.210     1937703.69949   1493450.20046  23045188.258    23045203.012
       225.000         169.000
  20426627.739    -1013440.58249   -777702.84848  20426626.990    20426637.965
       246.000         215.000
  24079951.596    -1867113.19549  -1444469.18945  24079950.977    24079969.088
       212.000         151.000
  23200507.747     1657696.97549   1277481.05046  23200508.152    23200524.028
       224.000         168.000
  22406734.015    -2464126.62749  -1895433.69046  22406732.072    22406747.302
       225.000         176.000
 02  2 13 22  5  0.0000000  0  7G30G24G 4G 5G 6G 9G10
  21841848.509    -2333305.05749  -1799037.08346  21841848.493    21841860.744
       233.000         187.000
  20776714.322      691092.25549    535046.82447  20776713.800    20776725.467
       243.000         211.000
  23063243.600     2032589.52849   1567387.01346  23063243.169    23063259.214
       223.000         168.000
  20421857.882    -1038506.42049   -797234.64648  20421856.873    20421868.167
       245.000         214.000
  24067174.193    -1934258.10949  -1496789.71345  24067173.612    24067192.690
       214.000         150.000
  23216447.700     1741461.22449   1342751.71946  23216447.818    23216464.860
       224.000         169.000
  22389616.619    -2554077.98249  -1965525.41046  22389614.552    22389629.515
       226.000         177.000
 02  2 13 22  5 30.0000000  0  7G30G24G 4G 5G 6G 9G10
  21826529.760    -2413806.13449  -1861765.06346  21826529.938    21826541.912
       235.000         187.000
  20785142.353      735381.73549    569558.08347  20785142.136    20785153.503
       243.000         210.000
  23081321.316     2127587.75149   1641411.42746  23081321.554    23081336.675
       226.000         168.000
  20417180.405    -1063086.27649   -816387.75548  20417179.811    20417190.345
       245.000         214.000
  24054399.019    -2001391.89449  -1549101.57945  24054398.377    24054416.495
       213.000         149.000
  23232418.517     1825388.00849   1408149.04646  23232418.691    23232434.833
       224.000         169.000
  22372550.454    -2643760.39249  -2035407.56646  22372548.897    22372564.555
       226.000         177.000
 02  2 13 22  6  0.0000000  0  7G30G24G 4G 5G 6G 9G10
  21811267.011    -2494012.69249  -1924263.54547  21811266.514    21811279.107
       234.000         188.000
  20793639.858      780036.37749    604353.88547  20793639.423    20793651.069
       243.000         210.000
  23099419.869     2222695.29849   1715521.03146  23099420.264    23099433.925
       225.000         168.000
  20412595.659    -1087179.35049   -835161.54648  20412595.114    20412605.664
       245.000         214.000
  24041625.723    -2068515.51749  -1601405.48445  24041625.179    24041643.673
       212.000         148.000
  23248419.558     1909473.34449   1473669.92546  23248419.574    23248435.688
       224.000         169.000
  22355535.939    -2733171.46249  -2105078.29346  22355533.666    22355549.463
       227.000         178.000
 02  2 13 22  6 30.0000000  0  7G30G24G 4G 5G 6G 9G10
  21796060.630    -2573921.41449  -1986529.94247  21796060.261    21796073.335
       234.000         188.000
  20802206.546      825054.36449    639432.81947  20802206.052    20802217.723
       243.000         210.000
  23117538.873     2317910.93849   1789714.86246  23117539.151    23117553.859
       222.000         167.000
  20408103.949    -1110783.26549   -853554.17948  20408102.874    20408114.230
       245.000         214.000
  24028854.563    -2135628.15149  -1653700.81845  24028852.192    24028870.937
       206.000         144.000
  23264450.462     1993715.21049   1539312.76946  23264450.706    23264466.417
       224.000         170.000
  22338573.798    -2822307.24949  -2174534.52046  22338572.128    22338587.224
       227.000         178.000
 02  2 13 22  7  0.0000000  0  7G30G24G 4G 5G 6G 9G10
  21780911.583    -2653529.70249  -2048562.24447  21780911.659    21780924.266
       235.000         189.000
  20810842.056      870434.26149    674793.76047  20810841.484    20810853.112
       243.000         210.000
  23135677.964     2413232.18349   1863990.95546  23135677.943    23135692.965
       225.000         168.000
  20403705.543    -1133896.64349   -871564.57848  20403704.799    20403715.837
       245.000         214.000
  24016085.148    -2202729.84649  -1705987.61245  24016084.181    24016102.653
       202.000         139.000
  23280510.504     2078110.66849   1605075.30046  23280510.798    23280527.549
       222.000         169.000
  22321664.643    -2911164.35649  -2243773.58646  22321663.024    22321677.726
       227.000         179.000
 02  2 13 22  7 30.0000000  0  7G30G24G 4G 5G 6G 9G10
  21765820.259    -2732835.15849  -2110358.58447  21765819.986    21765832.488
       234.000         189.000
  20819545.962      916173.50149    710434.70147  20819545.569    20819557.296
       243.000         210.000
  23153836.800     2508656.66049   1938347.50546  23153837.692    23153851.995
       223.000         168.000
  20399400.803    -1156518.36749   -889191.86848  20399400.169    20399410.870
       245.000         214.000
  24003317.948    -2269820.81949  -1758266.03645  24003316.410    24003334.508
       205.000         139.000
  23296599.119     2162656.35749   1670954.88846  23296599.160    23296616.316
       222.000         170.000
  22304809.159    -2999739.65849  -2312793.09046  22304807.253    22304822.677
       227.000         180.000
 02  2 13 22  8  0.0000000  0  7G30G24G 4G 5G 6G 9G10
  21750786.955    -2811835.23849  -2171916.95447  21750787.043    21750799.478
       235.000         189.000
  20828317.824      962269.62349    746353.73147  20828317.316    20828329.044
       243.000         210.000
  23172014.747     2604182.29849   2012782.87946  23172014.828    23172030.022
       221.000         167.000
  20395189.862    -1178646.82849   -906434.79348  20395188.925    20395199.935
       245.000         214.000
  23990552.919    -2336901.08449  -1810536.12645  23990551.007    23990569.842
       209.000         141.000
  23312715.738     2247349.42249   1736949.30046  23312715.793    23312732.704
       222.000         170.000
  22288007.862    -3088029.83449  -2381590.40846  22288006.584    22288021.108
       228.000         180.000
 02  2 13 22  8 30.0000000  0  7G30G24G 4G 5G 6G 9G10
  21735812.137    -2890528.02649  -2233235.87247  21735812.050    21735824.721
       235.000         190.000
  20837157.075     1008720.36049    782549.08647  20837156.547    20837168.273
       243.000         210.000
  23190211.452     2699806.41249   2087294.99046  23190211.990    23190226.814
       224.000         166.000
  20391072.956    -1200281.11149   -923292.64948  20391072.085    20391083.292
       245.000         214.000
  23977789.832    -2403971.05949  -1862798.21345  23977788.542    23977807.870
       212.000         146.000
  23328859.872     2332186.31249   1803055.79746  23328859.137    23328876.264
       222.000         170.000
  22271261.449    -3176031.92649  -2450163.26546  22271260.417    22271275.041
       229.000         181.000
 02  2 13 22  9  0.0000000  0  7G30G24G 4G 5G 6G 9G10
  21720896.270    -2968910.85949  -2294313.27347  21720896.416    21720908.177
       234.000         190.000
  20846063.457     1055523.54349    819019.06447  20846062.871    20846074.517
       243.000         210.000
  23208426.641     2795526.54149   2161881.91546  23208427.440    23208442.205
       224.000         167.000
  20387050.341    -1221420.07449   -939764.53748  20387049.529    20387060.326
       246.000         214.000
  23965028.688    -2471030.98949  -1915052.46445  23965027.816    23965046.730
       213.000         152.000
  23345030.712     2417164.07949   1869272.05746  23345029.882    23345047.734
       220.000         169.000
  22254570.534    -3263742.94249  -2518509.30846  22254569.172    22254584.233
       229.000         182.000
 02  2 13 22  9 30.0000000  0  7G30G24G 4G 5G 6G 9G10
  21706039.862    -3046980.82749  -2355146.88647  21706039.302    21706052.054
       234.000         190.000
  20855036.507     1102676.95749    855761.94947  20855036.229    20855047.693
       243.000         210.000
  23226659.597     2891340.89749   2236542.25446  23226660.607    23226675.365
       222.000         166.000
  20383122.330    -1242061.93349   -955849.07148  20383121.379    20383132.206
       245.000         214.000
  23952269.343    -2538080.64249  -1967298.69845  23952268.769    23952286.839
       217.000         154.000
  23361227.757     2502280.00749   1935595.98346  23361227.759    23361245.335
       222.000         169.000
  22237935.662    -3351159.08649  -2586625.58246  22237934.408    22237949.878
       230.000         182.000
 02  2 13 22 10  0.0000000  0  7G30G24G 4G 5G 6G 9G10
  21691243.636    -3124735.48349  -2415734.78747  21691243.704    21691256.051
       235.000         190.000
  20864075.850     1150178.78649    892776.32647  20864075.361    20864087.083
       244.000         210.000
  23244909.957     2987247.31949   2311274.34246  23244909.904    23244925.344
       222.000         164.000
  20379289.211    -1262205.16649   -971545.06548  20379288.532    20379299.389
       246.000         214.000
  23939512.196    -2605120.19149  -2019537.10145  23939511.251    23939529.436
       217.000         156.000
  23377450.694     2587531.08849   2002025.21246  23377450.248    23377467.324
       220.000         169.000
  22221357.600    -3438276.97149  -2654509.46446  22221356.215    22221370.064
       230.000         182.000
 02  2 13 22 10 30.0000000  0  7G30G24G 4G 5G 6G 9G10
  21676507.782    -3202172.48249  -2476075.17447  21676507.616    21676519.739
       235.000         190.000
  20873180.980     1198026.53849    930060.25247  20873180.688    20873192.374
       244.000         210.000
  23263177.683     3083243.38249   2386076.30946  23263177.397    23263193.802
       224.000         165.000
  20375551.157    -1281848.99249   -986851.91348  20375550.330    20375561.292
       246.000         215.000
  23926756.574    -2672150.08649  -2071767.94845  23926755.742    23926774.975
       217.000         157.000
  23393698.631     2672914.09649   2068557.24646  23393697.950    23393715.314
       219.000         167.000
  22204836.773    -3525093.88049  -2722158.82346  22204835.432    22204849.572
       229.000         182.000
 02  2 13 22 11  0.0000000  0  7G30G24G 4G 5G 6G 9G10
  21661832.821    -3279289.26149  -2536166.03947  21661832.505    21661845.203
       235.000         190.000
  20882351.599     1246218.01249    967612.01547  20882351.309    20882363.020
       244.000         210.000
  23281462.081     3179327.04749   2460946.50846  23281462.279    23281479.034
       222.000         164.000
  20371908.390    -1300991.76349  -1001768.33148  20371907.612    20371918.269
       245.000         215.000
  23914003.031    -2739170.04349  -2123991.07245  23914002.061    23914019.075
       214.000         156.000
  23409971.254     2758426.44349   2135190.05246  23409971.644    23409988.950
       220.000         168.000
  22188373.869    -3611606.20349  -2789570.84646  22188372.329    22188387.149
       230.000         182.000
 02  2 13 22 11 30.0000000  0  7G30G24G 4G 5G 6G 9G10
  21647219.226    -3356083.73249  -2596005.74847  21647219.092    21647231.320
       235.000         190.000
  20891587.153     1294750.57249   1005429.55147  20891587.105    20891598.178
       244.000         210.000
  23299762.499     3275495.71349   2535882.93546  23299762.630    23299778.350
       222.000         164.000
  20368361.123    -1319632.78949  -1016293.77448  20368360.497    20368371.074
       246.000         215.000
  23901251.061    -2806180.56549  -2176206.84445  23901250.029    23901268.463
       210.000         152.000
  23426267.858     2844064.62949   2201920.91946  23426268.032    23426285.165
       218.000         168.000
  22171969.525    -3697810.97349  -2856743.21546  22171967.416    22171982.784
       230.000         182.000
 02  2 13 22 12  0.0000000  0  7G30G24G 4G 5G 6G 9G10
  21632667.747    -3432551.97949  -2655591.26847  21632667.766    21632679.942
       235.000         191.000
  20900887.428     1343623.39349   1043512.23047  20900887.027    20900898.307
       244.000         210.000
  23318078.945     3371748.42749   2610884.84946  23318078.510    23318092.763
       223.000         164.000
  20364909.864    -1337769.53349  -1030426.27148  20364909.017    20364919.883
       246.000         215.000
  23888501.115    -2873180.41249  -2228414.30045  23888500.155    23888518.954
       211.000         148.000
  23442587.961     2929826.71949   2268748.33246  23442587.834    23442604.985
       219.000         167.000
  22155624.434    -3783703.96949  -2923672.65846  22155623.271    22155636.874
       229.000         182.000
 02  2 13 22 12 30.0000000  0  7G30G24G 4G 5G 6G 9G10
  21618178.438    -3508692.91249  -2714921.73347  21618178.017    21618191.028
       236.000         191.000
  20910251.703     1392832.78349   1081857.17347  20910251.194    20910262.962
       244.000         210.000
  23336410.652     3468081.53049   2685949.41946  23336410.489    23336426.234
       221.000         163.000
  20361554.465    -1355402.20449  -1044165.99148  20361553.680    20361564.434
       246.000         215.000
  23875753.149    -2940171.03849  -2280614.58245  23875751.841    23875769.983
       212.000         147.000
  23458930.890     3015708.40949   2335668.93446  23458930.900    23458948.406
       218.000         166.000
  22139339.044    -3869283.32149  -2990357.71146  22139337.106    22139352.253
       230.000         182.000
 02  2 13 22 13  0.0000000  0  7G30G24G 4G 5G 6G 9G10
  21603752.044    -3584503.20649  -2773994.54847  21603751.344    21603764.445
       235.000         191.000
  20919679.815     1442377.63549   1120463.51447  20919679.457    20919691.092
       244.000         210.000
  23354757.332     3564493.78349   2761075.64246  23354757.698    23354773.303
       221.000         163.000
  20358295.442    -1372528.54449  -1057511.16248  20358294.756    20358305.170
       246.000         215.000
  23863007.000    -3007151.53249  -2332806.97445  23863006.374    23863024.241
       213.000         149.000
  23475296.098     3101707.57649   2402681.05446  23475296.361    23475312.881
       217.000         166.000
  22123114.250    -3954544.95249  -3056795.18346  22123113.117    22123126.926
       230.000         182.000
 02  2 13 22 13 30.0000000  0  7G30G24G 4G 5G 6G 9G10
  21589389.075    -3659980.71549  -2832808.06347  21589389.127    21589401.246
       236.000         191.000
  20929171.256     1492255.15549   1159329.07747  20929170.916    20929182.167
       244.000         210.000
  23373118.623     3660982.73449   2836261.63946  23373118.337    23373134.991
       220.000         163.000
  20355132.878    -1389147.89349  -1070461.27648  20355131.885    20355142.576
       246.000         215.000
  23850262.871    -3074122.39249  -2384991.88045  23850262.287    23850279.560
       216.000         153.000
  23491683.106     3187820.89549   2469782.14046  23491683.586    23491700.026
       219.000         166.000
  22106950.425    -4039486.14549  -3122982.97546  22106948.968    22106963.667
       230.000         182.000
 02  2 13 22 14  0.0000000  0  7G30G24G 4G 5G 6G 9G10
  21575089.942    -3735123.46349  -2891360.72247  21575089.446    21575101.990
       236.000         192.000
  20938725.564     1542463.00849   1198452.04347  20938725.092    20938736.395
       244.000         209.000
  23391494.113     3757545.58649   2911505.21345  23391494.475    23391510.338
       220.000         162.000
  20352066.948    -1405259.42349  -1083015.69448  20352066.238    20352076.821
       246.000         215.000
  23837520.440    -3141084.23449  -2437169.74345  23837519.459    23837537.714
       214.000         155.000
  23508091.204     3274044.74249   2536969.35446  23508091.317    23508107.810
       219.000         166.000
  22090848.067    -4124104.11649  -3188918.91346  22090846.305    22090860.769
       229.000         182.000
 02  2 13 22 14 30.0000000  0  7G30G24G 4G 5G 6G 9G10
  21560854.835    -3809927.88449  -2949649.74747  21560854.161    21560867.367
       235.000         191.000
  20948342.377     1592999.63949   1237831.20047  20948341.925    20948353.370
       244.000         209.000
  23409883.487     3854181.25149   2986805.53445  23409883.145    23409900.631
       219.000         162.000
  20349098.061    -1420861.01549  -1095172.75248  20349097.333    20349107.859
       246.000         215.000
  23824779.636    -3208036.24349  -2489339.93845  23824779.478    23824797.261
       218.000         158.000
  23524519.848     3360377.05049   2604241.07546  23524519.944    23524537.290
       221.000         167.000
  22074807.972    -4208394.86049  -3254599.87346  22074806.749    22074820.516
       229.000         182.000
 02  2 13 22 15  0.0000000  0  7G30G24G 4G 5G 6G 9G10
  21546684.674    -3884391.68149  -3007673.35347  21546684.830    21546697.004
       237.000         192.000
  20958021.278     1643862.49449   1277464.55447  20958020.934    20958032.455
       244.000         209.000
  23428286.271     3950887.45049   3062160.80145  23428286.145    23428303.867
       218.000         162.000
  20346226.407    -1435951.69249  -1106931.70148  20346225.471    20346236.435
       246.000         215.000
  23812040.958    -3274978.62449  -2541502.63345  23812039.498    23812057.790
       216.000         161.000
  23540968.617     3446814.76749   2671594.92746  23540968.866    23540985.802
       220.000         166.000
  22058830.718    -4292355.15249  -3320023.33346  22058829.160    22058843.045
       229.000         182.000
 02  2 13 22 15 30.0000000  0  7G30G24G 4G 5G 6G 9G10
  21532579.925    -3958512.73949  -3065429.89947  21532580.105    21532591.809
       237.000         193.000
  20967761.822     1695049.13149   1317350.20947  20967761.311    20967773.145
       243.000         209.000
  23446701.837     4047661.80449   3137569.17445  23446702.306    23446718.386
       218.000         161.000
  20343452.068    -1450530.60049  -1118291.87148  20343451.312    20343462.039
       246.000         215.000
  23799303.813    -3341911.52049  -2593657.91845  23799302.935    23799320.853
       216.000         162.000
  23557436.876     3533354.87349   2739028.57746  23557436.886    23557454.451
       221.000         166.000
  22042916.886    -4375982.10649  -3385187.05446  22042915.547    22042929.668
       231.000         183.000
 02  2 13 22 16  0.0000000  0  7G30G24G 4G 5G 6G 9G10
  21518540.828    -4032288.33849  -3122917.24947  21518540.404    21518552.846
       237.000         192.000
  20977563.602     1746557.74849   1357486.75647  20977563.115    20977574.932
       244.000         209.000
  23465130.125     4144502.25749   3213029.05445  23465130.758    23465147.173
       217.000         160.000
  20340775.458    -1464596.57049  -1129252.35148  20340774.465    20340785.353
       246.000         215.000
  23786568.604    -3408834.83949  -2645805.76245  23786567.902    23786585.328
       215.000         161.000
  23573924.004     3619994.37249   2806539.65346  23573924.272    23573942.090
       220.000         165.000
  22027067.257    -4459272.29049  -3450088.36946  22027065.700    22027080.175
       230.000         184.000
 02  2 13 22 16 30.0000000  0  7G30G24G 4G 5G 6G 9G10
  21504567.885    -4105715.54749  -3180133.12647  21504567.288    21504579.943
       236.000         193.000
  20987426.280     1798386.08849   1397872.44047  20987425.897    20987437.095
       244.000         209.000
  23483570.773     4241407.06549   3288539.08645  23483570.992    23483587.263
       218.000         161.000
  20338196.704    -1478148.00649  -1139811.90048  20338195.830    20338206.495
       245.000         215.000
  23773835.280    -3475748.21749  -2697945.84545  23773833.887    23773852.069
       214.000         160.000
  23590429.507     3706730.75949   2874126.22446  23590430.305    23590446.891
       221.000         165.000
  22011282.231    -4542222.30849  -3514724.60246  22011280.697    22011294.998
       230.000         184.000
 02  2 13 22 17  0.0000000  0  7G30G24G 4G 5G 6G 9G10
  21490661.676    -4178792.69549  -3237076.25047  21490661.984    21490673.838
       238.000         194.000
  20997349.234     1850531.42849   1438505.12747  20997348.758    20997360.245
       243.000         208.000
  23502023.189     4338373.65849   3364097.26245  23502023.518    23502039.868
       217.000         161.000
  20335715.905    -1491184.62649  -1149970.29148  20335715.047    20335725.660
       245.000         215.000
  23761103.579    -3542652.46949  -2750078.82245  23761103.231    23761120.813
       216.000         160.000
  23606952.806     3793560.23749   2941785.35046  23606952.827    23606969.602
       220.000         165.000
  21995562.456    -4624829.63149  -3579093.81046  21995561.500    21995575.515
       230.000         185.000
 02  2 13 22 17 30.0000000  0  7G30G24G 4G 5G 6G 9G10
  21476822.805    -4251516.71549  -3293744.19747  21476822.695    21476834.483
       236.000         194.000
  21007332.146     1902991.98249   1479383.44047  21007331.697    21007343.578
       243.000         208.000
  23520486.815     4435400.27949   3439702.21445  23520488.065    23520504.071
       216.000         160.000
  20333333.361    -1503704.91049  -1159726.34748  20333332.537    20333343.279
       245.000         215.000
  23748373.894    -3609547.03249  -2802204.28445  23748373.803    23748391.211
       217.000         160.000
  23623493.359     3880480.11249   3009514.89946  23623493.366    23623510.895
       221.000         164.000
  21979908.625    -4707090.72049  -3643193.23246  21979907.806    21979920.746
       231.000         185.000
 02  2 13 22 18  0.0000000  0  7G30G24G 4G 5G 6G 9G10
  21463051.392    -4323885.58849  -3350135.41247  21463051.369    21463063.359
       238.000         194.000
  21017374.601     1955765.35249   1520505.51247  21017374.265    21017386.095
       243.000         209.000
  23538961.484     4532484.47849   3515352.02645  23538961.966    23538978.558
       218.000         160.000
  20331049.182    -1515708.15149  -1169079.51148  20331048.328    20331059.173
       245.000         215.000
  23735645.819    -3676432.45949  -2854322.59445  23735644.585    23735662.587
       214.000         159.000
  23640050.453     3967487.33949   3077312.51246  23640050.873    23640068.070
       218.000         163.000
  21964321.161    -4789002.90549  -3707020.77346  21964320.337    21964333.807
       231.000         185.000
 02  2 13 22 18 30.0000000  0  7G30G24G 4G 5G 6G 9G10
  21449348.247    -4395896.15349  -3406247.43547  21449348.005    21449359.754
       239.000         195.000
  21027476.296     2008849.68149   1561869.87847  21027475.921    21027487.446
       243.000         209.000
  23557446.892     4629624.82449   3591045.59745  23557447.678    23557464.094
       216.000         160.000
  20328863.712    -1527192.90449  -1178028.66048  20328862.871    20328873.449
       246.000         215.000
  23722919.613    -3743308.03749  -2906433.25245  23722918.335    23722936.961
       212.000         158.000
  23656623.647     4054579.63749   3145176.40145  23656623.580    23656640.585
       217.000         162.000
  21948800.845    -4870562.23549  -3770573.36346  21948799.632    21948813.366
       231.000         185.000
 02  2 13 22 19  0.0000000  0  7G30G24G 4G 5G 6G 9G10
  21435713.593    -4467545.93849  -3462078.32647  21435713.235    21435725.332
       238.000         195.000
  21037636.675     2062242.70849   1603474.79047  21037636.337    21037647.900
       243.000         208.000
  23575942.565     4726819.22849   3666781.28145  23575943.404    23575959.188
       217.000         160.000
  20326777.081    -1538158.17549  -1186573.01548  20326776.046    20326786.824
       245.000         215.000
  23710195.274    -3810173.85449  -2958536.29045  23710194.004    23710211.982
       214.000         157.000
  23673212.514     4141753.72549   3213104.03045  23673212.596    23673230.884
       217.000         162.000
  21933348.228    -4951765.79949  -3833848.74146  21933346.890    21933360.265
       231.000         186.000
 02  2 13 22 19 30.0000000  0  7G30G24G 4G 5G 6G 9G10
  21422148.030    -4538833.01449  -3517626.58947  21422148.165    21422159.706
       239.000         195.000
  21047855.354     2115942.03849   1645318.38147  21047854.853    21047866.511
       243.000         208.000
  23594448.169     4824065.39649   3742557.30045  23594448.123    23594465.437
       218.000         160.000
  20324789.393    -1548603.22749  -1194712.00948  20324788.722    20324799.359
       246.000         215.000
  23697472.719    -3877030.05349  -3010631.84845  23697471.202    23697489.860
       214.000         156.000
  23689816.319     4229006.49249   3281092.95845  23689817.141    23689834.756
       217.000         162.000
  21917963.931    -5032610.41449  -3896844.41946  21917962.380    21917976.490
       231.000         186.000
 02  2 13 22 20  0.0000000  0  7G30G24G 4G 5G 6G 9G10
  21408652.103    -4609754.79049  -3572890.22147  21408651.989    21408663.710
       239.000         196.000
  21058131.866     2169945.58449   1687399.01947  21058131.319    21058143.281
       243.000         208.000
  23612963.058     4921361.17949   3818371.99545  23612963.456    23612979.685
       219.000         160.000
  20322900.957    -1558527.16149  -1202444.93248  20322900.059    20322910.814
       246.000         215.000
  23684752.007    -3943876.75049  -3062719.99145  23684751.008    23684769.152
       212.000         157.000
  23706434.526     4316334.80449   3349140.77145  23706435.296    23706451.837
       217.000         162.000
  21902648.456    -5113093.22249  -3959558.17346  21902647.453    21902661.618
       231.000         187.000
 02  2 13 22 20 30.0000000  0  7G30G24G 4G 5G 6G 9G10
  21395226.066    -4680308.55449  -3627867.06947  21395225.544    21395237.468
       238.000         196.000
  21068465.841     2224250.71449   1729714.65847  21068465.705    21068477.347
       243.000         208.000
  23631487.026     5018704.60349   3894223.77745  23631487.931    23631502.577
       218.000         159.000
  20321111.871    -1567928.78049  -1209770.86148  20321110.988    20321121.559
       246.000         215.000
  23672033.134    -4010713.85249  -3114800.64245  23672032.643    23672050.393
       214.000         158.000
  23723066.654     4403736.14849   3417245.47045  23723066.073    23723085.077
       216.000         162.000
  21887402.480    -5193211.02649  -4021987.50546  21887400.968    21887415.396
       232.000         187.000
 02  2 13 22 21  0.0000000  0  7G30G24G 4G 5G 6G 9G10
  21381870.508    -4750492.02649  -3682555.38547  21381870.659    21381882.378
       239.000         196.000
  21078856.834     2278855.43849   1772263.74647  21078856.481    21078868.149
       243.000         208.000
  23650019.870     5116093.77149   3970111.21845  23650019.632    23650036.660
       218.000         159.000
  20319422.341    -1576807.36449  -1216689.22548  20319421.627    20319432.085
       246.000         215.000
  23659316.289    -4077541.19849  -3166873.71545  23659315.836    23659332.621
       216.000         160.000
  23739712.110     4491207.33849   3485404.60145  23739712.409    23739730.050
       216.000         162.000
  21872226.487    -5272960.74649  -4084130.01446  21872225.204    21872239.250
       232.000         187.000
 02  2 13 22 21 30.0000000  0  7G30G24G 4G 5G 6G 9G10
  21368585.925    -4820302.79349  -3736953.28947  21368585.866    21368597.550
       239.000         197.000
  21089304.287     2333757.26349   1815044.35047  21089303.739    21089315.715
       242.000         207.000
  23668561.055     5213526.43449   4046032.56145  23668561.466    23668577.407
       218.000         159.000
  20317832.509    -1585162.13349  -1223199.42448  20317831.618    20317842.319
       246.000         215.000
  23646601.207    -4144358.97749  -3218939.32645  23646600.679    23646618.238
       217.000         161.000
  23756370.131     4578745.22149   3553615.69245  23756369.328    23756387.419
       214.000         160.000
  21857121.133    -5352339.33049  -4145983.33547  21857119.741    21857133.366
       233.000         188.000
 02  2 13 22 22  0.0000000  0  7G30G24G 4G 5G 6G 9G10
  21355372.742    -4889738.12649  -3791058.64347  21355372.453    21355384.501
       238.000         196.000
  21099807.996     2388954.59249   1858055.20947  21099807.567    21099819.342
       243.000         207.000
  23687109.927     5311001.03749   4121986.57045  23687109.415    23687125.826
       216.000         157.000
  20316342.597    -1592991.62549  -1229300.31648  20316341.799    20316352.378
       246.000         215.000
  23633887.962    -4211166.81149  -3270997.17945  23633887.290    23633905.466
       218.000         162.000
  23773040.302     4666347.38049   3621876.85345  23773039.797    23773058.473
       214.000         159.000
  21842087.144    -5431343.29449  -4207544.73647  21842085.599    21842099.309
       233.000         188.000
 02  2 13 22 22 30.0000000  0  7G30G24G 4G 5G 6G 9G10
  21342231.489    -4958795.77749  -3844869.69547  21342231.561    21342242.886
       240.000         197.000
  21110367.412     2444444.85949   1901294.33347  21110367.187    21110378.593
       242.000         207.000
  23705666.279     5408515.32149   4197971.49645  23705666.299    23705681.879
       218.000         155.000
  20314952.711    -1600295.50049  -1234991.63148  20314951.961    20314962.518
       246.000         215.000
  23621176.646    -4277965.00349  -3323047.53345  23621176.150    23621193.325
       218.000         161.000
  23789722.205     4754010.48349   3690185.52245  23789722.528    23789740.224
       215.000         159.000
  21827124.871    -5509970.02949  -4268812.18247  21827123.917    21827137.547
       233.000         188.000
 02  2 13 22 23  0.0000000  0  7G30G24G 4G 5G 6G 9G10
  21329162.601    -5027472.83049  -3898384.17547  21329162.228    21329174.137
       238.000         197.000
  21120982.278     2500226.10349   1944760.19047  21120982.058    21120993.674
       243.000         206.000
  23724230.207     5506067.94649   4273986.31345  23724230.557    23724247.206
       219.000         155.000
  20313663.176    -1607072.11249  -1240272.09348  20313662.404    20313673.084
       246.000         216.000
  23608467.196    -4344752.87949  -3375089.84045  23608465.669    23608483.347
       216.000         160.000
  23806415.356     4841732.21649   3758539.86845  23806415.332    23806433.689
       215.000         161.000
  21812235.045    -5588215.85449  -4329782.81947  21812233.225    21812247.343
       233.000         189.000
 02  2 13 22 23 30.0000000  0  7G30G24G 4G 5G 6G 9G10
  21316166.455    -5095767.30049  -3951600.54147  21316166.285    21316178.040
       239.000         197.000
  21131651.990     2556295.42049   1988450.51947  21131651.762    21131663.437
       242.000         206.000
  23742800.853     5603656.19049   4350028.85745  23742801.680    23742817.129
       216.000         155.000
  20312473.976    -1613321.32549  -1245141.59648  20312473.247    20312483.900
       246.000         216.000
  23595759.605    -4411531.02549  -3427124.55145  23595757.797    23595775.202
       215.000         158.000
  23823118.964     4929509.20349   3826937.28045  23823118.958    23823137.609
       217.000         161.000
  21797418.259    -5666078.01349  -4390454.48547  21797417.032    21797430.658
       234.000         188.000
 02  2 13 22 24  0.0000000  0  7G30G24G 4G 5G 6G 9G10
  21303243.723    -5163676.51349  -4004516.71147  21303243.701    21303255.408
       240.000         198.000
  21142376.188     2612651.10649   2032363.99647  21142375.728    21142387.819
       242.000         206.000
  23761377.738     5701278.52549   4426097.99145  23761378.110    23761394.465
       215.000         152.000
  20311385.346    -1619042.01449  -1249599.26248  20311384.581    20311395.246
       246.000         216.000
  23583053.789    -4478299.14949  -3479151.43745  23583053.582    23583070.209
       213.000         157.000
  23839832.534     5017338.69049   3895375.58346  23839832.987    23839850.940
       219.000         163.000
  21782675.134    -5743553.39449  -4450824.76247  21782673.779    21782687.560
       233.000         189.000
 02  2 13 22 24 30.0000000  0  7G30G24G 4G 5G 6G 9G10
  21290394.837    -5231197.62749  -4057130.45947  21290394.237    21290406.311
       239.000         198.000
  21153154.519     2669291.55249   2076499.36247  21153154.046    21153166.142
       243.000         206.000
  23779960.939     5798933.46349   4502192.53145  23779960.296    23779979.419
       216.000         152.000
  20310397.580    -1624232.90749  -1253644.10148  20310396.945    20310407.238
       246.000         216.000
  23570350.044    -4545056.70649  -3531170.09745  23570349.097    23570366.059
       218.000         158.000
  23856555.693     5105218.04749   3963852.75146  23856555.650    23856574.255
       218.000         163.000
  21768006.166    -5820638.73849  -4510891.11247  21768004.844    21768018.292
       234.000         189.000
 02  2 13 22 25  0.0000000  0  7G30G24G 4G 5G 6G 9G10
  21277620.018    -5298328.90149  -4109440.43647  21277619.900    21277631.356
       240.000         198.000
  21163986.446     2726213.48949   2120854.07447  21163986.027    21163998.119
       242.000         206.000
  23798550.084     5896618.41849   4578310.44745  23798550.516    23798566.651
       214.000         151.000
  20309510.568    -1628894.07549  -1257276.16548  20309509.889    20309520.370
       247.000         216.000
  23557648.456    -4611804.18649  -3583180.90345  23557647.220    23557665.309
       220.000         160.000
  23873287.590     5193143.77649   4032366.04446  23873287.937    23873305.682
       219.000         163.000
  21753411.903    -5897331.69649  -4570651.70847  21753410.437    21753424.264
       233.000         189.000
 02  2 13 22 25 30.0000000  0  7G30G24G 4G 5G 6G 9G10
  21264920.045    -5365067.75849  -4161444.63847  21264919.972    21264931.306
       240.000         198.000
  21174871.501     2783414.79549   2165426.47247  21174871.162    21174883.073
       242.000         205.000
  23817144.365     5994331.54849   4654450.33845  23817144.124    23817161.959
       214.000         151.000
  20308724.563    -1633024.60649  -1260494.75248  20308723.743    20308734.446
       246.000         216.000
  23544948.720    -4678541.41149  -3635183.71346  23544947.862    23544964.627
       220.000         163.000
  23890027.837     5281113.25949   4100913.43545  23890028.048    23890046.661
       218.000         162.000
  21738892.837    -5973629.14549  -4630104.11147  21738891.668    21738905.171
       234.000         190.000
 02  2 13 22 26  0.0000000  0  7G30G24G 4G 5G 6G 9G10
  21252295.067    -5431411.83749  -4213141.21547  21252294.663    21252306.613
       239.000         199.000
  21185809.385     2840893.49449   2210215.01447  21185809.269    21185820.855
       242.000         205.000
  23835743.648     6092070.85149   4730610.61645  23835744.837    23835763.039
       215.000         150.000
  20308039.680    -1636623.60249  -1263299.15548  20308038.957    20308049.523
       246.000         216.000
  23532250.864    -4745268.15249  -3687178.36846  23532250.332    23532266.204
       219.000         163.000
  23906775.802     5369123.62249   4169492.67245  23906776.193    23906794.512
       218.000         161.000
  21724449.696    -6049527.78949  -4689245.75347  21724448.237    21724461.943
       233.000         190.000
 02  2 13 22 26 30.0000000  0  7G30G24G 4G 5G 6G 9G10
  21239745.786    -5497358.35749  -4264528.00547  21239745.710    21239757.039
       240.000         199.000
  21196799.649     2898647.34149   2255217.96347  21196799.571    21196810.993
       242.000         205.000
  23854347.817     6189834.65649   4806789.97145  23854347.709    23854365.577
       215.000         151.000
  20307456.147    -1639690.14449  -1265688.65748  20307455.441    20307465.875
       246.000         216.000
  23519555.130    -4811984.48049  -3739164.91545  23519554.511    23519570.323
       220.000         162.000
  23923531.027     5457172.16749   4238101.65045  23923531.084    23923549.960
       216.000         160.000
  21710083.107    -6125024.18549  -4748073.96247  21710081.883    21710094.995
       234.000         191.000
 02  2 13 22 27  0.0000000  0  7G30G24G 4G 5G 6G 9G10
  21227272.508    -5562905.43149  -4315603.55647  21227272.275    21227283.308
       240.000         199.000
  21207841.840     2956673.95049   2300433.44747  21207841.437    21207853.319
       242.000         205.000
  23872956.221     6287620.85949   4882986.78045  23872957.685    23872973.616
       214.000         151.000
  20306973.930    -1642224.02149  -1267663.10448  20306973.225    20306983.815
       246.000         216.000
  23506861.283    -4878690.52149  -3791143.43345  23506859.620    23506876.962
       216.000         160.000
  23940292.924     5545255.51449   4306737.75745  23940293.380    23940310.837
       217.000         159.000
  21695793.541    -6200116.01149  -4806586.91847  21695792.126    21695805.771
       234.000         191.000
 02  2 13 22 27 30.0000000  0  7G30G24G 4G 5G 6G 9G10
  21214875.781    -5628050.14349  -4366365.56747  21214875.587    21214887.195
       239.000         199.000
  21218935.505     3014971.42549   2345860.00147  21218935.197    21218947.034
       241.000         205.000
  23891568.587     6385428.20649   4959200.06545  23891568.351    23891584.751
       216.000         152.000
  20306593.371    -1644223.78549  -1269221.35448  20306592.578    20306603.336
       246.000         216.000
  23494169.418    -4945385.44849  -3843113.27745  23494167.846    23494184.296
       214.000         158.000
  23957061.118     5633371.39149   4375399.20445  23957061.132    23957079.911
       218.000         158.000
  21681581.525    -6274799.91549  -4864782.01247  21681579.895    21681593.777
       234.000         191.000
 02  2 13 22 28  0.0000000  0  7G30G24G 4G 5G 6G 9G10
  21202556.195    -5692789.99249  -4416812.09747  21202556.156    21202567.386
       241.000         200.000
  21230080.374     3073537.95649   2391496.20447  21230079.951    21230091.881
       241.000         205.000
  23910184.639     6483254.52449   5035428.15145  23910185.133    23910201.739
       216.000         152.000
  20306314.528    -1645689.10649  -1270363.15748  20306313.712    20306324.143
       246.000         215.000
  23481479.551    -5012069.39949  -3895074.61745  23481477.931    23481494.065
       215.000         156.000
  23973834.857     5721516.78949   4444083.66245  23973835.209    23973852.354
       218.000         156.000
  21667447.701    -6349072.80849  -4922656.85047  21667446.179    21667459.629
       235.000         191.000
 02  2 13 22 28 30.0000000  0  7G30G24G 4G 5G 6G 9G10
  21190314.018    -5757122.96649  -4466941.59047  21190313.681    21190325.092
       240.000         200.000
  21241275.854     3132370.70249   2437339.84647  21241275.491    21241287.642
       243.000         205.000
  23928803.788     6581098.01449   5111669.60545  23928804.943    23928820.137
       215.000         153.000
  20306137.455    -1646619.42649  -1271088.07648  20306136.744    20306147.210
       246.000         215.000
  23468791.941    -5078742.46349  -3947027.45145  23468790.474    23468807.653
       215.000         156.000
  23990613.630     5809688.80149   4512788.84945  23990613.964    23990631.782
       217.000         154.000
  21653392.620    -6422932.04549  -4980209.36147  21653391.219    21653404.621
       235.000         192.000
 02  2 13 22 29  0.0000000  0  7G30G24G 4G 5G 6G 9G10
  21178149.714    -5821046.01949  -4516751.67147  21178149.272    21178160.616
       240.000         199.000
  21252521.856     3191468.05449   2483389.67747  21252521.725    21252533.337
       242.000         205.000
  23947425.808     6678957.11149   5187923.22045  23947426.821    23947443.105
       216.000         154.000
  20306062.432    -1647013.81249  -1271395.38548  20306061.766    20306072.363
       246.000         216.000
  23456106.554    -5145403.95949  -3998971.27045  23456105.866    23456122.825
       219.000         160.000
  24007397.019     5897885.07849   4581512.94645  24007397.545    24007416.228
       217.000         152.000
  21639416.936    -6496374.23049  -5037436.90047  21639415.704    21639429.056
       236.000         192.000
 02  2 13 22 29 30.0000000  0  7G30G24G 4G 5G 6G 9G10
  21166063.716    -5884557.55949  -4566241.09347  21166063.919    21166075.057
       241.000         200.000
  21263817.527     3250827.10849   2529643.42647  21263817.096    21263829.047
       242.000         205.000
  23966050.595     6776829.44449   5264187.16145  23966050.678    23966068.205
       218.000         155.000
  20306089.317    -1646872.35349  -1271285.15748  20306088.537    20306099.091
       246.000         216.000
  23443423.248    -5212054.48549  -4050906.55145  23443422.366    23443438.360
       220.000         162.000
  24024184.342     5986102.14249   4650253.23245  24024184.873    24024203.202
       215.000         152.000
  21625521.215    -6569396.86849  -5094337.54047  21625520.444    21625533.217
       236.000         193.000
 02  2 13 22 30  0.0000000  0  7G30G24G 4G 5G 6G 9G10
  21154056.726    -5947654.78349  -4615407.66047  21154056.721    21154067.658
       241.000         200.000
  21275162.715     3310446.15249   2576099.76347  21275162.352    21275174.317
       242.000         204.000
  23984677.306     6874713.65749   5340460.34245  23984677.443    23984695.083
       216.000         156.000
  20306218.415    -1646194.00649  -1270756.56848  20306217.838    20306228.188
       247.000         216.000
  23430742.144    -5278693.32649  -4102832.72346  23430741.505    23430757.764
       221.000         165.000
  24040975.230     6074337.47449   4719007.74545  24040976.039    24040994.402
       215.000         151.000
  21611705.797    -6641996.74949  -5150908.74947  21611704.478    21611717.892
       235.000         193.000
 02  2 13 22 30 30.0000000  0  7G30G24G 4G 5G 6G 9G10
  21142128.884    -6010335.68649  -4664249.83447  21142129.089    21142139.839
       240.000         200.000
  21286556.787     3370322.20549   2622756.37347  21286556.594    21286568.334
       242.000         204.000
  24003305.873     6972607.49749   5416741.04745  24003305.617    24003323.664
       216.000         156.000
  20306449.715    -1644978.56949  -1269809.46748  20306449.008    20306459.640
       246.000         216.000
  23418063.309    -5345320.74049  -4154750.00446  23418062.563    23418078.798
       220.000         166.000
  24057768.953     6162587.72649   4787773.87945  24057769.153    24057787.385
       213.000         150.000
  21597971.305    -6714171.25149  -5207148.50647  21597969.577    21597983.274
       235.000         193.000
 02  2 13 22 31  0.0000000  0  7G30G24G 4G 5G 6G 9G10
  21130280.757    -6072597.51649  -4712765.46647  21130280.781    21130292.095
       241.000         200.000
  21297999.556     3430453.94149   2669612.20947  21297999.252    21298011.346
       242.000         204.000
  24021936.185     7070509.52549   5493028.10545  24021936.429    24021954.028
       217.000         156.000
  20306783.425    -1643224.94449  -1268443.00548  20306782.737    20306793.414
       247.000         216.000
  23405386.672    -5411936.32349  -4206658.06646  23405386.168    23405401.898
       221.000         167.000
  24074565.013     6250850.45449   4856549.74245  24074565.265    24074583.638
       211.000         149.000
  21584318.378    -6785916.99449  -5263054.16747  21584316.968    21584330.648
       235.000         192.000
 02  2 13 22 31 30.0000000  0  7G30G24G 4G 5G 6G 9G10
  21118512.868    -6134437.88749  -4760952.67647  21118512.908    21118523.786
       241.000         201.000
  21309490.546     3490839.17649   2716665.58347  21309490.117    21309502.203
       242.000         204.000
  24040567.477     7168417.95449   5569320.15945  24040567.571    24040586.087
       215.000         156.000
  20307219.662    -1640932.59249  -1266656.74748  20307219.115    20307229.356
       247.000         216.000
  23392712.339    -5478539.82449  -4258556.72146  23392711.393    23392727.660
       221.000         166.000
  24091362.832     6339123.00549   4925333.26745  24091363.206    24091382.180
       210.000         149.000
  21570747.662    -6857231.24449  -5318623.59847  21570746.383    21570759.795
       236.000         193.000
 02  2 13 22 32  0.0000000  0  7G30G24G 4G 5G 6G 9G10
  21106825.740    -6195854.40249  -4808809.61447  21106825.619    21106836.426
       241.000         201.000
  21321029.303     3551475.39349   2763914.52747  21321029.159    21321040.874
       242.000         204.000
  24059199.835     7266331.20549   5645615.96145  24059199.972    24059218.443
       215.000         156.000
  20307758.500    -1638101.15449  -1264450.42248  20307757.542    20307768.318
       246.000         216.000
  23380040.305    -5545130.86949  -4310445.67746  23380039.046    23380054.797
       219.000         165.000
  24108161.997     6427402.74749   4994122.37845  24108162.017    24108181.244
       209.000         149.000
  21557259.654    -6928111.03849  -5373854.49947  21557258.301    21557271.237
       237.000         193.000
 02  2 13 22 32 30.0000000  0  7G30G24G 4G 5G 6G 9G10
  21095219.543    -6256844.98249  -4856334.66447  21095219.124    21095230.359
       240.000         201.000
  21332615.332     3612359.91949   2811356.95847  21332615.088    21332626.960
       242.000         204.000
  24077832.656     7364247.23349   5721913.93345  24077833.902    24077852.260
       215.000         154.000
  20308399.857    -1634730.57249  -1261823.99348  20308399.158    20308409.843
       246.000         216.000
  23367370.587    -5611709.61649  -4362325.05446  23367370.356    23367385.053
       220.000         164.000
  24124962.000     6515686.40949   5062914.52945  24124962.476    24124981.822
       210.000         149.000
  21543854.762    -6998553.79549  -5428744.86447  21543853.531    21543866.448
       237.000         193.000
 02  2 13 22 33  0.0000000  0  7G30G24G 4G 5G 6G 9G10
  21083694.657    -6317407.63449  -4903526.25247  21083694.682    21083705.854
       240.000         201.000
  21344248.187     3673490.91249   2858991.44647  21344247.875    21344259.742
       242.000         204.000
  24096465.770     7462163.92749   5798212.44645  24096465.674    24096485.369
       216.000         153.000
  20309143.919    -1630820.60149  -1258777.26148  20309143.243    20309153.789
       247.000         216.000
  23354703.207    -5678276.37349  -4414195.09546  23354703.046    23354718.381
       220.000         164.000
  24141762.276     6603970.80649   5131707.27245  24141761.976    24141782.860
       208.000         149.000
  21530533.518    -7068557.14349  -5483292.82147  21530532.223    21530545.504
       236.000         193.000
 02  2 13 22 33 30.0000000  0  7G30G24G 4G 5G 6G 9G10
  21072251.803    -6377540.09149  -4950382.63047  21072251.844    21072262.967
       241.000         202.000
  21355927.600     3734866.26749   2906816.34147  21355927.459    21355939.288
       243.000         204.000
  24115098.688     7560079.62149   5874510.17145  24115098.914    24115118.194
       213.000         151.000
  20309990.759    -1626370.51449  -1255309.65548  20309990.006    20310000.357
       246.000         215.000
  23342038.316    -5744830.56149  -4466055.33446  23342036.784    23342053.191
       219.000         164.000
  24158562.065     6692253.22349   5200498.44745  24158561.416    24158582.809
       208.000         149.000
  21517296.453    -7138117.92349  -5537495.92747  21517295.007    21517307.946
       237.000         193.000
 02  2 13 22 34  0.0000000  0  7G30G24G 4G 5G 6G 9G10
  21060891.333    -6437239.64849  -4996901.69047  21060890.849    21060902.300
       240.000         202.000
  21367653.020     3796483.24849   2954829.51747  21367652.942    21367664.471
       242.000         204.000
  24133731.178     7657992.75149   5950805.89545  24133731.465    24133750.420
       210.000         149.000
  20310940.458    -1621379.74849  -1251420.74548  20310939.659    20310950.031
       246.000         215.000
  23329375.631    -5811372.07949  -4517905.68946  23329375.379    23329390.804
       219.000         164.000
  24175360.951     6780531.11349   5269286.10345  24175361.845    24175380.705
       212.000         150.000
  21504144.193    -7207233.09549  -5591351.80047  21504143.052    21504155.894
       236.000         194.000
 02  2 13 22 34 30.0000000  0  7G30G24G 4G 5G 6G 9G10
  21049613.587    -6496503.89349  -5043081.54147  21049613.436    21049624.491
       241.000         202.000
  21379424.095     3858340.13749   3003029.63647  21379423.813    21379435.538
       242.000         204.000
  24152362.950     7755901.91549   6027098.52345  24152363.117    24152381.396
       211.000         147.000
  20311993.195    -1615847.64749  -1247110.01448  20311992.320    20312002.997
       246.000         215.000
  23316715.675    -5877900.30049  -4569745.71846  23316715.414    23316730.516
       219.000         165.000
  24192158.613     6868801.89349   5338068.22445  24192159.756    24192178.351
       214.000         153.000
  21491077.312    -7275899.68449  -5644858.12247  21491075.878    21491089.042
       237.000         194.000
 02  2 13 22 35  0.0000000  0  7G30G24G 4G 5G 6G 9G10
  21038419.119    -6555331.02549  -5088920.78147  21038419.185    21038430.120
       241.000         202.000
  21391240.373     3920434.67549   3051414.93347  21391239.863    21391251.952
       241.000         203.000
  24170993.442     7853804.81749   6103386.28145  24170993.120    24171011.017
       210.000         145.000
  20313148.892    -1609774.48849  -1242377.68448  20313148.110    20313158.588
       246.000         216.000
  23304058.037    -5944415.58649  -4621575.63246  23304057.187    23304072.902
       217.000         165.000
  24208954.303     6957062.28049   5406842.25945  24208954.250    24208973.667
       213.000         154.000
  21478096.281    -7344115.29449  -5698013.03247  21478095.104    21478107.710
       237.000         195.000
 02  2 13 22 35 30.0000000  0  7G30G24G 4G 5G 6G 9G10
  21027308.422    -6613718.05749  -5134417.09347  21027308.187    21027319.405
       241.000         202.000
  21403101.507     3982765.33249   3099984.21747  21403101.271    21403112.695
       242.000         203.000
  24189622.533     7951700.53149   6179668.45545  24189623.662    24189641.205
       206.000         143.000
  20314407.726    -1603159.24449  -1237222.95548  20314406.969    20314417.170
       246.000         215.000
  23291402.990    -6010917.03049  -4673394.77446  23291402.138    23291418.636
       219.000         166.000
  24225747.469     7045310.14749   5475606.52145  24225747.814    24225767.919
       214.000         155.000
  21465201.674    -7411876.42549  -5750813.80847  21465200.551    21465213.175
       236.000         195.000
 02  2 13 22 36  0.0000000  0  7G30G24G 4G 5G 6G 9G10
  21016281.787    -6671663.08649  -5179568.98947  21016281.731    21016293.090
       241.000         202.000
  21415007.132     4045329.38549   3148735.36647  21415006.480    21415018.675
       242.000         203.000
  24208250.088     8049586.99149   6255943.38645  24208250.787    24208268.165
       208.000         140.000
  20315769.718    -1596002.06449  -1231645.93048  20315769.136    20315779.445
       247.000         215.000
  23278750.832    -6077404.76249  -4725203.22846  23278751.046    23278766.278
       220.000         168.000
  24242537.867     7133542.40149   5544358.60945  24242538.440    24242558.289
       215.000         157.000
  21452393.969    -7479180.99249  -5803258.81547  21452392.967    21452405.530
       236.000         194.000
 02  2 13 22 36 30.0000000  0  7G30G24G 4G 5G 6G 9G10
  21005339.632    -6729164.36949  -5224375.10747  21005339.306    21005350.397
       241.000         203.000
  21426956.536     4108123.94449   3197666.13547  21426956.117    21426968.021
       242.000         202.000
  24226875.120     8147462.08849   6332209.47445  24226874.194    24226893.752
       203.000         139.000
  20317234.839    -1588303.04449  -1225646.69548  20317234.042    20317244.520
       247.000         216.000
  23266101.102    -6143878.95549  -4777001.14046  23266100.224    23266116.045
       220.000         168.000
  24259324.697     7221755.93549   5613096.11945  24259325.199    24259344.938
       217.000         159.000
  21439673.550    -7546026.73849  -5855346.28947  21439672.204    21439685.139
       236.000         194.000
 02  2 13 22 37  0.0000000  0  7G30G24G 4G 5G 6G 9G10
  20994482.520    -6786218.40549  -5268832.72347  20994482.172    20994492.860
       241.000         202.000
  21438949.707     4171148.34549   3246775.99947  21438949.374    21438961.302
       242.000         202.000
  24245497.904     8245325.04349   6408466.09245  24245496.912    24245516.352
       206.000         137.000
  20318803.247    -1580060.88749  -1219224.24648  20318802.496    20318812.837
       246.000         216.000
  23253454.146    -6210338.36649  -4828787.54546  23253453.899    23253469.364
       222.000         168.000
  24276107.619     7309948.99749   5681817.66145  24276107.940    24276127.851
       215.000         159.000
  21427041.254    -7612409.63349  -5907073.11447  21427039.759    21427052.822
       237.000         194.000
 02  2 13 22 37 30.0000000  0  7G30G24G 4G 5G 6G 9G10
  20983710.746    -6842824.34249  -5312941.16847  20983710.599    20983721.428
       241.000         203.000
  21450985.997     4234399.02849   3296062.18047  21450985.472    21450997.377
       242.000         201.000
  24264117.940     8343173.17949   6484711.15945  24264119.450    24264136.623
       208.000         138.000
  20320474.896    -1571276.49849  -1212379.26948  20320474.228    20320484.411
       247.000         216.000
  23240810.007    -6276783.98449  -4880563.22546  23240810.152    23240824.639
       222.000         168.000
  24292885.836     7398117.78449   5750520.28145  24292886.125    24292906.058
       217.000         159.000
  21414497.253    -7678328.27249  -5958438.16947  21414495.663    21414509.107
       236.000         195.000
 02  2 13 22 38  0.0000000  0  7G30G24G 4G 5G 6G 9G10
  20973024.897    -6898978.80449  -5356697.81247  20973024.407    20973036.237
       240.000         203.000
  21463065.001     4297874.80449   3345523.76747  21463064.859    21463076.554
       241.000         201.000
  24282735.223     8441005.80349   6560944.16945  24282736.501    24282753.947
       210.000         139.000
  20322249.944    -1561948.65749  -1205110.82648  20322249.300    20322259.683
       247.000         216.000
  23228168.608    -6343214.55449  -4932327.16246  23228167.095    23228182.745
       221.000         166.000
  24309659.127     7486260.42949   5819202.53645  24309660.023    24309679.336
       215.000         158.000
  21402042.282    -7743779.06549  -6009438.67147  21402040.935    21402053.725
       237.000         196.000
 02  2 13 22 38 30.0000000  0  7G30G24G 4G 5G 6G 9G10
  20962425.060    -6954680.49249  -5400101.64647  20962424.885    20962435.907
       241.000         203.000
  21475186.333     4361572.65549   3395158.39347  21475186.308    21475197.914
       241.000         201.000
  24301349.172     8538820.56449   6637163.25445  24301350.945    24301367.906
       210.000         140.000
  20324128.273    -1552077.89549  -1197419.32948  20324127.529    20324138.030
       247.000         216.000
  23215529.741    -6409630.82449  -4984079.95546  23215528.654    23215544.478
       220.000         165.000
  24326426.676     7574373.15249   5887861.47145  24326427.055    24326446.911
       213.000         156.000
  21389676.737    -7808759.79649  -6060072.88047  21389675.396    21389688.310
       237.000         197.000
 02  2 13 22 39  0.0000000  0  7G30G24G 4G 5G 6G 9G10
  20951912.069    -7009926.41049  -5443150.34247  20951911.913    20951922.695
       242.000         203.000
  21487349.698     4425491.21749   3444964.99947  21487349.278    21487361.285
       241.000         200.000
  24319959.495     8636616.60149   6713367.74745  24319960.532    24319979.431
       212.000         141.000
  20326110.204    -1541662.95249  -1189303.79748  20326109.577    20326119.652
       247.000         216.000
  23202894.009    -6476031.52749  -5035820.62546  23202893.271    23202909.191
       220.000         165.000
  24343188.069     7662454.08949   5956495.64245  24343186.952    24343208.094
       212.000         155.000
  21377401.417    -7873267.03849  -6110338.14847  21377400.214    21377412.864
       238.000         198.000
 02  2 13 22 39 30.0000000  0  7G30G24G 4G 5G 6G 9G10
  20941486.116    -7064714.78349  -5485842.49947  20941486.121    20941497.287
       241.000         203.000
  21499554.490     4489627.70749   3494941.42247  21499554.308    21499566.225
       241.000         200.000
  24338565.947     8734391.93149   6789556.12245  24338566.761    24338584.309
       212.000         143.000
  20328195.579    -1530704.21849  -1180764.52548  20328194.784    20328205.266
       247.000         216.000
  23190261.193    -6542416.84749  -5087549.29046  23190260.107    23190277.119
       221.000         167.000
  24359942.916     7750500.13949   6025102.62245  24359943.702    24359962.974
       212.000         153.000
  21365216.536    -7937298.75149  -6160232.88547  21365215.179    21365227.983
       238.000         198.000
 02  2 13 22 40  0.0000000  0  7G30G24G 4G 5G 6G 9G10
  20931147.650    -7119043.20649  -5528176.26147  20931147.628    20931158.765
       241.000         204.000
  21511800.462     4553980.47449   3545086.37247  21511800.111    21511812.294
       240.000         200.000
  24357167.939     8832144.90249   6865727.06245  24357167.954    24357186.311
       213.000         144.000
  20330384.411    -1519201.72949  -1171801.55248  20330383.808    20330394.178
       247.000         216.000
  23177631.332    -6608786.33849  -5139265.62446  23177630.181    23177646.245
       222.000         168.000
  24376690.654     7838508.64149   6093680.34045  24376691.458    24376710.782
       212.000         152.000
  21353122.684    -8000852.13049  -6209754.89347  21353121.671    21353133.887
       239.000         198.000
 02  2 13 22 40 30.0000000  0  7G30G24G 4G 5G 6G 9G10
  20920897.224    -7172909.42149  -5570149.85447  20920897.154    20920907.951
       242.000         204.000
  21524087.196     4618547.67349   3595398.41647  21524086.895    21524099.194
       240.000         200.000
  24375765.337     8929874.16549   6941879.52745  24375764.649    24375783.424
       211.000         145.000
  20332676.803    -1507155.28849  -1162414.71748  20332675.991    20332686.669
       247.000         216.000
  23165004.617    -6675139.52449  -5190969.25946  23165003.911    23165019.528
       223.000         170.000
  24393430.774     7926477.24149   6162226.97145  24393431.659    24393451.005
       211.000         150.000
  21341120.365    -8063924.40349  -6258902.01247  21341119.061    21341131.415
       239.000         198.000
 02  2 13 22 41  0.0000000  0  7G30G24G 4G 5G 6G 9G10
  20910735.259    -7226310.82749  -5611761.26147  20910735.059    20910745.891
       242.000         204.000
  21536414.235     4683327.02049   3645875.77347  21536413.761    21536426.190
       240.000         199.000
  24394357.748     9027578.52149   7018012.58145  24394357.268    24394374.860
       211.000         145.000
  20335072.812    -1494564.16549  -1152603.45448  20335071.963    20335082.431
       247.000         216.000
  23152381.291    -6741475.66849  -5242659.62246  23152381.600    23152395.957
       224.000         172.000
  24410162.768     8014403.62149   6230740.70445  24410163.226    24410183.200
       209.000         148.000
  21329210.104    -8126512.60149  -6307671.93047  21329208.576    21329221.250
       239.000         199.000
 02  2 13 22 41 30.0000000  0  7G30G24G 4G 5G 6G 9G10
  20900661.912    -7279246.18749  -5653009.52547  20900661.913    20900672.779
       242.000         204.000
  21548781.230     4748315.74349   3696516.27647  21548781.009    21548793.360
       240.000         199.000
  24412945.173     9125255.69249   7094124.46345  24412945.569    24412963.061
       213.000         144.000
  20337572.345    -1481429.05949  -1142368.30748  20337571.662    20337581.991
       247.000         216.000
  23139760.922    -6807795.45749  -5294337.23146  23139760.367    23139775.519
       223.000         171.000
  24426886.059     8102284.07149   6299218.63045  24426885.829    24426905.636
       208.000         147.000
  21317392.375    -8188615.05749  -6356063.35447  21317391.117    21317403.750
       239.000         200.000
 02  2 13 22 42  0.0000000  0  7G30G24G 4G 5G 6G 9G10
  20890677.813    -7331712.61249  -5693892.37647  20890677.595    20890688.808
       242.000         204.000
  21561187.838     4813512.38449   3747318.79147  21561187.710    21561200.101
       240.000         199.000
  24431527.159     9222904.61849   7170214.34845  24431527.216    24431545.792
       215.000         146.000
  20340175.528    -1467749.18849  -1131708.67148  20340174.760    20340185.258
       247.000         216.000
  23127143.914    -6874097.82849  -5346001.27546  23127143.092    23127158.406
       221.000         170.000
  24443600.248     8190116.59249   6367659.21545  24443600.727    24443620.699
       208.000         145.000
  21305667.620    -8250228.51449  -6404073.73547  21305666.324    21305678.821
       239.000         199.000
 02  2 13 22 42 30.0000000  0  7G30G24G 4G 5G 6G 9G10
  20880783.331    -7383708.44349  -5734408.53647  20880783.305    20880794.140
       242.000         204.000
  21573633.512     4878914.42149   3798281.35147  21573633.594    21573645.496
       241.000         200.000
  24450103.480     9320523.43849   7246280.75645  24450102.746    24450121.308
       212.000         147.000
  20342882.277    -1453524.98249  -1120624.88248  20342881.586    20342892.117
       247.000         216.000
  23114530.152    -6940382.99049  -5397651.90846  23114529.654    23114545.077
       221.000         168.000
  24460304.757     8277898.09949   6436060.04745  24460305.013    24460326.176
       209.000         144.000
  21294036.345    -8311350.68849  -6451701.30147  21294035.366    21294047.595
       239.000         199.000
 02  2 13 22 43  0.0000000  0  7G30G24G 4G 5G 6G 9G10
  20870978.705    -7435231.54449  -5774556.33647  20870978.532    20870989.650
       242.000         204.000
  21586117.962     4944519.93049   3849402.46647  21586117.522    21586129.559
       241.000         199.000
  24468673.767     9418110.51549   7322322.42645  24468673.930    24468692.256
       212.000         147.000
  20345692.655    -1438756.45249  -1109116.93848  20345691.871    20345702.532
       247.000         216.000
  23101919.667    -7006650.56349  -5449288.83346  23101918.704    23101933.733
       221.000         167.000
  24476999.066     8365625.90149   6504419.00845  24477000.305    24477020.450
       209.000         145.000
  21282499.074    -8371979.00749  -6498944.04747  21282497.404    21282510.180
       238.000         198.000
 02  2 13 22 43 30.0000000  0  8G30G24G23G 4G 5G 6G 9G10
  20861263.929    -7486282.72749  -5814336.40847  20861263.967    20861275.041
       242.000         205.000
  21598640.043     5010323.82949   3900678.17347  21598639.793    21598652.098
       240.000         199.000
  24462868.281    -2006534.57549  -1537816.04845  24462866.140    24462890.319
       207.000         137.000
  24487237.267     9515661.55049   7398336.02045  24487238.428    24487256.215
       212.000         147.000
  20348606.013    -1423446.56849  -1097187.16548  20348605.074    20348615.807
       246.000         216.000
  23089312.001    -7072903.04149  -5500913.99846  23089311.562    23089327.252
       223.000         169.000
  24493682.181     8453294.39549   6572731.76345  24493682.586    24493702.804
       209.000         146.000
  21271055.637    -8432113.82749  -6545802.24647  21271054.355    21271066.690
       237.000         198.000
 02  2 13 22 44  0.0000000  0  8G30G24G23G 4G 5G 6G 9G10
  20851639.429    -7536859.67249  -5853746.94447  20851639.281    20851650.008
       242.000         205.000
  21611199.438     5076324.00149   3952106.81147  21611199.388    21611211.456
       240.000         199.000
  24442920.512    -2111357.65149  -1619495.65145  24442917.800    24442943.045
       203.000         137.000
  24505793.724     9613175.25149   7474320.54045  24505794.382    24505813.182
       213.000         147.000
  20351622.470    -1407595.04349  -1084835.33348  20351621.795    20351632.373
       247.000         216.000
  23076707.550    -7139139.82949  -5552526.95646  23076707.688    23076722.400
       225.000         171.000
  24510353.525     8540901.26749   6640996.49845  24510354.315    24510374.530
       210.000         146.000
  21259706.633    -8491752.48249  -6592273.81847  21259705.382    21259718.010
       238.000         198.000
 02  2 13 22 44 30.0000000  0  8G30G24G23G 4G 5G 6G 9G10
  20842106.543    -7586954.89149  -5892782.11147  20842106.570    20842117.273
       242.000         205.000
  21623796.893     5142523.91649   4003691.09747  21623796.307    21623809.256
       240.000         199.000
  24422970.820    -2216191.23749  -1701183.44645  24422968.591    24422992.541
       205.000         138.000
  24524343.834     9710655.42649   7550278.92245  24524344.939    24524362.641
       211.000         146.000
  20354742.986    -1391196.70549  -1072057.41348  20354742.275    20354752.689
       247.000         216.000
  23064107.095    -7205355.27449  -5604123.26946  23064106.212    23064121.875
       224.000         172.000
  24527013.561     8628449.07549   6709215.20045  24527013.752    24527034.732
       211.000         147.000
  21248453.677    -8550886.97549  -6638352.53847  21248452.402    21248465.215
       238.000         198.000
 02  2 13 22 45  0.0000000  0  8G30G24G23G 4G 5G 6G 9G10
  20832665.608    -7636567.32549  -5931441.07747  20832665.626    20832676.534
       243.000         206.000
  21636431.813     5208920.74949   4055428.82347  21636431.600    21636443.760
       240.000         199.000
  24403019.332    -2321033.66049  -1782878.12845  24403016.353    24403041.671
       204.000         140.000
  24542886.837     9808099.41549   7626209.09145  24542887.133    24542906.859
       211.000         145.000
  20357967.353    -1374252.61649  -1058854.23448  20357966.603    20357977.200
       246.000         216.000
  23051510.517    -7271550.05149  -5655703.45946  23051509.022    23051525.306
       224.000         172.000
  24543661.719     8715934.49449   6777385.29145  24543662.606    24543683.363
       213.000         148.000
  21237296.884    -8609516.07149  -6684037.43947  21237295.956    21237307.973
       238.000         198.000
 02  2 13 22 45 30.0000000  0  8G30G24G23G 4G 5G 6G 9G10
  20823316.707    -7685695.71149  -5969722.87347  20823316.538    20823327.341
       242.000         205.000
  21649103.597     5275511.33849   4107317.52447  21649103.498    21649115.702
       240.000         198.000
  24383066.631    -2425882.86849  -1864578.13845  24383063.486    24383088.457
       206.000         142.000
  24561422.664     9905505.39249   7702109.63245  24561422.851    24561441.968
       207.000         144.000
  20361295.365    -1356763.58249  -1045226.42248  20361294.719    20361305.390
       246.000         216.000
  23038917.859    -7337724.49449  -5707267.81746  23038917.469    23038932.122
       224.000         172.000
  24560297.305     8803353.91049   6845503.96645  24560297.520    24560318.563
       212.000         147.000
  21226236.566    -8667638.17549  -6729327.28847  21226235.323    21226247.535
       238.000         198.000
 02  2 13 22 46  0.0000000  0  8G30G24G23G 4G 5G 6G 9G10
  20814060.256    -7734338.36149  -6007626.16947  20814060.146    20814071.038
       242.000         206.000
  21661811.825     5342293.11949   4159355.21247  21661811.640    21661823.877
       239.000         198.000
  24363113.113    -2530736.49949  -1946281.60945  24363110.470    24363133.956
       209.000         143.000
  24579950.749    10002871.12249   7777978.84445  24579952.513    24579970.099
       207.000         142.000
  20364727.023    -1338730.18349  -1031174.42948  20364726.383    20364736.980
       246.000         216.000
  23026329.096    -7403878.58549  -5758816.30046  23026328.554    23026343.043
       224.000         171.000
  24576919.735     8890704.13949   6913568.70845  24576919.752    24576941.291
       212.000         146.000
  21215273.053    -8725251.16749  -6774220.42247  21215271.673    21215284.047
       238.000         198.000
 02  2 13 22 46 30.0000000  0  8G30G24G23G 4G 5G 6G 9G10
  20804896.615    -7782493.51049  -6045149.58947  20804896.750    20804907.211
       243.000         206.000
  21674555.998     5409263.77149   4211540.07447  21674555.847    21674568.321
       240.000         198.000
  24343159.303    -2635592.18549  -2027986.67445  24343156.943    24343181.217
       208.000         142.000
  24598470.920    10100195.00749   7853815.42945  24598471.413    24598490.124
       206.000         141.000
  20368262.181    -1320152.70349  -1016698.48048  20368261.506    20368271.986
       246.000         216.000
  23013744.132    -7470012.17249  -5810348.80646  23013742.278    23013759.085
       224.000         170.000
  24593528.458     8977982.48949   6981577.44245  24593528.465    24593551.087
       212.000         145.000
  21204406.894    -8782352.72649  -6818715.03147  21204405.456    21204417.966
       238.000         199.000
 02  2 13 22 47  0.0000000  0  8G30G24G23G 4G 5G 6G 9G10
  20795826.075    -7830159.28549  -6082291.69147  20795826.019    20795836.757
       242.000         206.000
  21687335.752     5476421.12049   4263870.40847  21687335.220    21687348.125
       239.000         198.000
  24323205.533    -2740447.29349  -2109691.28945  24323202.967    24323226.541
       208.000         141.000
  24616983.028    10197475.60649   7929618.28145  24616984.226    24617000.665
       206.000         139.000
  20371900.897    -1301031.25849  -1001798.66748  20371900.207    20371910.683
       246.000         216.000
  23001163.143    -7536124.97449  -5861865.12046  23001163.016    23001177.578
       225.000         171.000
  24610123.064     9065186.10649   7049527.94345  24610123.956    24610143.733
       212.000         145.000
  21193638.466    -8838940.66749  -6862809.42947  21193637.330    21193649.323
       239.000         199.000
 02  2 13 22 47 30.0000000  0  8G30G24G23G 4G 5G 6G 9G10
  20786848.912    -7877334.08049  -6119051.20847  20786848.914    20786859.788
       242.000         206.000
  21700150.484     5543762.77749   4316344.35147  21700150.329    21700162.765
       239.000         197.000
  24303252.263    -2845299.75049  -2191393.87045  24303250.460    24303273.681
       210.000         142.000
  24635486.577    10294711.01849   8005385.94445  24635487.327    24635504.905
       207.000         139.000
  20375642.978    -1281366.57849   -986475.55648  20375642.336    20375653.001
       246.000         216.000
  22988586.202    -7602217.08749  -5913365.32346  22988585.823    22988599.566
       227.000         173.000
  24626702.982     9152312.07649   7117417.94645  24626703.798    24626725.718
       214.000         145.000
  21182968.166    -8895013.30949  -6906502.29747  21182966.847    21182979.509
       238.000         200.000
 02  2 13 22 48  0.0000000  0  8G30G24G23G 4G 5G 6G 9G10
  20777965.597    -7924015.82749  -6155426.52847  20777965.554    20777976.449
       242.000         206.000
  21712999.854     5611286.74449   4368960.36047  21712999.703    21713012.147
       239.000         197.000
  24283299.999    -2950146.81749  -2273092.24745  24283298.013    24283320.896
       210.000         143.000
  24653981.489    10391899.96249   8081117.38745  24653982.873    24654002.116
       208.000         139.000
  20379488.413    -1261158.79249   -970729.24948  20379487.774    20379498.369
       246.000         216.000
  22976013.287    -7668288.05449  -5964849.03746  22976012.258    22976027.484
       224.000         173.000
  24643267.508     9239357.66449   7185245.29345  24643269.160    24643289.773
       211.000         144.000
  21172396.397    -8950567.70949  -6949791.34447  21172395.116    21172407.519
       238.000         200.000
 02  2 13 22 48 30.0000000  0  8G30G24G23G 4G 5G 6G 9G10
  20769176.511    -7970202.13549  -6191415.79947  20769176.328    20769187.282
       241.000         206.000
  21725883.628     5678991.13949   4421716.96847  21725883.194    21725895.754
       238.000         197.000
  24263349.282    -3054985.34849  -2354783.99045  24263347.484    24263370.292
       210.000         143.000
  24672467.010    10489041.38949   8156811.79345  24672466.067    24672488.209
       205.000         139.000
  20383437.192    -1240407.70549   -954559.58748  20383436.461    20383447.362
       246.000         216.000
  22963444.419    -7734336.96049  -6016315.54546  22963443.249    22963458.383
       224.000         172.000
  24659816.358     9326321.19849   7253008.72645  24659817.374    24659839.506
       211.000         144.000
  21161923.766    -9005601.17149  -6992674.46147  21161922.436    21161934.921
       238.000         200.000
 02  2 13 22 49  0.0000000  0  8G30G24G23G 4G 5G 6G 9G10
  20760482.194    -8015890.88449  -6227017.36247  20760482.317    20760492.796
       242.000         206.000
  21738801.419     5746874.13649   4474612.73647  21738801.221    21738813.623
       238.000         196.000
  24243400.753    -3159812.65049  -2436467.00045  24243398.215    24243422.098
       208.000         143.000
  24690943.097    10586133.87049   8232468.06345  24690943.715    24690963.781
       204.000         137.000
  20387489.353    -1219113.53949   -937966.75248  20387488.695    20387499.244
       246.000         216.000
  22950879.824    -7800363.46349  -6067764.61246  22950879.157    22950894.312
       223.000         171.000
  24676349.087     9413199.81549   7320705.95545  24676350.538    24676370.741
       211.000         144.000
  21151550.765    -9060111.53549  -7035149.97647  21151549.437    21151561.783
       238.000         200.000
 02  2 13 22 49 30.0000000  0  8G30G24G23G 4G 5G 6G 9G10
  20751882.925    -8061080.09649  -6262229.67047  20751882.651    20751893.482
       242.000         206.000
  21751752.898     5814934.08449   4527646.38947  21751752.795    21751765.175
       238.000         196.000
  24223454.901    -3264625.82249  -2518138.98945  24223452.363    24223475.627
       214.000         143.000
  24709409.586    10683176.27849   8308085.31845  24709410.511    24709429.416
       203.000         139.000
  20391644.805    -1197276.40549   -920950.82348  20391644.238    20391654.902
       246.000         216.000
  22938319.567    -7866366.89249  -6119195.68746  22938318.093    22938332.931
       223.000         170.000
  24692865.178     9499991.00449   7388335.08545  24692865.925    24692889.172
       211.000         144.000
  21141277.711    -9114096.26049  -7077215.90647  21141276.539    21141288.559
       239.000         201.000
 02  2 13 22 50  0.0000000  0  8G30G24G23G 4G 5G 6G 9G10
  20743378.981    -8105768.19949  -6297051.51647  20743379.008    20743389.727
       242.000         206.000
  21764737.526     5883168.33149   4580815.86047  21764737.346    21764749.678
       237.000         196.000
  24203512.219    -3369422.53949  -2599798.15945  24203510.259    24203533.065
       207.000         143.000
  24727866.209    10780166.78049   8383662.13945  24727868.823    24727886.455
       204.000         139.000
  20395903.497    -1174896.92949   -903512.29448  20395902.640    20395913.594
       246.000         216.000
  22925763.758    -7932347.24249  -6170608.78946  22925762.875    22925777.712
       224.000         170.000
  24709364.056     9586692.08749   7455893.99545  24709365.063    24709386.864
       211.000         144.000
  21131105.085    -9167553.56849  -7118870.86747  21131103.951    21131116.079
       239.000         201.000
 02  2 13 22 50 30.0000000  0  8G30G24G23G 4G 5G 6G 9G10
  20734970.850    -8149953.21049  -6331481.33247  20734970.878    20734981.624
       242.000         207.000
  21777754.942     5951574.92249   4634119.63647  21777754.604    21777767.091
       237.000         195.000
  24183573.217    -3474200.03949  -2681442.35945  24183571.692    24183593.345
       210.000         142.000
  24746313.254    10877104.10349   8459197.50345  24746314.093    24746333.824
       208.000         139.000
  20400265.320    -1151975.45849   -885651.42448  20400264.621    20400275.341
       246.000         215.000
  22913212.419    -7998304.09949  -6222003.58046  22913211.284    22913226.108
       223.000         170.000
  24725845.311     9673300.29849   7523380.53345  24725845.763    24725867.979
       209.000         145.000
  21121033.246    -9220481.01349  -7160112.93847  21121031.734    21121044.238
       238.000         201.000
 02  2 13 22 51  0.0000000  0  8G30G24G23G 4G 5G 6G 9G10
  20726658.604    -8193633.99749  -6365518.25247  20726658.383    20726669.327
       242.000         207.000
  21790804.591     6020151.14849   4687555.58647  21790804.180    21790817.297
       237.000         195.000
  24163638.432    -3578956.34849  -2763070.08045  24163636.602    24163658.221
       210.000         142.000
  24764749.870    10973986.14449   8534689.80945  24764750.940    24764769.502
       208.000         138.000
  20404730.088    -1128513.05149   -867369.05148  20404729.370    20404740.165
       246.000         215.000
  22900665.596    -8064237.59249  -6273380.17246  22900665.449    22900679.751
       224.000         172.000
  24742308.327     9759812.46349   7590792.25045  24742308.986    24742330.931
       208.000         145.000
  21111062.515    -9272877.18249  -7200941.04147  21111061.416    21111073.411
       239.000         201.000
 02  2 13 22 51 30.0000000  0  8G30G24G23G 4G 5G 6G 9G10
  20718442.770    -8236808.11449  -6399160.36247  20718442.900    20718453.395
       243.000         207.000
  21803886.135     6088895.20349   4741122.31247  21803885.594    21803898.497
       236.000         195.000
  24143708.295    -3683688.35149  -2844678.85045  24143707.029    24143728.358
       207.000         141.000
  24783175.347    11070812.14349   8610138.48545  24783175.734    24783194.171
       206.000         137.000
  20409297.771    -1104509.66149   -848665.13348  20409297.038    20409307.897
       246.000         215.000
  22888123.475    -8130146.73449  -6324737.78046  22888122.852    22888137.791
       224.000         173.000
  24758752.606     9846226.45249   7658127.42945  24758752.992    24758774.624
       209.000         144.000
  21101193.453    -9324739.26449  -7241352.97047  21101192.279    21101204.445
       239.000         201.000
 02  2 13 22 52  0.0000000  0  8G30G24G23G 4G 5G 6G 9G10
  20710323.911    -8279473.40549  -6432405.98347  20710324.011    20710334.314
       243.000         208.000
  21816999.377     6157805.98349   4794818.95747  21816998.786    21817011.888
       236.000         195.000
  24123783.234    -3788393.02849  -2926266.32545  24123779.945    24123802.820
       207.000         140.000
  24801589.828    11167580.79649   8685542.40645  24801590.306    24801609.432
       206.000         137.000
  20413968.460    -1079965.25149   -829539.64048  20413967.804    20413978.380
       246.000         215.000
  22875586.022    -8196030.94749  -6376075.94946  22875585.382    22875599.677
       225.000         174.000
  24775177.845     9932540.19449   7725384.52045  24775179.100    24775200.691
       208.000         144.000
  21091426.494    -9376064.77449  -7281346.78947  21091425.160    21091437.234
       238.000         201.000
 02  2 13 22 52 30.0000000  0  7G30G24G23G 5G 6G 9G10
  20702302.253    -8321627.48049  -6465253.25447  20702302.134    20702312.810
       243.000         208.000
  21830144.112     6226881.68949   4848644.11047  21830144.026    21830156.536
       237.000         195.000
  24103864.083    -3893067.02449  -3007829.91245  24103861.644    24103882.697
       207.000         141.000
  20418742.152    -1054879.52649   -809992.34748  20418741.489    20418752.199
       246.000         215.000
  22863053.479    -8261889.22749  -6427393.92646  22863052.528    22863068.186
       223.000         175.000
  24791583.724    10018751.75149   7792561.98545  24791584.163    24791607.003
       208.000         144.000
  21081762.002    -9426851.32649  -7320920.64347  21081760.721    21081772.937
       239.000         201.000
 02  2 13 22 53  0.0000000  0  7G30G24G23G 5G 6G 9G10
  20694378.672    -8363265.59149  -6497698.47647  20694378.620    20694389.269
       243.000         208.000
  21843320.416     6296123.27149   4902598.52547  21843320.114    21843332.890
       237.000         194.000
  24083951.783    -3997704.75449  -3089365.24245  24083949.848    24083970.643
       207.000         140.000
  20423619.324    -1029250.07349   -790021.36048  20423618.633    20423629.148
       246.000         215.000
  22850526.538    -8327718.19549  -6478689.05446  22850525.970    22850540.410
       225.000         176.000
  24807970.158    10104861.23549   7859659.91445  24807971.599    24807994.083
       207.000         143.000
  21072201.146    -9477093.61949  -7360070.40347  21072200.009    21072211.944
       239.000         201.000
 02  2 13 22 53 30.0000000  0  7G30G24G23G 5G 6G 9G10
  20686552.726    -8404391.37749  -6529744.48247  20686552.957    20686563.241
       244.000         208.000
  21856526.858     6365523.16549   4956676.29447  21856526.871    21856539.202
       237.000         194.000
  24064045.892    -4102309.06149  -3170874.54445  24064043.210    24064065.372
       207.000         141.000
  20428598.749    -1003082.99949   -769631.45448  20428598.156    20428608.607
       246.000         215.000
  22838004.344    -8393522.79849  -6529965.22046  22838004.089    22838017.718
       226.000         177.000
  24824335.651    10190860.74249   7926672.15945  24824335.860    24824358.268
       205.000         142.000
  21062743.250    -9526795.13849  -7398798.77847  21062742.187    21062754.362
       239.000         201.000
 02  2 13 22 54  0.0000000  0  7G30G24G23G 5G 6G 9G10
  20678824.779    -8445002.17049  -6561389.19547  20678824.428    20678835.025
       243.000         208.000
  21869763.230     6435080.05349   5010876.38847  21869763.038    21869775.390
       237.000         194.000
  24044147.087    -4206876.34849  -3252354.97945  24044144.515    24044166.023
       207.000         141.000
  20433680.601     -976377.85649   -748822.27248  20433679.998    20433690.449
       247.000         215.000
  22825486.972    -8459301.75849  -6581221.41246  22825486.854    22825500.600
       226.000         177.000
  24840679.708    10276748.54649   7993597.32145  24840681.294    24840703.043
       206.000         142.000
  21053388.774    -9575952.92349  -7437103.46247  21053387.703    21053399.640
       239.000         201.000
 02  2 13 22 54 30.0000000  0  7G30G24G23G 5G 6G 9G10
  20671195.129    -8485095.80949  -6592630.93147  20671195.099    20671205.637
       243.000         208.000
  21883029.241     6504792.71249   5065197.86547  21883029.004    21883041.574
       237.000         194.000
  24024255.920    -4311403.25949  -3333803.97145  24024253.825    24024276.509
       208.000         142.000
  20438864.941     -949134.32049   -727593.55748  20438864.489    20438874.684
       247.000         215.000
  22812974.749    -8525053.82349  -6632456.64246  22812974.087    22812987.149
       224.000         176.000
  24857002.394    10362522.88049   8060434.07445  24857002.985    24857024.690
       207.000         142.000
  21044138.342    -9624564.28349  -7474982.35847  21044137.247    21044148.980
       239.000         201.000
 02  2 13 22 55  0.0000000  0  7G30G24G23G 5G 6G 9G10
  20663664.438    -8524670.04849  -6623467.93947  20663664.493    20663674.721
       244.000         209.000
  21896324.572     6574659.41449   5119639.37747  21896324.470    21896337.056
       237.000         194.000
  24004372.991    -4415887.00449  -3415219.31345  24004370.480    24004391.776
       209.000         143.000
  20444151.645     -921352.92849   -705945.73548  20444150.849    20444161.266
       247.000         215.000
  22800467.584    -8590778.22249  -6683670.31046  22800466.955    22800480.582
       224.000         174.000
  24873303.079    10448181.58049   8127180.72745  24873303.930    24873326.248
       206.000         141.000
  21034992.301    -9672626.68449  -7512433.49547  21034991.059    21035002.967
       239.000         201.000
 02  2 13 22 55 30.0000000  0  7G30G24G23G 5G 6G 9G10
  20656232.883    -8563723.16649  -6653898.88247  20656232.908    20656243.114
       244.000         209.000
  21909648.912     6644678.35249   5174199.51247  21909648.356    21909660.915
       237.000         193.000
  23984498.849    -4520324.75549  -3496598.84145  23984496.968    23984516.565
       209.000         144.000
  20449540.547     -893034.15349   -683879.17848  20449539.828    20449550.301
       247.000         215.000
  22787965.871    -8656474.32749  -6734861.92246  22787964.890    22787979.412
       225.000         174.000
  24889581.215    10533722.10049   8193835.28945  24889581.491    24889603.510
       208.000         141.000
  21025951.099    -9720138.02249  -7549455.22947  21025949.798    21025961.785
       239.000         201.000
 02  2 13 22 56  0.0000000  0  7G30G24G23G 5G 6G 9G10
  20648900.733    -8602253.30849  -6683922.30247  20648900.494    20648911.010
       243.000         209.000
  21923001.681     6714847.42649   5228876.64147  21923000.902    21923013.951
       236.000         193.000
  23964633.856    -4624713.65249  -3577940.28245  23964631.611    23964652.955
       207.000         143.000
  20455031.714     -864178.37849   -661394.17548  20455030.977    20455041.355
       248.000         216.000
  22775469.715    -8722141.66149  -6786031.11246  22775469.061    22775483.379
       226.000         176.000
  24905836.375    10619141.99449   8260395.86145  24905836.778    24905859.762
       207.000         142.000
  21017015.196    -9767096.20649  -7586045.93547  21017013.854    21017025.580
       240.000         202.000
 02  2 13 22 56 30.0000000  0  7G30G24G23G 5G 6G 9G10
  20641668.476    -8640258.64449  -6713536.79447  20641668.600    20641678.718
       244.000         208.000
  21936382.768     6785165.33349   5283669.72947  21936382.079    21936395.421
       236.000         192.000
  23944778.761    -4729050.63849  -3659241.29945  23944776.926    23944797.799
       207.000         143.000
  20460624.894     -834786.15149   -638491.16548  20460624.265    20460634.493
       247.000         216.000
  22762979.224    -8787779.58249  -6837177.40346  22762978.448    22762992.565
       226.000         178.000
  24922068.154    10704439.00349   8326860.69645  24922069.430    24922091.815
       208.000         141.000
  21008184.963    -9813499.28449  -7622204.09947  21008184.007    21008195.609
       240.000         202.000
 02  2 13 22 57  0.0000000  0  8G30G24G23G 5G 6G17G 9G10
  20634535.650    -8677742.06049  -6742744.58847  20634535.368    20634545.950
       243.000         209.000
  21949790.756     6855624.91049   5338573.21847  21949789.967    21949802.831
       235.000         192.000
  23924933.083    -4833337.79749  -3740503.47945  23924930.785    23924951.675
       208.000         143.000
  20466319.155     -804862.77649   -615174.26748  20466318.493    20466328.719
       247.000         216.000
  22750493.469    -8853392.04149  -6888303.84746  22750492.542    22750506.779
       226.000         177.000
  24998432.203    -1691724.47149  -1082785.90945  24998430.407    24998454.452
       205.000         140.000
  24938275.208    10789606.24149   8393224.37045  24938276.151    24938299.309
       206.000         140.000
  20999459.878    -9859349.86349  -7657931.73847  20999458.547    20999470.329
       239.000         202.000
 02  2 13 22 57 30.0000000  0  8G30G24G23G 5G 6G17G 9G10
  20627503.639    -8714695.11849  -6771539.12747  20627503.646    20627513.819
       243.000         209.000
  21963226.578     6926231.11349   5393590.96347  21963225.975    21963239.125
       235.000         191.000
  23905098.668    -4937565.60249  -3821719.42245  23905096.276    23905116.747
       207.000         145.000
  20472115.702     -774402.02049   -591438.63548  20472114.980    20472125.422
       248.000         216.000
  22738013.849    -8918971.71249  -6939404.73446  22738012.901    22738026.969
       225.000         176.000
  24982090.507    -1777598.06349  -1149699.89345  24982089.499    24982112.639
       205.000         140.000
  24954458.313    10874647.93549   8459490.23945  24954458.798    24954482.213
       206.000         140.000
  20990841.504    -9904639.28949  -7693222.11847  20990840.384    20990852.146
       239.000         202.000
 02  2 13 22 58  0.0000000  0  8G30G24G23G 5G 6G17G 9G10
  20620572.707    -8751117.13249  -6799919.86347  20620572.715    20620582.916
       243.000         208.000
  21976689.933     6996981.16449   5448720.80247  21976689.624    21976702.323
       235.000         191.000
  23885275.991    -5041732.10349  -3902887.61345  23885273.849    23885294.310
       208.000         146.000
  20478014.180     -743405.40249   -567285.45348  20478013.606    20478023.932
       248.000         216.000
  22725540.526    -8984518.97949  -6990480.38346  22725539.496    22725553.666
       225.000         175.000
  24965776.594    -1863326.97949  -1216501.13845  24965774.524    24965798.703
       206.000         140.000
  24970616.976    10959560.61149   8525655.55845  24970617.341    24970640.834
       207.000         140.000
  20982330.152    -9949366.47649  -7728074.40147  20982329.006    20982340.760
       241.000         203.000
 02  2 13 22 58 30.0000000  0  8G30G24G23G 5G 6G17G 9G10
  20613743.018    -8787007.31249  -6827886.17747  20613742.873    20613753.214
       244.000         208.000
  21990180.147     7067872.00949   5503960.34547  21990179.895    21990192.571
       235.000         190.000
  23865465.268    -5145835.65449  -3984006.75345  23865463.144    23865483.719
       207.000         147.000
  20484014.324     -711874.57849   -542716.00448  20484013.473    20484023.901
       247.000         216.000
  22713073.195    -9050034.36749  -7041531.19246  22713072.657    22713086.351
       225.000         175.000
  24949490.362    -1948911.44749  -1283189.84845  24949489.618    24949511.873
       206.000         140.000
  24986750.552    11044340.87049   8591717.71445  24986750.732    24986774.806
       210.000         142.000
  20973926.023    -9993530.36449  -7762487.74847  20973924.654    20973936.262
       240.000         203.000
 02  2 13 22 59  0.0000000  0  8G30G24G23G 5G 6G17G 9G10
  20607014.820    -8822364.01349  -6855436.80847  20607014.331    20607025.245
       243.000         209.000
  22003696.723     7138902.13849   5559308.41647  22003696.578    22003709.103
       234.000         190.000
  23845667.136    -5249873.44049  -4065074.65445  23845665.719    23845685.498
       211.000         147.000
  20490116.000     -679809.99549   -517730.64448  20490115.238    20490125.908
       248.000         216.000
  22700612.149    -9115517.09449  -7092556.55846  22700612.083    22700625.276
       228.000         176.000
  24933231.596    -2034350.72049  -1349765.42645  24933229.055    24933253.282
       203.000         141.000
  25002858.346    11128986.40149   8657674.87345  25002858.161    25002882.941
       212.000         144.000
  20965629.390   -10037129.19549  -7796460.79347  20965628.018    20965639.826
       240.000         203.000
 02  2 13 22 59 30.0000000  0  8G30G24G23G 5G 6G17G 9G10
  20600388.407    -8857185.67049  -6882570.51447  20600388.618    20600398.347
       244.000         209.000
  22017239.425     7210069.68449   5614763.57647  22017239.073    22017251.857
       235.000         189.000
  23825882.163    -5353842.67049  -4146089.16145  23825880.136    23825900.465
       210.000         148.000
  20496319.146     -647212.61749   -492330.11548  20496318.424    20496328.859
       248.000         216.000
  22688157.525    -9180966.48349  -7143555.93946  22688156.546    22688170.612
       228.000         178.000
  24917000.469    -2119643.96549  -1416227.22745  24916997.901    24917021.685
       203.000         141.000
  25018940.093    11213494.69349   8723525.10345  25018940.318    25018964.284
       208.000         145.000
  20957440.596   -10080160.97049  -7829991.97447  20957439.517    20957451.170
       240.000         203.000
 02  2 13 23  0  0.0000000  0  8G30G24G23G 5G 6G17G 9G10
  20593864.144    -8891471.25049  -6909286.49747  20593864.055    20593874.192
       243.000         209.000
  22030807.981     7281372.03349   5670323.77347  22030807.889    22030820.838
       235.000         189.000
  23806110.555    -5457741.10449  -4227048.50445  23806108.134    23806128.043
       211.000         148.000
  20502623.377     -614083.66549   -466515.37848  20502622.490    20502633.202
       247.000         216.000
  22675709.158    -9246382.67149  -7194529.44546  22675708.803    22675721.722
       227.000         178.000
  24900796.999    -2204790.78549  -1482574.94345  24900795.198    24900818.871
       203.000         140.000
  25034995.043    11297862.54549   8789265.89345  25034994.654    25035018.671
       207.000         144.000
  20949359.958   -10122624.66149  -7863080.49647  20949358.581    20949370.731
       241.000         204.000
 02  2 13 23  0 30.0000000  0  8G30G24G23G 5G 6G17G 9G10
  20587442.040    -8925218.97149  -6935583.36947  20587441.931    20587452.251
       243.000         209.000
  22044401.744     7352807.32449   5725987.55647  22044401.139    22044414.348
       234.000         189.000
  23786352.921    -5561565.90149  -4307950.48245  23786349.983    23786370.605
       210.000         147.000
  20509028.609     -580423.73149   -440286.88648  20509027.945    20509038.490
       247.000         216.000
  22663267.121    -9311765.03549  -7245476.58146  22663266.337    22663280.562
       225.000         178.000
  24884621.937    -2289790.34449  -1548807.93145  24884621.185    24884643.366
       205.000         139.000
  25051022.834    11382087.96349   8854895.68545  25051023.627    25051047.900
       207.000         143.000
  20941387.888   -10164518.12649  -7895724.67647  20941386.710    20941398.297
       240.000         204.000
 02  2 13 23  1  0.0000000  0  7G30G24G23G 5G 6G17G10
  20581123.094    -8958425.29849  -6961458.38547  20581123.115    20581133.241
       244.000         210.000
  22058020.788     7424375.72049   5781755.06247  22058020.470    22058032.934
       234.000         189.000
  23766610.176    -5665312.48549  -4388791.53445  23766607.870    23766628.486
       211.000         148.000
  20515535.227     -546231.65049   -413643.73848  20515534.461    20515544.992
       247.000         215.000
  22650832.039    -9377110.85849  -7296395.25046  22650830.676    22650844.787
       226.000         177.000
  24868475.406    -2374639.92249  -1614924.02845  24868473.674    24868495.517
       203.000         138.000
  20933525.013   -10205837.44849  -7927921.47547  20933523.723    20933535.341
       240.000         204.000
 02  2 13 23  1 30.0000000  0  7G30G24G23G 5G 6G17G10
  20574907.113    -8991090.44349  -6986911.68947  20574907.008    20574917.030
       244.000         209.000
  22071664.546     7496073.78649   5837623.61647  22071663.935    22071677.351
       234.000         189.000
  23746882.515    -5768979.57649  -4469570.62345  23746880.387    23746900.559
       211.000         149.000
  20522142.582     -511509.70449   -386587.70348  20522141.857    20522152.342
       246.000         215.000
  22638403.850    -9442421.06249  -7347286.16846  22638403.409    22638416.600
       228.000         178.000
  24852356.996    -2459340.33049  -1680923.89845  24852355.392    24852377.453
       201.000         139.000
  20925771.379   -10246582.73349  -7959670.97947  20925770.341    20925781.901
       241.000         204.000
 02  2 13 23  2  0.0000000  0  7G30G24G23G 5G 6G17G10
  20568794.219    -9023213.45149  -7011942.55547  20568794.360    20568804.373
       244.000         209.000
  22085332.431     7567899.07549   5893591.29247  22085331.833    22085344.833
       233.000         189.000
  23727170.366    -5872565.29749  -4550286.31445  23727168.493    23727187.833
       209.000         150.000
  20528850.463     -476259.68449   -359120.19148  20528849.863    20528860.278
       246.000         215.000
  22625982.457    -9507695.86949  -7398149.52446  22625982.019    22625995.290
       228.000         178.000
  24836266.954    -2543891.52249  -1746807.52145  24836265.081    24836288.292
       205.000         140.000
  20918127.174   -10286753.27749  -7990972.63747  20918125.993    20918137.247
       241.000         204.000
 02  2 13 23  2 30.0000000  0  7G30G24G23G 5G 6G17G10
  20562784.925    -9054792.90849  -7036549.87847  20562785.020    20562794.985
       245.000         210.000
  22099024.107     7639849.26649   5949656.30447  22099023.864    22099036.712
       234.000         189.000
  23707474.330    -5976066.65349  -4630936.26845  23707472.278    23707492.499
       210.000         149.000
  20535658.686     -440482.22749   -331241.68348  20535657.700    20535668.642
       245.000         215.000
  22613567.830    -9572934.45849  -7448984.63946  22613566.893    22613581.524
       228.000         179.000
  24820205.802    -2628292.67149  -1812574.24845  24820205.259    24820225.382
       206.000         142.000
  20910592.715   -10326347.10349  -8021824.89647  20910591.609    20910602.970
       240.000         204.000
 02  2 13 23  3  0.0000000  0  7G30G24G23G 5G 6G17G10
  20556879.311    -9085827.11749  -7060732.32847  20556879.049    20556889.339
       244.000         210.000
  22112739.353     7711922.95649   6005817.55047  22112739.339    22112751.890
       234.000         189.000
  23687794.862    -6079480.81149  -4711518.26745  23687793.242    23687812.168
       209.000         149.000
  20542567.105     -404178.02349   -302952.72748  20542566.567    20542576.977
       246.000         214.000
  22601160.181    -9638136.04649  -7499790.91846  22601159.203    22601173.001
       227.000         179.000
  24804173.352    -2712542.90149  -1878223.38845  24804171.879    24804194.152
       201.000         141.000
  20903168.304   -10365362.51949  -8052226.44747  20903166.919    20903178.666
       240.000         204.000
 02  2 13 23  3 30.0000000  0  7G30G24G23G 5G 6G17G10
  20551077.679    -9116314.69249  -7084488.83147  20551077.915    20551087.434
       245.000         210.000
  22126477.650     7784118.33549   6062073.62047  22126477.059    22126490.679
       233.000         188.000
  23668132.630    -6182804.94949  -4792030.10745  23668130.994    23668150.995
       210.000         149.000
  20549575.663     -367348.09449   -274254.11148  20549574.965    20549585.317
       246.000         214.000
  22588759.728    -9703300.14949  -7550567.98846  22588759.097    22588773.168
       227.000         180.000
  24788169.479    -2796641.37849  -1943754.26745  24788167.369    24788189.566
       204.000         139.000
  20895854.314   -10403797.51249  -8082175.72847  20895853.332    20895864.632
       241.000         204.000
 02  2 13 23  4  0.0000000  0  7G30G24G23G 5G 6G17G10
  20545380.459    -9146253.70249  -7107817.88047  20545380.329    20545390.518
       245.000         210.000
  22140238.821     7856434.11449   6118423.50347  22140239.001    22140252.385
       234.000         189.000
  23648488.070    -6286035.86649  -4872469.30845  23648486.074    23648504.994
       208.000         149.000
  20556684.149     -329992.69049   -245146.03748  20556683.434    20556694.093
       246.000         214.000
  22576366.735    -9768425.48049  -7601314.84546  22576366.187    22576379.423
       229.000         180.000
  24772194.769    -2880586.95549  -2009165.99245  24772192.088    24772214.613
       197.000         137.000
  20888651.148   -10441650.03149  -8111671.13047  20888650.038    20888661.457
       240.000         204.000
 02  2 13 23  4 30.0000000  0  7G30G24G23G 5G 6G17G10
  20539787.871    -9175642.82449  -7130718.45647  20539787.911    20539797.909
       245.000         210.000
  22154022.630     7928867.90349   6174865.34547  22154022.170    22154035.609
       234.000         189.000
  23628861.783    -6389171.07349  -4952833.92245  23628860.520    23628880.222
       210.000         149.000
  20563892.456     -292113.02549   -215629.44748  20563891.734    20563902.330
       246.000         214.000
  22563981.257    -9833511.54549  -7652031.12246  22563980.741    22563994.212
       229.000         181.000
  24756249.219    -2964379.17449  -2074458.22645  24756248.406    24756269.058
       198.000         137.000
  20881559.002   -10478918.98849  -8140711.80647  20881557.818    20881569.476
       240.000         204.000
 02  2 13 23  5  0.0000000  0  7G30G24G23G 5G 6G17G10
  20534300.057    -9204481.33849  -7153189.97547  20534299.760    20534309.708
       245.000         210.000
  22167828.397     8001417.35949   6231397.31947  22167828.362    22167841.250
       233.000         188.000
  23609254.255    -6492208.37249  -5033122.26545  23609252.355    23609271.220
       212.000         150.000
  20571200.251     -253710.51349   -185705.44548  20571199.475    20571210.143
       246.000         214.000
  22551603.196    -9898558.30749  -7702716.77246  22551602.371    22551615.926
       228.000         180.000
  24740332.979    -3048017.64049  -2139630.66145  24740331.435    24740353.609
       203.000         139.000
  20874578.147   -10515603.15349  -8169296.79647  20874577.151    20874588.793
       241.000         204.000
 02  2 13 23  5 30.0000000  0  7G30G24G23G 5G 6G17G10
  20528917.429    -9232767.09849  -7175230.78347  20528917.226    20528927.062
       245.000         210.000
  22181655.994     8074081.54449   6288018.67946  22181656.349    22181668.508
       232.000         187.000
  23589666.001    -6595144.14949  -5113331.50445  23589664.095    23589683.876
       212.000         149.000
  20578607.411     -214785.58249   -155374.36548  20578606.747    20578617.206
       246.000         214.000
  22539232.803    -9963564.36749  -7753370.71146  22539231.525    22539245.612
       227.000         180.000
  24724446.234    -3131500.99849  -2204682.23845  24724443.994    24724466.993
       204.000         140.000
  20867709.114   -10551699.92149  -8197424.08147  20867707.647    20867719.585
       240.000         204.000
 02  2 13 23  6  0.0000000  0  7G30G24G23G 5G 6G17G10
  20523640.174    -9260499.00549  -7196840.02247  20523639.950    20523650.114
       245.000         210.000
  22195505.088     8146858.66849   6344728.04646  22195505.022    22195518.307
       233.000         187.000
  23570097.443    -6697975.94749  -5193459.72745  23570095.083    23570113.965
       211.000         149.000
  20586113.811     -175339.37549   -124637.09248  20586113.250    20586123.766
       247.000         214.000
  22526870.211   -10028529.25849  -7803992.55846  22526869.073    22526884.020
       228.000         180.000
  24708589.059    -3214828.81749  -2269612.61845  24708587.521    24708610.632
       206.000         141.000
  20860952.039   -10587208.22749  -8225092.82247  20860950.744    20860962.363
       240.000         204.000
 02  2 13 23  6 30.0000000  0  7G30G24G23G 5G 6G17G10
  20518468.575    -9287675.75649  -7218016.66447  20518468.620    20518478.445
       244.000         210.000
  22209375.310     8219746.54849   6401523.71946  22209375.070    22209388.457
       233.000         187.000
  23550549.128    -6800701.14149  -5273504.87845  23550547.265    23550565.563
       213.000         151.000
  20593719.159     -135373.13949    -93494.60248  20593718.565    20593729.059
       246.000         214.000
  22514515.658   -10093452.21149  -7854581.72546  22514515.046    22514529.219
       228.000         181.000
  24692761.669    -3298000.53449  -2334421.36445  24692759.318    24692782.191
       208.000         142.000
  20854307.229   -10622126.93449  -8252302.14047  20854306.174    20854317.569
       242.000         205.000
 02  2 13 23  7  0.0000000  0  7G30G24G23G 5G 6G17G10
  20513402.930    -9314295.62449  -7238759.37247  20513402.817    20513412.735
       244.000         210.000
  22223266.226     8292743.58849   6458404.45646  22223265.863    22223279.243
       231.000         186.000
  23531021.738    -6903316.58149  -5353464.53545  23531020.464    23531038.203
       214.000         153.000
  20601423.390      -94887.30749    -61947.23648  20601422.752    20601433.304
       246.000         214.000
  22502169.319   -10158332.29549  -7905137.48646  22502168.753    22502182.141
       228.000         182.000
  24676964.254    -3381014.91349  -2399107.52045  24676962.714    24676985.615
       210.000         142.000
  20847775.002   -10656453.90049  -8279050.35947  20847773.876    20847785.390
       241.000         205.000
 02  2 13 23  7 30.0000000  0  7G30G24G23G 5G 6G17G10
  20508443.425    -9340357.76649  -7259067.48847  20508443.320    20508453.227
       244.000         210.000
  22237177.536     8365847.87949   6515368.76446  22237177.492    22237190.650
       232.000         185.000
  23511515.686    -7005819.87249  -5433336.82845  23511513.538    23511532.250
       215.000         154.000
  20609226.271      -53883.16649    -29995.98748  20609225.630    20609236.261
       246.000         214.000
  22489831.169   -10223169.13549  -7955659.55446  22489830.105    22489843.397
       227.000         182.000
  24661196.947    -3463871.71849  -2463670.91245  24661195.400    24661217.091
       210.000         143.000
  20841355.547   -10690188.10549  -8305336.68247  20841354.211    20841365.634
       241.000         205.000
 02  2 13 23  8  0.0000000  0  7G30G24G23G 5G 6G17G10
  20503590.279    -9365860.90549  -7278940.02247  20503590.370    20503600.265
       244.000         210.000
  22251109.049     8439057.69649   6572415.29646  22251108.728    22251121.760
       232.000         186.000
  23492031.526    -7108208.28449  -5513119.60345  23492029.936    23492047.728
       215.000         154.000
  20617127.403      -12362.25049      2357.93848  20617126.540    20617137.253
       245.000         213.000
  22477501.297   -10287962.16749  -8006147.48446  22477500.120    22477513.959
       228.000         182.000
  24645459.605    -3546570.43949  -2528111.10945  24645457.615    24645480.280
       210.000         143.000
  20835049.133   -10723328.29149  -8331160.13947  20835047.986    20835059.179
       242.000         205.000
 02  2 13 23  8 30.0000000  0  7G30G24G23G 5G 6G17G10
  20498843.762    -9390803.74849  -7298375.96247  20498843.606    20498853.597
       244.000         209.000
  22265060.275     8512371.35749   6629542.74746  22265059.990    22265073.134
       231.000         185.000
  23472569.774    -7210478.86349  -5592810.59045  23472568.429    23472585.509
       216.000         155.000
  20625126.768       29674.57749     35113.87548  20625126.052    20625136.766
       246.000         213.000
  22465179.885   -10352710.36349  -8056600.48046  22465178.620    22465192.459
       227.000         180.000
  24629752.637    -3629110.09049  -2592427.37545  24629751.218    24629772.242
       209.000         144.000
  20828856.099   -10755872.75649  -8356519.40147  20828854.904    20828866.098
       242.000         206.000
 02  2 13 23  9  0.0000000  0  7G30G24G23G 5G 6G17G10
  20494204.128    -9415184.94249  -7317374.25147  20494204.018    20494214.059
       244.000         209.000
  22279030.808     8585787.08049   6686749.71046  22279030.408    22279044.026
       231.000         185.000
  23453131.010    -7312628.82349  -5672407.60445  23453128.867    23453146.453
       217.000         155.000
  20633224.175       72226.48349     68271.17148  20633223.537    20633234.206
       246.000         214.000
  22452867.227   -10417412.89349  -8107017.88946  22452866.714    22452879.894
       227.000         180.000
  24614076.066    -3711489.90149  -2656619.07545  24614074.561    24614095.921
       210.000         142.000
  20822776.666   -10787820.06849  -8381413.34547  20822775.353    20822786.791
       241.000         206.000
 02  2 13 23  9 30.0000000  0  7G30G24G23G 5G 6G17G10
  20489671.607    -9439002.86549  -7335933.63447  20489671.606    20489681.514
       244.000         209.000
  22293020.500     8659303.58349   6744035.21646  22293020.643    22293033.455
       232.000         184.000
  23433715.739    -7414654.90949  -5751908.09445  23433713.917    23433732.135
       216.000         155.000
  20641419.365      115292.54049    101829.10048  20641418.783    20641429.442
       246.000         214.000
  22440563.499   -10482068.63149  -8157398.83346  22440563.051    22440576.814
       228.000         181.000
  24598430.057    -3793708.94349  -2720685.49145  24598428.123    24598449.897
       208.000         142.000
  20816811.153   -10819168.55349  -8405840.67047  20816809.782    20816821.501
       242.000         206.000
 02  2 13 23 10  0.0000000  0  7G30G24G23G 5G 6G17G10
  20485246.487    -9462256.81449  -7354053.55347  20485246.759    20485256.535
       244.000         210.000
  22307029.087     8732918.53049   6801397.43646  22307029.795    22307042.396
       232.000         185.000
  23414324.422    -7516555.04049  -5831310.46545  23414322.352    23414339.874
       216.000         156.000
  20649712.076      158870.93249    135786.25648  20649711.402    20649722.294
       245.000         213.000
  22428268.823   -10546677.37049  -8207743.16046  22428268.053    22428282.266
       228.000         183.000
  24582814.644    -3875767.05149  -2784626.53345  24582813.402    24582834.082
       209.000         140.000
  20810959.728   -10849917.67349  -8429800.95947  20810958.733    20810969.898
       242.000         207.000
 02  2 13 23 10 30.0000000  0  7G30G24G23G 5G 6G17G10
  20480928.881    -9484945.80149  -7371733.24047  20480928.638    20480939.036
       243.000         209.000
  22321056.022     8806630.23749   6858835.04246  22321055.885    22321069.614
       231.000         184.000
  23394957.535    -7618326.37249  -5910612.47045  23394955.040    23394973.179
       214.000         156.000
  20658102.076      202960.71349    170141.89848  20658101.484    20658112.158
       245.000         213.000
  22415983.159   -10611238.40749  -8258050.32046  22415982.588    22415996.369
       228.000         183.000
  24567230.039    -3957663.58349  -2848441.69145  24567229.381    24567249.289
       209.000         140.000
  20805222.646   -10880066.09749  -8453293.17447  20805221.335    20805232.858
       241.000         206.000
 02  2 13 23 11  0.0000000  0  7G30G24G23G 5G 6G17G10
  20476718.996    -9507068.22649  -7388971.46247  20476719.072    20476728.872
       244.000         209.000
  22335101.045     8880437.39349   6916347.00846  22335100.682    22335114.404
       231.000         184.000
  23375615.740    -7719965.87349  -5989811.73445  23375614.529    23375632.603
       215.000         157.000
  20666589.217      247560.81849    204895.19348  20666588.578    20666599.279
       245.000         213.000
  22403706.742   -10675750.63949  -8308319.44046  22403706.237    22403718.998
       228.000         182.000
  24551676.439    -4039397.67849  -2912130.25345  24551675.579    24551696.559
       211.000         141.000
  20799600.202   -10909611.98449  -8476315.88247  20799598.967    20799610.484
       240.000         206.000
 02  2 13 23 11 30.0000000  0  7G30G24G23G 5G 6G17G10
  20472617.124    -9528623.53349  -7405767.76547  20472617.072    20472627.363
       243.000         210.000
  22349163.920     8954337.66749   6973931.53546  22349164.216    22349177.968
       232.000         184.000
  23356299.609    -7821471.22849  -6068906.49745  23356298.301    23356316.094
       215.000         158.000
  20675173.142      292669.68749    240044.92148  20675172.476    20675183.398
       245.000         213.000
  22391439.630   -10740213.78249  -8358550.31746  22391438.460    22391452.211
       228.000         181.000
  24536153.726    -4120969.26149  -2975692.18345  24536151.456    24536174.029
       206.000         140.000
  20794092.479   -10938554.64149  -8498868.53847  20794091.120    20794102.580
       241.000         206.000
 02  2 13 23 12  0.0000000  0  7G30G24G23G 5G 6G17G10
  20468623.319    -9549610.59049  -7422121.28547  20468623.267    20468633.510
       243.000         210.000
  22363244.273     9028329.48549   7031587.40846  22363244.268    22363257.375
       231.000         184.000
  23337009.552    -7922839.58249  -6147894.50345  23337007.436    23337026.954
       214.000         158.000
  20683853.696      338286.24949    275590.25548  20683853.176    20683864.051
       245.000         213.000
  22379182.124   -10804626.92149  -8408742.24246  22379181.445    22379194.782
       229.000         182.000
  24520661.981    -4202377.43549  -3039126.78045  24520661.479    24520681.713
       206.000         138.000
  20788699.848   -10966892.66949  -8520950.06047  20788698.513    20788710.239
       240.000         206.000
 02  2 13 23 12 30.0000000  0  7G30G24G23G 5G 6G17G10
  20464738.072    -9570027.66549  -7438030.66247  20464738.526    20464748.251
       244.000         210.000
  22377341.670     9102411.34749   7089313.43946  22377341.379    22377354.922
       229.000         183.000
  23317746.145    -8024067.69749  -6226773.24445  23317744.661    23317762.199
       215.000         157.000
  20692630.713      384409.50749    311530.42148  20692629.990    20692641.117
       245.000         213.000
  22366934.465   -10868988.80649  -8458894.23146  22366933.784    22366947.178
       230.000         183.000
  24505201.514    -4283621.18049  -3102433.26245  24505200.163    24505219.190
       207.000         138.000
  20783422.504   -10994624.70549  -8542559.37647  20783421.237    20783432.683
       240.000         205.000
 02  2 13 23 13  0.0000000  0  7G30G24G23G 5G 6G17G10
  20460961.409    -9589874.07549  -7453495.36747  20460961.501    20460971.467
       244.000         210.000
  22391455.689     9176581.52649   7147108.28146  22391455.638    22391469.307
       229.000         183.000
  23298510.019    -8125153.00149  -6305540.69345  23298508.238    23298527.019
       216.000         157.000
  20701503.847      431038.06749    347864.32048  20701503.248    20701514.169
       245.000         213.000
  22354696.674   -10933298.66349  -8509005.68146  22354695.746    22354709.108
       230.000         184.000
  24489772.520    -4364700.04749  -3165611.28145  24489770.235    24489791.980
       208.000         138.000
  20778260.709   -11021749.67749  -8563695.66347  20778259.770    20778270.935
       240.000         205.000
 02  2 13 23 13 30.0000000  0  7G30G24G23G 5G 6G17G10
  20457293.481    -9609148.88349  -7468514.66547  20457293.780    20457303.798
       244.000         210.000
  22405586.285     9250838.17349   7204970.50246  22405586.595    22405600.420
       231.000         183.000
  23279301.613    -8226092.95349  -6384194.87045  23279300.086    23279317.707
       215.000         156.000
  20710472.871      478170.44949    384590.81548  20710472.228    20710483.376
       245.000         213.000
  22342468.780   -10997555.98449  -8559076.17046  22342468.231    22342481.344
       230.000         185.000
  24474374.922    -4445613.61049  -3228660.48045  24474372.804    24474394.351
       206.000         137.000
  20773214.667   -11048266.36649  -8584357.96147  20773213.544    20773225.059
       241.000         205.000
 02  2 13 23 14  0.0000000  0  7G30G24G23G 5G 6G17G10
  20453734.653    -9627850.81649  -7483087.56947  20453734.794    20453744.693
       245.000         211.000
  22419733.274     9325179.82449   7262898.97446  22419733.412    22419746.694
       231.000         183.000
  23260121.447    -8326884.58249  -6462733.47945  23260119.814    23260138.036
       217.000         158.000
  20719537.599      525805.72449    421709.16848  20719536.993    20719548.066
       245.000         213.000
  22330251.097   -11061759.58549  -8609104.80346  22330250.519    22330263.884
       230.000         185.000
  24459008.792    -4526361.17349  -3291580.34445  24459005.743    24459028.300
       206.000         137.000
  20768284.621   -11074173.71649  -8604545.45247  20768283.636    20768294.926
       241.000         206.000
 02  2 13 23 14 30.0000000  0  7G30G24G23G 5G 6G17G10
  20450284.903    -9645979.28149  -7497213.61547  20450284.842    20450294.840
       244.000         210.000
  22433895.962     9399604.71549   7320892.29746  22433895.427    22433909.258
       230.000         182.000
  23240969.894    -8427525.50049  -6541154.66145  23240969.342    23240986.365
       218.000         160.000
  20728697.642      573942.02449    459217.92748  20728697.032    20728707.991
       245.000         213.000
  22318043.670   -11125909.11149  -8659091.32646  22318043.210    22318056.264
       230.000         185.000
  24443674.351    -4606942.41049  -3354370.60845  24443673.067    24443692.398
       205.000         137.000
  20763470.642   -11099471.17649  -8624257.69847  20763469.629    20763480.944
       242.000         206.000
 02  2 13 23 15  0.0000000  0  7G30G24G23G 5G 6G17G10
  20446944.609    -9663532.52949  -7510891.44447  20446944.945    20446954.708
       245.000         211.000
  22448074.131     9474111.66249   7378949.55146  22448073.482    22448087.309
       230.000         182.000
  23221847.616    -8528012.25349  -6619455.71745  23221846.270    23221864.289
       220.000         160.000
  20737952.924      622578.76349    497116.64148  20737952.344    20737963.377
       246.000         213.000
  22305846.947   -11190003.03949  -8709034.52946  22305846.394    22305859.127
       231.000         185.000
  24428371.709    -4687356.03949  -3417030.24545  24428369.292    24428390.447
       206.000         137.000
  20758773.137   -11124156.65249  -8643493.07847  20758772.061    20758783.614
       242.000         207.000
 02  2 13 23 15 30.0000000  0  7G30G24G23G 5G 6G17G10
  20443713.916    -9680510.04549  -7524120.64647  20443713.961    20443723.946
       244.000         211.000
  22462267.665     9548698.80449   7437069.30446  22462268.055    22462281.038
       231.000         182.000
  23202755.237    -8628342.34949  -6697634.71645  23202754.198    23202770.784
       219.000         161.000
  20747303.082      671714.18649    535403.94848  20747302.571    20747313.619
       245.000         213.000
  22293660.871   -11254040.76649  -8758933.92246  22293660.340    22293673.242
       231.000         186.000
  24413101.228    -4767601.86849  -3479559.15245  24413099.933    24413120.105
       207.000         140.000
  20754192.221   -11148229.43949  -8662251.04047  20754191.322    20754202.499
       242.000         207.000
 02  2 13 23 16  0.0000000  0  7G30G24G23G 5G 6G17G10
  20440592.850    -9696911.08549  -7536900.65747  20440592.942    20440602.729
       244.000         210.000
  22476476.186     9623364.34649   7495250.14746  22476475.999    22476489.376
       230.000         183.000
  23183693.162    -8728513.41949  -6775689.77745  23183692.284    23183708.926
       220.000         161.000
  20756747.843      721346.60249    574078.51048  20756747.293    20756758.324
       245.000         213.000
  22281485.623   -11318021.82849  -8808789.17446  22281485.199    22281498.462
       231.000         186.000
  24397862.648    -4847679.59549  -3541957.06445  24397861.212    24397881.022
       207.000         141.000
  20749727.992   -11171688.98249  -8680531.14847  20749726.783    20749738.372
       242.000         207.000
 02  2 13 23 16 30.0000000  0  7G30G24G23G 5G 6G17G10
  20437581.611    -9712735.07149  -7549231.00347  20437581.767    20437591.599
       244.000         210.000
  22490699.157     9698106.27249   7553490.51346  22490699.383    22490712.801
       230.000         182.000
  23164661.831    -8828522.68449  -6853618.75945  23164659.360    23164677.173
       217.000         161.000
  20766286.914      771474.65749    613139.28448  20766286.629    20766297.441
       245.000         213.000
  22269321.360   -11381945.32449  -8858599.56147  22269320.640    22269333.958
       232.000         188.000
  24382656.168    -4927588.64349  -3604223.53045  24382654.180    24382673.586
       207.000         143.000
  20745380.594   -11194534.47649  -8698332.77847  20745379.643    20745390.889
       242.000         208.000
 02  2 13 23 17  0.0000000  0  7G30G24G23G 5G 6G17G10
  20434680.556    -9727980.17849  -7561110.28247  20434680.435    20434690.643
       244.000         210.000
  22504936.487     9772923.71649   7611789.72346  22504936.527    22504950.591
       230.000         182.000
  23145661.860    -8928366.49549  -6931418.82245  23145660.703    23145677.420
       220.000         161.000
  20775920.222      822097.63649    652585.71948  20775919.860    20775930.622
       246.000         213.000
  22257168.339   -11445809.61149  -8908363.81647  22257167.803    22257180.868
       231.000         188.000
  24367481.981    -5007327.64749  -3666357.48145  24367480.934    24367501.025
       210.000         146.000
  20741150.361   -11216764.28349  -8715654.65047  20741149.271    20741160.530
       241.000         208.000
 02  2 13 23 17 30.0000000  0  7G30G24G23G 5G 6G17G10
  20431889.634    -9742646.11549  -7572538.26247  20431889.517    20431899.751
       243.000         210.000
  22519187.984     9847814.91049   7670146.40446  22519188.210    22519201.437
       231.000         182.000
  23126693.789    -9028042.80149  -7009088.36845  23126692.204    23126709.532
       217.000         162.000
  20785647.250      873213.32849    692416.08848  20785646.806    20785657.695
       244.000         213.000
  22245026.574   -11509614.43749  -8958081.74047  22245025.669    22245038.755
       230.000         188.000
  24352340.254    -5086896.85249  -3728359.12445  24352339.106    24352359.121
       212.000         149.000
  20737037.314   -11238378.15649  -8732496.57347  20737036.418    20737047.675
       241.000         208.000
 02  2 13 23 18  0.0000000  0  7G30G24G23G 5G 6G17G10
  20429209.141    -9756732.20249  -7583514.40547  20429209.313    20429219.064
       244.000         210.000
  22533453.156     9922777.91549   7728559.04346  22533453.325    22533466.849
       231.000         183.000
  23107758.106    -9127548.85549  -7086625.22946  23107756.953    23107773.683
       217.000         163.000
  20795467.775      924820.53449    732629.44847  20795467.318    20795478.337
       245.000         212.000
  22232896.241   -11573358.78249  -9007752.52747  22232895.497    22232908.507
       231.000         188.000
  24337231.010    -5166295.64449  -3790227.98545  24337229.776    24337249.618
       213.000         150.000
  20733041.667   -11259375.02349  -8748857.72147  20733040.635    20733051.995
       241.000         207.000
 02  2 13 23 18 30.0000000  0  7G30G24G23G 5G 6G17G10
  20426639.091    -9770237.63649  -7594038.09147  20426638.982    20426649.264
       243.000         210.000
  22547731.617     9997811.23149   7787026.45446  22547730.941    22547745.380
       230.000         182.000
  23088855.325    -9226881.94049  -7164027.30146  23088853.659    23088870.332
       218.000         163.000
  20805381.534      976917.45749    773224.40647  20805381.094    20805392.169
       245.000         212.000
  22220777.608   -11637041.80149  -9057375.53647  22220776.297    22220790.250
       232.000         188.000
  24322154.250    -5245523.47749  -3851963.62145  24322152.344    24322172.791
       215.000         152.000
  20729163.647   -11279753.86949  -8764737.29047  20729162.639    20729173.894
       241.000         207.000
 02  2 13 23 19  0.0000000  0  7G30G24G23G 5G 6G17G10
  20424179.682    -9783161.43749  -7604108.56447  20424179.934    20424190.015
       244.000         210.000
  22562023.097    10072913.46149   7845547.57046  22562022.767    22562036.986
       230.000         182.000
  23069986.066    -9326039.08849  -7241292.28645  23069984.962    23070001.488
       217.000         162.000
  20815388.204     1029502.73749    814199.90347  20815387.687    20815398.720
       245.000         212.000
  22208670.849   -11700662.43549  -9106949.92647  22208670.617    22208683.473
       231.000         188.000
  24307110.043    -5324579.86649  -3913565.66745  24307108.969    24307128.585
       215.000         153.000
  20725403.390   -11299513.88249  -8780134.65447  20725402.432    20725413.695
       241.000         207.000
 02  2 13 23 19 30.0000000  0  7G30G24G23G 5G 6G17G10
  20421831.244    -9795502.52949  -7613724.96847  20421831.420    20421841.545
       244.000         210.000
  22576327.429    10148083.16849   7904121.26546  22576328.173    22576340.941
       230.000         182.000
  23051150.941    -9425017.39049  -7318417.88746  23051149.331    23051165.596
       218.000         163.000
  20825487.584     1082575.18849    855555.01447  20825487.065    20825498.142
       244.000         211.000
  22196576.283   -11764219.58749  -9156474.85947  22196575.970    22196588.871
       233.000         190.000
  24292098.653    -5403463.92949  -3975033.43145  24292097.221    24292116.666
       214.000         153.000
  20721761.064   -11318654.05249  -8795049.02647  20721760.194    20721771.152
       240.000         207.000
 02  2 13 23 20  0.0000000  0  7G30G24G23G 5G 6G17G10
  20419593.600    -9807261.28049  -7622887.59947  20419593.619    20419603.744
       244.000         210.000
  22590644.247    10223317.77449   7962745.54146  22590643.893    22590657.958
       230.000         181.000
  23032350.304    -9523814.84549  -7395402.56846  23032348.717    23032365.957
       218.000         164.000
  20835679.182     1136132.29549    897287.77547  20835678.630    20835689.876
       243.000         211.000
  22184493.860   -11827713.01949  -9205950.12947  22184493.135    22184506.248
       232.000         190.000
  24277119.975    -5482176.03849  -4036367.18745  24277118.930    24277138.305
       213.000         154.000
  20718236.680   -11337174.55949  -8809480.53947  20718235.654    20718247.044
       241.000         207.000
 02  2 13 23 20 30.0000000  0  7G30G24G23G 5G 6G17G10
  20417467.056    -9818436.10349  -7631595.22547  20417467.341    20417477.350
       244.000         211.000
  22604973.171    10298616.62049   8021419.87046  22604972.323    22604987.117
       229.000         181.000
  23013584.516    -9622428.17749  -7472243.78646  23013583.478    23013599.805
       219.000         164.000
  20845962.805     1190173.23049    939397.54047  20845962.291    20845973.419
       244.000         210.000
  22172423.740   -11891141.35649  -9255374.68047  22172423.161    22172436.220
       231.000         189.000
  24262174.191    -5560715.05149  -4097566.06745  24262172.148    24262192.853
       212.000         153.000
  20714830.495   -11355073.95549  -8823428.07647  20714829.562    20714840.705
       242.000         207.000
 02  2 13 23 21  0.0000000  0  7G30G24G23G 5G 6G17G10
  20415451.814    -9829026.25549  -7639847.25647  20415452.077    20415462.088
       244.000         211.000
  22619313.984    10373978.19749   8080143.06846  22619313.495    22619328.302
       229.000         180.000
  22994854.412    -9720854.47349  -7548939.25646  22994853.074    22994869.766
       218.000         165.000
  20856338.328     1244696.74049    981883.34547  20856337.568    20856348.931
       243.000         210.000
  22160366.256   -11954503.47249  -9304747.63947  22160365.538    22160378.617
       231.000         189.000
  24247261.430    -5639080.25749  -4158629.53245  24247260.171    24247280.303
       211.000         153.000
  20711542.737   -11372351.16049  -8836890.78847  20711541.918    20711552.836
       241.000         207.000
 02  2 13 23 21 30.0000000  0  7G30G24G23G 5G 6G17G10
  20413548.029    -9839030.66149  -7647642.86947  20413548.125    20413558.048
       244.000         211.000
  22633666.610    10449401.45149   8138914.33146  22633667.288    22633679.614
       230.000         180.000
  22976160.469    -9819090.69449  -7625486.62746  22976158.616    22976175.437
       219.000         164.000
  20866805.356     1299701.47549   1024744.12247  20866804.612    20866816.068
       243.000         210.000
  22148321.546   -12017797.97749  -9354067.90947  22148320.926    22148333.801
       231.000         189.000
  24232381.987    -5717271.00249  -4219557.06445  24232381.232    24232399.879
       212.000         152.000
  20708373.463   -11389005.47149  -8849868.13347  20708372.542    20708383.686
       241.000         207.000
 02  2 13 23 22  0.0000000  0  7G30G24G23G 5G 6G17G10
  20411755.610    -9848449.78649  -7654982.41447  20411755.845    20411765.811
       245.000         211.000
  22648030.594    10524883.72949   8197731.58646  22648030.615    22648044.231
       230.000         181.000
  22957502.906    -9917135.28349  -7701884.66146  22957501.452    22957517.943
       220.000         165.000
  20877363.428     1355184.77949   1067977.81547  20877362.882    20877374.392
       243.000         209.000
  22136289.742   -12081025.01149  -9403335.60847  22136289.086    22136302.250
       232.000         189.000
  24217535.662    -5795287.80749  -4280349.05845  24217534.580    24217553.815
       211.000         151.000
  20705322.682   -11405037.19049  -8862360.34047  20705321.734    20705333.275
       242.000         208.000
 02  2 13 23 22 30.0000000  0  7G30G24G23G 5G 6G17G10
  20410074.831    -9857282.37749  -7661864.91947  20410074.969    20410085.038
       244.000         211.000
  22662405.597    10600424.11949   8256594.13546  22662405.783    22662419.209
       229.000         180.000
  22938882.589   -10014984.58349  -7778130.53246  22938880.354    22938897.807
       219.000         166.000
  20888012.475     1411145.56949   1111583.57547  20888011.930    20888023.430
       243.000         210.000
  22124271.089   -12144182.79349  -9452549.34647  22124270.077    22124283.705
       231.000         189.000
  24202722.632    -5873129.38749  -4341004.51745  24202721.714    24202741.231
       209.000         150.000
  20702390.672   -11420445.01749  -8874366.40347  20702389.734    20702401.060
       242.000         208.000
 02  2 13 23 23  0.0000000  0  7G30G24G23G 5G 6G17G10
  20408505.650    -9865527.99249  -7668290.04547  20408505.825    20408515.940
       245.000         211.000
  22676791.269    10676021.18649   8315500.84046  22676791.564    22676804.236
       229.000         179.000
  22920299.892   -10112636.02649  -7854222.22246  22920298.677    22920314.095
       219.000         166.000
  20898752.065     1467582.16549   1155560.09047  20898751.575    20898762.824
       243.000         210.000
  22112265.699   -12207270.37249  -9501708.37547  22112264.738    22112278.352
       231.000         189.000
  24187942.907    -5950795.50049  -4401523.26645  24187941.826    24187961.781
       209.000         150.000
  20699577.458   -11435228.41749  -8885885.89547  20699576.601    20699587.651
       241.000         208.000
 02  2 13 23 23 30.0000000  0  7G30G24G23G 5G 6G17G10
  20407048.433    -9873185.88349  -7674257.20347  20407048.804    20407058.497
       245.000         212.000
  22691187.480    10751673.38049   8374450.50846  22691187.568    22691201.209
       229.000         178.000
  22901755.356   -10210086.82849  -7930157.59446  22901753.666    22901768.943
       218.000         166.000
  20909581.945     1524493.16249   1199906.26647  20909581.668    20909592.716
       243.000         210.000
  22100273.914   -12270286.76749  -9550811.93447  22100273.009    22100286.440
       230.000         189.000
  24173196.846    -6028285.65849  -4461904.90745  24173195.335    24173214.874
       209.000         150.000
  20696883.152   -11449386.88149  -8896918.43247  20696882.307    20696893.381
       242.000         208.000
 02  2 13 23 24  0.0000000  0  7G30G24G23G 5G 6G17G10
  20405703.109    -9880255.75749  -7679766.16447  20405703.336    20405712.997
       245.000         212.000
  22705593.976    10827379.29149   8433442.02946  22705593.705    22705606.740
       229.000         178.000
  22883249.306   -10307334.56549  -8005934.70946  22883247.747    22883264.325
       220.000         167.000
  20920501.683     1581876.41649   1244620.43847  20920501.278    20920512.445
       244.000         210.000
  22088295.825   -12333231.24149  -9599859.46347  22088295.431    22088308.582
       233.000         189.000
  24158484.371    -6105599.60949  -4522149.25945  24158483.620    24158502.676
       209.000         149.000
  20694307.901   -11462920.06449  -8907463.74047  20694306.879    20694318.152
       242.000         209.000
 02  2 13 23 24 30.0000000  0  7G30G24G23G 5G 6G17G10
  20404469.665    -9886737.19849  -7684816.61447  20404469.959    20404479.901
       245.000         212.000
  22720010.346    10903137.43249   8492474.23746  22720011.174    22720024.128
       229.000         178.000
  22864782.619   -10404376.42249  -8081551.41546  22864781.341    22864797.242
       220.000         168.000
  20931510.943     1639730.24749   1289701.29447  20931510.317    20931521.673
       244.000         210.000
  22076331.751   -12396102.73149  -9648850.12247  22076331.434    22076344.582
       232.000         190.000
  24143805.469    -6182736.83049  -4582255.89445  24143804.582    24143823.573
       210.000         149.000
  20691851.669   -11475827.34849  -8917521.32747  20691850.680    20691861.989
       242.000         209.000
 02  2 13 23 25  0.0000000  0  7G30G24G23G 5G 6G17G10
  20403348.281    -9892630.09649  -7689408.45347  20403348.526    20403358.426
       245.000         212.000
  22734436.352    10978945.76049   8551545.57046  22734436.347    22734449.769
       228.000         178.000
  22846355.595   -10501210.03449  -8157005.85646  22846354.298    22846369.886
       221.000         168.000
  20942609.374     1698052.65349   1335147.27647  20942609.023    20942620.038
       244.000         210.000
  22064381.655   -12458900.54449  -9697783.36447  22064381.077    22064394.414
       232.000         191.000
  24129160.213    -6259697.33149  -4642224.84045  24129159.930    24129178.755
       211.000         149.000
  20689514.609   -11488108.59449  -8927091.09647  20689513.828    20689525.034
       242.000         209.000
 02  2 13 23 25 30.0000000  0  7G30G24G23G 5G 6G17G10
  20402339.042    -9897933.68149  -7693541.08947  20402339.125    20402348.921
       244.000         212.000
  22748871.535    11054802.92549   8610654.94846  22748870.964    22748884.787
       226.000         177.000
  22827968.678   -10597832.62849  -8232295.86846  22827967.517    22827982.503
       220.000         169.000
  20953796.673     1756842.00149   1380957.10247  20953795.989    20953807.490
       243.000         210.000
  22052445.795   -12521623.60649  -9746658.36147  22052445.290    22052457.989
       233.000         191.000
  24114548.741    -6336480.59349  -4702055.66445  24114547.176    24114567.027
       212.000         152.000
  20687296.787   -11499763.25049  -8936172.61847  20687295.873    20687306.875
       242.000         209.000
 02  2 13 23 26  0.0000000  0  7G30G24G23G 5G 6G17G10
  20401442.201    -9902646.52549  -7697213.41747  20401442.415    20401452.304
       245.000         211.000
  22763315.787    11130708.35949   8669801.94246  22763315.894    22763329.351
       227.000         176.000
  22809622.694   -10694240.37949  -8307418.47846  22809621.628    22809637.369
       222.000         169.000
  20965072.653     1816097.67249   1427130.28947  20965072.173    20965083.533
       244.000         210.000
  22040524.591   -12584269.73449  -9795473.41647  22040524.343    22040536.829
       234.000         192.000
  24099971.242    -6413085.03649  -4761747.16645  24099969.618    24099989.894
       212.000         152.000
  20685198.435   -11510789.87449  -8944764.75847  20685197.416    20685208.690
       241.000         208.000
 02  2 13 23 26 30.0000000  0  7G30G24G23G 5G 6G17G10
  20400657.629    -9906769.40649  -7700426.02947  20400657.828    20400667.825
       245.000         212.000
  22777768.838    11206659.82349   8728984.80546  22777768.439    22777783.158
       226.000         175.000
  22791317.824   -10790431.82249  -8382372.55546  22791316.480    22791331.546
       222.000         170.000
  20976436.833     1875816.59949   1473664.46347  20976436.225    20976447.788
       243.000         210.000
  22028618.075   -12646839.06049  -9844228.62947  22028617.755    22028630.507
       234.000         192.000
  24085427.519    -6489511.51249  -4821299.98545  24085425.817    24085445.943
       212.000         153.000
  20683219.488   -11521189.20149  -8952868.09247  20683218.666    20683229.724
       241.000         208.000
 02  2 13 23 27  0.0000000  0  7G30G24G23G 5G 6G17G10
  20399985.553    -9910301.13649  -7703178.00747  20399985.814    20399995.529
       244.000         211.000
  22792230.497    11282656.24749   8788202.70346  22792230.637    22792243.997
       226.000         175.000
  22773054.837   -10886403.22249  -8457155.16546  22773053.543    22773069.306
       223.000         170.000
  20987889.010     1935997.94849   1520558.96047  20987888.477    20987899.855
       243.000         210.000
  22016726.482   -12709329.69349  -9892922.52147  22016725.828    22016738.504
       234.000         192.000
  24070917.851    -6565758.66949  -4880713.07545  24070916.671    24070935.835
       212.000         154.000
  20681360.114   -11530960.24549  -8960481.85847  20681358.963    20681370.323
       241.000         208.000
 02  2 13 23 27 30.0000000  0  7G30G24G23G 5G 6G17G10
  20399425.903    -9913241.94749  -7705469.53047  20399426.191    20399436.011
       244.000         211.000
  22806700.546    11358696.22249   8847454.53346  22806699.910    22806714.538
       226.000         175.000
  22754834.126   -10982152.60249  -8531764.79246  22754833.027    22754848.826
       222.000         170.000
  20999428.737     1996639.20849   1567811.83447  20999428.298    20999439.740
       244.000         210.000
  22004849.897   -12771741.18349  -9941554.73847  22004849.490    22004862.109
       234.000         192.000
  24056442.426    -6641826.73649  -4939986.62245  24056441.132    24056459.828
       214.000         154.000
  20679620.225   -11540103.06649  -8967606.10047  20679619.238    20679630.519
       241.000         208.000
 02  2 13 23 28  0.0000000  0  7G30G24G23G 5G 6G17G10
  20398978.727    -9915591.99449  -7707300.71247  20398978.871    20398988.832
       245.000         212.000
  22821178.411    11434777.59949   8906738.63146  22821178.357    22821192.921
       226.000         175.000
  22736656.061   -11077677.82149  -8606199.76146  22736654.811    22736670.920
       223.000         171.000
  21011055.480     2057737.95849   1615421.19247  21011055.089    21011066.467
       244.000         210.000
  21992988.510   -12834072.98049  -9990124.85447  21992988.501    21993000.222
       236.000         193.000
  24042000.990    -6717716.02049  -4999120.84745  24041999.350    24042018.982
       213.000         155.000
  20677999.853   -11548617.94949  -8974241.03947  20677999.069    20678010.408
       241.000         208.000
 02  2 13 23 28 30.0000000  0  7G30G24G23G 5G 6G17G10
  20398644.209    -9917349.81949  -7708670.42947  20398644.302    20398654.270
       244.000         212.000
  22835664.082    11510900.09049   8966054.76446  22835664.029    22835678.728
       226.000         175.000
  22718521.348   -11172975.06349  -8680457.09046  22718519.886    22718535.220
       222.000         171.000
  21022769.179     2119293.58849   1663386.55547  21022768.730    21022780.188
       243.000         209.000
  21981142.836   -12896322.79849 -10038631.10647  21981142.202    21981154.201
       235.000         193.000
  24027593.729    -6793424.91549  -5058114.51545  24027593.183    24027611.255
       213.000         155.000
  20676499.208   -11556503.54449  -8980385.62747  20676498.218    20676509.537
       241.000         208.000
 02  2 13 23 29  0.0000000  0  7G30G24G23G 5G 6G17G10
  20398422.329    -9918515.51449  -7709578.74947  20398422.336    20398432.118
       245.000         211.000
  22850157.295    11587061.70349   9025401.37746  22850157.375    22850171.279
       227.000         175.000
  22700430.498   -11268042.14349  -8754535.08746  22700429.180    22700443.724
       223.000         172.000
  21034569.352     2181303.89649   1711706.21247  21034568.891    21034580.254
       243.000         209.000
  21969312.614   -12958490.11449 -10087073.06447  21969312.062    21969323.744
       233.000         192.000
  24013220.838    -6868953.64749  -5116967.79545  24013219.484    24013238.043
       213.000         155.000
  20675118.333   -11563759.90449  -8986039.90347  20675117.524    20675128.398
       241.000         208.000
 02  2 13 23 29 30.0000000  0  7G30G24G23G 5G 6G17G10
  20398313.189    -9919089.13749  -7710025.71047  20398313.481    20398323.232
       244.000         212.000
  22864657.745    11663261.09149   9084777.42746  22864657.977    22864671.560
       226.000         175.000
  22682383.915   -11362876.50249  -8828431.73846  22682382.693    22682398.244
       223.000         172.000
  21046455.743     2243766.97649   1760378.68047  21046455.242    21046466.669
       243.000         208.000
  21957498.329   -13020573.71049 -10135449.78447  21957497.541    21957509.627
       233.000         191.000
  23998882.467    -6944301.86249  -5175680.44445  23998881.190    23998899.424
       213.000         156.000
  20673857.244   -11570386.94449  -8991203.80047  20673856.567    20673867.567
       241.000         208.000
 02  2 13 23 30  0.0000000  0  7G30G24G23G 5G 6G17G10
  20398316.764    -9919070.24949  -7710010.97447  20398316.899    20398326.860
       244.000         212.000
  22879164.961    11739497.15549   9144182.06346  22879164.454    22879179.073
       227.000         175.000
  22664382.242   -11457475.28549  -8902144.85546  22664381.745    22664396.066
       225.000         173.000
  21058427.898     2306680.97749   1809402.51547  21058427.604    21058438.844
       243.000         208.000
  21945700.199   -13082572.34249 -10183760.29847  21945699.748    21945711.703
       234.000         192.000
  23984578.369    -7019468.95349  -5234251.94845  23984576.263    23984594.764
       212.000         156.000
  20672715.923   -11576384.58049  -8995877.25247  20672714.957    20672726.149
       241.000         208.000
 02  2 13 23 30 30.0000000  0  7G30G24G23G 5G 6G17G10
  20398433.149    -9918458.45249  -7709534.23547  20398433.338    20398443.379
       245.000         212.000
  22893679.026    11815768.46049   9203614.16046  22893678.576    22893692.917
       226.000         175.000
  22646425.805   -11551835.75549  -8975672.26546  22646425.046    22646439.089
       224.000         173.000
  21070485.578     2370044.06949   1858776.29047  21070485.197    21070496.695
       243.000         208.000
  21933918.526   -13144484.90749 -10232003.74647  21933917.575    21933930.302
       233.000         193.000
  23970308.845    -7094454.63949  -5292682.07445  23970307.881    23970326.217
       213.000         156.000
  20671694.453   -11581752.46249  -9000059.99247  20671693.804    20671704.728
       241.000         208.000
 02  2 13 23 31  0.0000000  0  7G30G24G23G 5G 6G17G10
  20398662.402    -9917253.83449  -7708595.54947  20398662.560    20398672.612
       245.000         212.000
  22908199.420    11892073.56349   9263072.58046  22908199.024    22908213.680
       226.000         175.000
  22628515.221   -11645955.50149  -9049012.10246  22628514.695    22628529.499
       226.000         175.000
  21082628.300     2433854.11249   1908498.33647  21082627.960    21082639.281
       242.000         208.000
  21922153.290   -13206310.50349 -10280179.41847  21922152.370    21922165.113
       232.000         192.000
  23956073.989    -7169258.72649  -5350970.73045  23956073.555    23956090.524
       213.000         156.000
  20670792.816   -11586490.63949  -9003752.04747  20670791.998    20670802.949
       242.000         209.000
 02  2 13 23 31 30.0000000  0  7G30G24G23G 5G 6G17G10
  20399004.544    -9915455.73149  -7707194.41247  20399004.683    20399014.652
       245.000         212.000
  22922726.199    11968411.65949   9322556.71346  22922726.876    22922740.247
       226.000         175.000
  22610651.047   -11739831.29749  -9122161.85446  22610650.332    22610665.067
       227.000         176.000
  21094855.693     2498109.44449   1958567.36247  21094855.296    21094866.704
       242.000         207.000
  21910404.857   -13268047.76349 -10328286.26047  21910403.983    21910416.508
       233.000         191.000
  23941873.688    -7243880.59849  -5409117.39745  23941871.937    23941889.872
       212.000         154.000
  20670011.072   -11590598.58449  -9006953.01547  20670010.290    20670021.139
       242.000         209.000
 02  2 13 23 32  0.0000000  0  7G30G24G23G 5G 6G17G10
  20399459.556    -9913064.51849  -7705331.11247  20399459.828    20399469.716
       245.000         212.000
  22937258.722    12044780.60649   9382064.87446  22937258.776    22937272.876
       226.000         175.000
  22592833.791   -11833460.95849  -9195119.83146  22592832.677    22592846.946
       225.000         177.000
  21107167.449     2562807.85949   2008981.65147  21107166.932    21107178.623
       242.000         207.000
  21898673.532   -13329695.78349 -10376323.57847  21898673.314    21898684.976
       235.000         192.000
  23927707.980    -7318320.16549  -5467121.99745  23927707.493    23927724.594
       214.000         154.000
  20669349.254   -11594076.50949  -9009663.06347  20669348.438    20669359.268
       243.000         209.000
 02  2 13 23 32 30.0000000  0  7G30G24G23G 5G 6G17G10
  20400027.491    -9910080.19549  -7703005.65047  20400027.695    20400037.575
       245.000         212.000
  22951797.008    12121179.13549   9441596.09346  22951797.002    22951810.983
       227.000         174.000
  22575063.799   -11926841.79449  -9267883.90446  22575062.330    22575077.548
       226.000         177.000
  21119563.110     2627947.34749   2059739.62847  21119562.451    21119574.040
       241.000         206.000
  21886959.458   -13391253.34049 -10424290.40347  21886959.163    21886971.288
       234.000         193.000
  23913577.329    -7392577.14649  -5524984.34645  23913576.655    23913594.540
       217.000         156.000
  20668807.267   -11596924.67849  -9011882.39247  20668806.353    20668817.670
       242.000         209.000
 02  2 13 23 33  0.0000000  0  7G30G24G23G 5G 6G17G10
  20400708.237    -9906502.78049  -7700218.03547  20400708.523    20400718.213
       245.000         212.000
  22966340.496    12197605.92349   9501149.31846  22966340.084    22966354.073
       225.000         174.000
  22557341.658   -12019971.35149  -9340452.18546  22557340.788    22557354.977
       226.000         178.000
  21132042.213     2693525.66849   2110839.55047  21132041.702    21132053.459
       241.000         206.000
  21875262.667   -13452719.63149 -10472186.10047  21875261.651    21875274.503
       233.000         193.000
  23899481.410    -7466651.50849  -5582704.39845  23899479.545    23899497.552
       216.000         156.000
  20668385.103   -11599143.02049  -9013610.94047  20668384.185    20668395.166
       242.000         209.000
 02  2 13 23 33 30.0000000  0  7G30G24G23G 5G 6G17G10
  20401502.067    -9902331.24249  -7696967.47347  20401502.374    20401512.154
       245.000         212.000
  22980889.304    12274060.62049   9560724.29746  22980888.802    22980903.512
       225.000         173.000
  22539667.935   -12112846.12449  -9412821.92746  22539666.584    22539681.784
       227.000         177.000
  21144604.756     2759541.87449   2162280.68047  21144604.175    21144616.004
       241.000         206.000
  21863583.646   -13514092.60349 -10520009.08247  21863583.626    21863595.710
       236.000         194.000
  23885420.233    -7540542.02349  -5640281.19845  23885419.188    23885436.382
       215.000         156.000
  20668083.004   -11600730.62749  -9014848.02047  20668082.085    20668093.014
       243.000         209.000
 02  2 13 23 34  0.0000000  0  7G30G24G23G 5G 6G17G10
  20402408.749    -9897566.47549  -7693254.66047  20402408.916    20402418.780
       245.000         212.000
  22995443.037    12350541.18549   9620319.42146  22995443.666    22995458.144
       225.000         172.000
  22522043.119   -12205464.27449  -9484991.70246  22522042.384    22522056.872
       224.000         178.000
  21157250.070     2825993.18749   2214060.85847  21157249.901    21157261.333
       242.000         206.000
  21851922.679   -13575371.81149 -10567759.01247  21851922.809    21851934.309
       237.000         194.000
  23871394.100    -7614249.04849  -5697715.01645  23871393.278    23871410.521
       216.000         156.000
  20667900.676   -11601688.46349  -9015594.35947  20667899.571    20667910.788
       242.000         209.000
 02  2 13 23 34 30.0000000  0  7G30G24G23G 5G 6G17G10
  20403428.342    -9892208.40949  -7689079.53847  20403428.600    20403438.335
       245.000         212.000
  23010001.598    12427046.07749   9679933.50246  23010001.527    23010016.566
       225.000         172.000
  22504467.642   -12297823.30249  -9556959.56446  22504467.022    22504481.441
       226.000         178.000
  21169977.780     2892877.31149   2266178.29647  21169977.470    21169988.698
       242.000         206.000
  21840279.780   -13636555.96549 -10615434.88847  21840279.589    21840291.032
       236.000         194.000
  23857402.861    -7687772.46949  -5755005.76145  23857401.575    23857420.285
       214.000         155.000
  20667838.192   -11602016.52849  -9015849.97347  20667837.514    20667848.520
       242.000         209.000
 02  2 13 23 35  0.0000000  0  7G30G24G23G 5G 6G17G10
  20404560.819    -9886257.19249  -7684442.21747  20404560.886    20404570.927
       245.000         212.000
  23024564.570    12503574.09349   9739565.60746  23024564.426    23024579.485
       225.000         172.000
  22486941.991   -12389920.55049  -9628723.43846  22486940.825    22486955.210
       227.000         178.000
  21182787.479     2960192.29049   2318631.46447  21182787.092    21182798.632
       242.000         206.000
  21828655.122   -13697643.92349 -10663035.78647  21828654.507    21828666.953
       236.000         195.000
  23843446.488    -7761112.11049  -5812153.28645  23843445.636    23843463.667
       214.000         154.000
  20667895.546   -11601715.16549  -9015615.11947  20667894.564    20667905.674
       241.000         209.000
 02  2 13 23 35 30.0000000  0  7G30G24G23G 5G 6G17G10
  20405806.129    -9879712.81049  -7679342.69847  20405806.254    20405816.305
       245.000         212.000
  23039131.699    12580123.88249   9799214.68146  23039132.181    23039145.807
       225.000         171.000
  22469466.722   -12481753.39749  -9700281.28946  22469465.743    22469480.422
       225.000         177.000
  21195678.795     3027936.29849   2371418.93447  21195678.347    21195689.852
       242.000         206.000
  21817049.015   -13758634.51949 -10710560.81747  21817048.761    21817061.012
       237.000         196.000
  23829525.267    -7834267.55749  -5869157.30345  23829524.533    23829542.086
       214.000         155.000
  20668072.671   -11600784.27849  -9014889.72747  20668071.532    20668082.814
       241.000         209.000
 02  2 13 23 36  0.0000000  0  7G30G24G23G 5G 6G17G10
  20407164.428    -9872574.93449  -7673780.71147  20407164.554    20407174.407
       245.000         212.000
  23053702.776    12656694.74449   9858880.17546  23053702.934    23053716.256
       224.000         170.000
  22452042.134   -12573318.78349  -9771630.71646  22452040.786    22452055.857
       225.000         178.000
  21208651.367     3096107.30349   2424539.12947  21208651.086    21208662.701
       242.000         206.000
  21805461.633   -13819526.45249 -10758008.97147  21805461.243    21805472.927
       237.000         196.000
  23815639.126    -7907238.31749  -5926017.40645  23815637.967    23815655.882
       213.000         156.000
  20668369.518   -11599223.96949  -9013673.87647  20668368.716    20668379.810
       241.000         208.000
 02  2 13 23 36 30.0000000  0  7G30G24G23G 5G 6G17G10
  20408635.618    -9864843.69849  -7667756.37347  20408635.696    20408645.700
       244.000         212.000
  23068277.581    12733285.29249   9918561.00046  23068277.314    23068292.527
       224.000         170.000
  22434669.092   -12664614.07949  -9842769.68546  22434668.502    22434682.965
       226.000         179.000
  21221704.858     3164703.35349   2477990.52747  21221704.530    21221715.876
       242.000         206.000
  21793893.324   -13880318.28549 -10805379.13847  21793892.942    21793904.068
       237.000         196.000
  23801788.230    -7980024.12749  -5982733.37445  23801786.746    23801804.794
       212.000         157.000
  20668786.207   -11597034.10449  -9011967.46847  20668785.368    20668796.418
       241.000         208.000
 02  2 13 23 37  0.0000000  0  7G30G24G23G 5G 6G17G10
  20410219.709    -9856519.12049  -7661269.69147  20410219.829    20410229.893
       244.000         212.000
  23082855.902    12809894.71349   9978256.54346  23082856.011    23082869.956
       223.000         169.000
  22417347.940   -12755636.63349  -9913696.12846  22417345.924    22417360.403
       226.000         179.000
  21234838.832     3233722.55249   2531771.65247  21234838.527    21234849.776
       241.000         206.000
  21782344.365   -13941008.54149 -10852670.15147  21782343.947    21782355.304
       236.000         196.000
  23787972.529    -8052624.50849  -6039304.85745  23787971.110    23787989.524
       215.000         158.000
  20669322.637   -11594214.97749  -9009770.71547  20669321.636    20669332.872
       241.000         208.000
 02  2 13 23 37 30.0000000  0  7G30G24G23G 5G 6G17G10
  20411916.622    -9847601.93849  -7654321.23647  20411916.744    20411926.665
       244.000         212.000
  23097437.435    12886520.79649  10037965.07546  23097436.807    23097450.853
       223.000         168.000
  22400079.061   -12846384.37349  -9984408.42446  22400077.369    22400091.543
       226.000         179.000
  21248052.812     3303162.20649   2585880.40447  21248052.419    21248064.071
       241.000         205.000
  21770814.746   -14001596.73549 -10899881.62447  21770814.169    21770825.963
       237.000         197.000
  23774192.211    -8125039.82749  -6095732.13345  23774190.370    23774208.829
       213.000         159.000
  20669978.677   -11590767.39249  -9007084.26147  20669977.882    20669989.174
       242.000         209.000
 02  2 13 23 38  0.0000000  0  7G30G24G23G 5G 6G17G10
  20413726.384    -9838091.29749  -7646910.35247  20413726.531    20413736.187
       244.000         211.000
  23112022.001    12963163.35949  10097686.43446  23112022.160    23112036.831
       222.000         167.000
  22382863.026   -12936853.85449 -10054903.90046  22382861.697    22382876.055
       224.000         179.000
  21261346.608     3373021.21149   2640315.92247  21261346.326    21261357.845
       241.000         205.000
  21759305.047   -14062080.49749 -10947011.73747  21759304.927    21759316.446
       238.000         198.000
  23760447.254    -8197268.80949  -6152014.21045  23760446.175    23760464.426
       215.000         159.000
  20670754.488   -11586690.52249  -9003907.45947  20670753.775    20670764.636
       241.000         209.000
 02  2 13 23 38 30.0000000  0  7G30G24G23G 5G 6G17G10
  20415648.961    -9827988.15249  -7639037.77347  20415649.190    20415659.182
       244.000         211.000
  23126609.491    13039820.91549  10157419.49446  23126610.271    23126624.075
       224.000         167.000
  22365700.378   -13027043.13749 -10125181.04146  22365698.939    22365713.861
       226.000         180.000
  21274719.649     3443296.82249   2695076.07247  21274719.168    21274730.848
       241.000         204.000
  21747815.367   -14122459.36249 -10994060.11147  21747814.691    21747826.382
       237.000         198.000
  23746737.704    -8269312.05749  -6208151.56545  23746736.546    23746754.252
       214.000         159.000
  20671649.828   -11581985.42149  -9000241.12547  20671648.925    20671659.985
       242.000         209.000
 02  2 13 23 39  0.0000000  0  7G30G24G23G 5G 6G17G10
  20417684.171    -9817293.07249  -7630703.95147  20417684.421    20417694.406
       244.000         212.000
  23141199.636    13116491.50749  10217162.70446  23141200.600    23141215.024
       224.000         168.000
  22348591.515   -13116950.01649 -10195238.14246  22348590.563    22348605.012
       227.000         180.000
  21288171.513     3513986.50649   2750158.87347  21288171.066    21288182.512
       241.000         204.000
  21736345.673   -14182732.32949 -11041025.96847  21736344.902    21736356.684
       237.000         197.000
  23733063.516    -8341169.54249  -6264144.18345  23733062.623    23733080.160
       214.000         157.000
  20672664.610   -11576652.73949  -8996085.77047  20672663.813    20672674.935
       242.000         209.000
 02  2 13 23 39 30.0000000  0  7G30G24G23G 5G 6G17G10
  20419831.989    -9806006.03349  -7621908.85947  20419832.044    20419841.887
       244.000         211.000
  23155792.052    13193174.29549  10276915.42546  23155792.578    23155806.334
       224.000         168.000
  22331536.845   -13206571.90249 -10265073.15346  22331535.340    22331549.914
       227.000         181.000
  21301701.725     3585088.09049   2805562.62647  21301701.179    21301713.006
       240.000         204.000
  21724896.326   -14242897.98249 -11087908.20147  21724895.558    21724907.655
       238.000         197.000
  23719424.657    -8412841.08049  -6319991.88745  23719423.565    23719441.047
       212.000         157.000
  20673798.750   -11570692.79249  -8991441.63847  20673797.898    20673808.935
       242.000         209.000
 02  2 13 23 40  0.0000000  0  7G30G24G23G 5G 6G17G10
  20422092.515    -9794127.01449  -7612652.48047  20422092.779    20422102.688
       244.000         211.000
  23170386.635    13269868.65849  10336677.15946  23170386.235    23170401.452
       223.000         167.000
  22314537.048   -13295905.71649 -10334683.69746  22314536.358    22314550.401
       228.000         181.000
  21315310.005     3656600.06349   2861286.16447  21315309.508    21315321.385
       239.000         203.000
  21713467.834   -14302954.62949 -11134705.50347  21713467.259    21713479.424
       238.000         198.000
  23705821.471    -8484325.89249  -6375694.07945  23705820.302    23705837.926
       214.000         157.000
  20675052.265   -11564105.67049  -8986308.79747  20675051.390    20675062.343
       242.000         209.000
 02  2 13 23 40 30.0000000  0  7G30G24G23G 5G 6G17G10
  20424465.515    -9781656.78549  -7602935.42447  20424465.847    20424475.556
       245.000         211.000
  23184983.038    13346572.81949  10396446.52146  23184982.081    23184997.888
       224.000         167.000
  22297592.479   -13384949.30649 -10404068.11246  22297591.369    22297605.205
       228.000         182.000
  21328995.873     3728519.53449   2917327.23447  21328995.394    21329007.046
       240.000         203.000
  21702060.239   -14362901.48749 -11181417.24447  21702059.437    21702071.590
       237.000         198.000
  23692253.545    -8555624.37549  -6431251.08845  23692252.505    23692270.706
       214.000         158.000
  20676424.942   -11556892.09849  -8980687.81747  20676423.960    20676434.952
       242.000         209.000
 02  2 13 23 41  0.0000000  0  7G30G24G23G 5G 6G17G10
  20426951.128    -9768594.83149  -7592757.28147  20426951.396    20426961.096
       244.000         211.000
  23199581.188    13423286.33049  10456223.18246  23199580.535    23199595.699
       223.000         167.000
  22280703.741   -13473699.37949 -10473223.80646  22280702.770    22280716.909
       229.000         182.000
  21342759.077     3800845.16249   2973684.78847  21342758.656    21342770.498
       239.000         203.000
  21690673.820   -14422736.48349 -11228041.81947  21690672.990    21690685.330
       237.000         197.000
  23678721.330    -8626735.40149  -6486662.02745  23678719.963    23678738.162
       213.000         158.000
  20677916.999   -11549051.51849  -8974578.25847  20677916.236    20677927.269
       242.000         210.000
 02  2 13 23 41 30.0000000  0  7G30G24G23G 5G 6G17G10
  20429549.122    -9754942.27349  -7582118.92947  20429549.397    20429559.158
       245.000         211.000
  23214180.780    13500007.37449  10516005.71246  23214180.757    23214195.762
       223.000         167.000
  22263871.227   -13562154.05349 -10542149.31446  22263870.323    22263883.985
       228.000         183.000
  21356598.901     3873573.94349   3030356.48647  21356598.455    21356610.247
       239.000         202.000
  21679308.938   -14482458.89249 -11274578.67547  21679308.427    21679319.866
       238.000         197.000
  23665224.769    -8697659.52349  -6541927.31845  23665223.577    23665241.719
       213.000         157.000
  20679528.052   -11540585.34749  -8967981.22647  20679526.961    20679538.043
       242.000         209.000
 02  2 13 23 42  0.0000000  0  7G30G24G23G 5G 6G17G10
  20432259.507    -9740699.21149  -7571020.43547  20432259.701    20432269.735
       245.000         211.000
  23228781.689    13576735.26749  10575793.57446  23228780.980    23228796.290
       223.000         167.000
  22247095.433   -13650310.50549 -10610842.45046  22247094.297    22247108.266
       228.000         183.000
  21370515.168     3946703.88249   3087340.77947  21370514.731    21370526.597
       239.000         202.000
  21667965.797   -14542067.20349 -11321026.62247  21667965.270    21667977.000
       237.000         197.000
  23651763.853    -8768396.46049  -6597046.77945  23651762.476    23651778.558
       214.000         157.000
  20681258.121   -11531493.71949  -8960896.82347  20681257.184    20681267.968
       242.000         209.000
 02  2 13 23 42 30.0000000  0  7G30G24G23G 5G 6G17G10
  20435082.150    -9725866.10749  -7559462.17947  20435082.187    20435092.147
       244.000         211.000
  23243383.579    13653468.83049  10635585.86146  23243383.241    23243398.555
       223.000         167.000
  22230376.847   -13738166.50449 -10679301.47146  22230375.981    22230389.326
       229.000         184.000
  21384507.293     4020232.75049   3144635.92847  21384506.884    21384518.595
       239.000         202.000
  21656644.404   -14601560.26549 -11367384.75247  21656643.638    21656655.391
       235.000         197.000
  23638338.528    -8838946.02849  -6652020.23445  23638337.499    23638354.121
       215.000         157.000
  20683107.031   -11521777.52649  -8953325.75147  20683106.064    20683116.945
       241.000         209.000
 02  2 13 23 43  0.0000000  0  7G30G24G23G 5G 6G17G10
  20438016.916    -9710443.82249  -7547444.81747  20438017.155    20438026.769
       245.000         211.000
  23257986.343    13730206.60849  10695381.43246  23257986.521    23258001.644
       221.000         168.000
  22213715.916   -13825719.53949 -10747524.42546  22213714.775    22213728.587
       229.000         184.000
  21398574.847     4094158.25449   3202240.14047  21398574.615    21398586.029
       240.000         202.000
  21645345.212   -14660936.83649 -11413652.11647  21645344.490    21645356.767
       237.000         197.000
  23624948.999    -8909308.21049  -6706847.67845  23624948.558    23624964.537
       215.000         157.000
  20685074.632   -11511437.30249  -8945268.42147  20685073.751    20685084.693
       241.000         209.000
 02  2 13 23 43 30.0000000  0  7G30G24G23G 5G 6G17G10
  20441063.820    -9694432.40549  -7534968.38347  20441063.976    20441073.721
       244.000         211.000
  23272589.796    13806947.85949  10755179.69746  23272589.621    23272604.134
       222.000         168.000
  22197113.042   -13912967.31549 -10815509.50346  22197111.999    22197125.018
       230.000         184.000
  21412717.548     4168478.18649   3260151.70547  21412717.054    21412729.029
       239.000         202.000
  21634068.625   -14720195.44449 -11459827.55947  21634068.066    21634080.173
       237.000         198.000
  23611595.059    -8979482.79949  -6761528.95345  23611594.034    23611610.478
       217.000         158.000
  20687160.966   -11500473.44549  -8936725.14247  20687159.947    20687170.883
       242.000         208.000
 02  2 13 23 44  0.0000000  0  7G30G24G23G 5G 6G17G10
  20444222.655    -9677832.58149  -7522033.46147  20444222.859    20444232.681
       244.000         211.000
  23287193.619    13883690.88149  10814979.34946  23287193.921    23287208.753
       223.000         168.000
  22180568.824   -13999907.44549 -10883254.86346  22180567.742    22180581.585
       231.000         185.000
  21426934.812     4243190.14649   3318368.73447  21426934.382    21426946.437
       239.000         202.000
  21622814.685   -14779335.07149 -11505910.29747  21622814.067    21622825.923
       236.000         197.000
  23598276.835    -9049470.00749  -6816064.21945  23598275.694    23598292.474
       218.000         159.000
  20689365.804   -11488886.95549  -8927696.70347  20689364.891    20689375.866
       242.000         208.000
 02  2 13 23 44 30.0000000  0  7G30G24G23G 5G 6G17G10
  20447493.477    -9660644.30249  -7508640.00247  20447493.805    20447503.572
       244.000         211.000
  23301797.684    13960435.08749  10874779.92946  23301797.831    23301813.116
       223.000         168.000
  22164083.678   -14086536.78749 -10950758.05146  22164082.605    22164096.177
       231.000         185.000
  21441226.345     4318292.36149   3376889.86147  21441226.088    21441237.915
       239.000         202.000
  21611583.668   -14838353.51449 -11551898.59447  21611583.212    21611594.700
       237.000         197.000
  23584994.358    -9119268.93749  -6870452.77145  23584992.549    23585009.388
       219.000         161.000
  20691689.109   -11476677.71649  -8918183.00447  20691688.222    20691699.161
       241.000         208.000
 02  2 13 23 45  0.0000000  0  7G30G24G23G 5G 6G17G10
  20450876.075    -9642868.62649  -7494788.82747  20450876.213    20450886.133
       244.000         211.000
  23316401.893    14037179.67549  10934580.79646  23316402.011    23316417.516
       223.000         168.000
  22147658.046   -14172853.22749 -11018017.42446  22147656.856    22147670.308
       231.000         186.000
  21455591.642     4393782.07249   3435712.93447  21455591.303    21455603.227
       240.000         201.000
  21600375.965   -14897250.11649 -11597791.95447  21600375.591    21600387.116
       238.000         198.000
  23571747.785    -9188879.79649  -6924694.78046  23571746.669    23571763.099
       220.000         163.000
  20694130.713   -11463846.83349  -8908184.90747  20694129.912    20694140.755
       241.000         208.000
 02  2 13 23 45 30.0000000  0  7G30G24G23G 5G 6G17G10
  20454370.312    -9624506.32849  -7480480.54347  20454370.414    20454380.376
       244.000         211.000
  23331005.622    14113922.79549  10994380.51546  23331005.531    23331020.696
       222.000         167.000
  22131292.421   -14258854.51049 -11085031.22046  22131291.426    22131304.758
       231.000         186.000
  21470030.211     4469656.84649   3494836.06647  21470029.728    21470041.332
       240.000         201.000
  21589191.735   -14956023.77249 -11643589.52347  21589191.024    21589202.486
       237.000         198.000
  23558536.917    -9258302.81949  -6978790.43246  23558535.175    23558552.046
       219.000         164.000
  20696690.418   -11450395.45649  -8897703.31147  20696689.570    20696700.471
       241.000         208.000
 02  2 13 23 46  0.0000000  0  7G30G24G23G 5G 6G17G10
  20457976.196    -9605557.33349  -7465715.10047  20457976.408    20457986.101
       244.000         211.000
  23345609.099    14190664.10149  11054178.81746  23345608.811    23345624.040
       221.000         166.000
  22114987.323   -14344537.58949 -11151797.07246  22114985.774    22114999.315
       231.000         186.000
  21484541.696     4545914.88649   3554257.84147  21484541.571    21484553.047
       241.000         200.000
  21578031.158   -15014672.45649 -11689289.71247  21578030.380    21578042.166
       238.000         197.000
  23545361.888    -9327537.16549  -7032739.06346  23545360.886    23545377.289
       220.000         164.000
  20699368.187   -11436323.60249  -8886738.22247  20699367.136    20699378.330
       241.000         208.000
 02  2 13 23 46 30.0000000  0  7G30G24G23G 5G 6G17G10
  20461693.609    -9586022.14949  -7450492.88747  20461693.984    20461703.641
       244.000         211.000
  23360211.995    14267402.57949  11113974.92346  23360212.272    23360227.898
       222.000         166.000
  22098743.274   -14429899.75049 -11218312.85446  22098742.149    22098755.673
       232.000         187.000
  21499125.701     4622553.98749   3613976.54847  21499125.365    21499136.915
       240.000         200.000
  21566894.685   -15073194.38149 -11734891.12647  21566894.260    21566905.971
       238.000         198.000
  23532222.836    -9396582.58849  -7086540.47946  23532221.912    23532238.313
       220.000         165.000
  20702163.910   -11421631.84349  -8875290.09547  20702163.211    20702174.041
       242.000         208.000
 02  2 13 23 47  0.0000000  0  7G30G24G23G 5G 6G17G10
  20465522.330    -9565902.08449  -7434814.91547  20465522.334    20465532.156
       244.000         210.000
  23374814.164    14344136.80449  11173767.70346  23374813.813    23374828.850
       223.000         166.000
  22082560.591   -14514939.36949 -11284577.30546  22082559.682    22082572.650
       231.000         187.000
  21513781.568     4699570.99249   3673989.71847  21513781.079    21513793.158
       240.000         200.000
  21555782.485   -15131588.96949 -11780393.31447  21555782.183    21555793.814
       239.000         199.000
  23519119.548    -9465439.89749  -7140195.28946  23519118.463    23519135.418
       220.000         165.000
  20705077.342   -11406321.77649  -8863360.16947  20705076.534    20705087.460
       242.000         208.000
 02  2 13 23 47 30.0000000  0  7G30G24G23G 5G 6G17G10
  20469462.270    -9545197.44049  -7418681.43047  20469462.476    20469472.317
       244.000         210.000
  23389415.464    14420866.05849  11233556.61446  23389415.954    23389430.078
       222.000         166.000
  22066439.872   -14599653.74249 -11350588.32247  22066438.822    22066452.422
       231.000         188.000
  21528509.079     4776964.04849   3734295.92047  21528508.803    21528520.426
       240.000         200.000
  21544694.843   -15189854.54849 -11825794.97347  21544694.239    21544705.987
       238.000         199.000
  23506052.199    -9534108.36849  -7193702.97646  23506051.439    23506067.951
       220.000         166.000
  20708108.335   -11390393.82749  -8850948.77647  20708107.436    20708118.432
       242.000         209.000
 02  2 13 23 48  0.0000000  0  7G30G24G23G 5G 6G17G10
  20473513.356    -9523908.99949  -7402093.03747  20473513.811    20473523.406
       245.000         211.000
  23404015.461    14497589.09849  11293340.69346  23404015.277    23404030.136
       222.000         165.000
  22050381.544   -14684040.43549 -11416344.00346  22050380.679    22050393.527
       231.000         187.000
  21543307.656     4854730.81549   3794893.32447  21543307.159    21543319.227
       239.000         199.000
  21533632.013   -15247989.82349 -11871095.10547  21533631.447    21533642.751
       238.000         199.000
  23493020.745    -9602588.16249  -7247063.64146  23493018.831    23493036.662
       219.000         166.000
  20711256.750   -11373848.83249  -8838056.57047  20711256.096    20711266.782
       242.000         209.000
 02  2 13 23 48 30.0000000  0  7G30G24G23G 5G 6G17G10
  20477675.446    -9502037.35749  -7385050.20647  20477675.650    20477685.415
       244.000         211.000
  23418614.065    14574305.15449  11353119.32546  23418614.301    23418629.443
       221.000         165.000
  22034385.936   -14768096.95749 -11481842.41746  22034384.713    22034397.726
       230.000         187.000
  21558176.913     4932868.89849   3855780.06547  21558176.505    21558188.354
       239.000         199.000
  21522594.265   -15305993.34049 -11916292.58247  21522593.958    21522605.262
       239.000         199.000
  23480025.206    -9670879.08649  -7300277.12546  23480024.537    23480040.318
       216.000         166.000
  20714522.494   -11356687.44949  -8824684.05847  20714521.435    20714532.590
       242.000         209.000
 02  2 13 23 49  0.0000000  0  7G30G24G23G 5G 6G17G10
  20481948.276    -9479583.31249  -7367553.55247  20481948.502    20481958.115
       244.000         211.000
  23433211.170    14651012.95049  11412891.52346  23433211.106    23433226.849
       220.000         164.000
  22018453.604   -14851820.98449 -11547081.74847  22018452.572    22018466.067
       232.000         188.000
  21573116.392     5011376.02149   3916954.37347  21573115.883    21573127.901
       239.000         198.000
  21511581.867   -15363863.58449 -11961386.19947  21511581.442    21511592.955
       239.000         200.000
  23467065.692    -9738980.89149  -7353343.24946  23467063.460    23467080.363
       218.000         165.000
  20717905.278   -11338910.68949  -8810832.03547  20717904.473    20717915.541
       242.000         209.000
 02  2 13 23 49 30.0000000  0  7G30G24G23G 5G 6G17G10
  20486331.921    -9456547.30449  -7349603.41847  20486332.247    20486341.940
       244.000         211.000
  23447806.602    14727711.81249  11472656.74446  23447806.771    23447821.383
       220.000         163.000
  22002585.127   -14935209.91949 -11612059.97147  22002584.468    22002597.213
       231.000         188.000
  21588125.602     5090249.90949   3978414.47447  21588125.112    21588137.086
       239.000         198.000
  21500595.118   -15421598.99449 -12006374.75947  21500594.708    21500606.035
       239.000         200.000
  23454142.154    -9806893.45749  -7406261.91746  23454141.386    23454158.061
       216.000         165.000
  20721405.062   -11320519.36049  -8796501.12747  20721404.220    20721415.346
       242.000         209.000
 02  2 13 23 50  0.0000000  0  7G30G24G23G 5G 6G17G10
  20490826.015    -9432930.62649  -7331200.81847  20490826.256    20490836.042
       244.000         211.000
  23462400.133    14804400.89849  11532414.35546  23462400.308    23462415.462
       221.000         163.000
  21986780.605   -15018261.76149 -11676775.52347  21986779.559    21986792.734
       231.000         188.000
  21603204.138     5169487.82549   4040158.23247  21603203.533    21603215.747
       238.000         197.000
  21489634.198   -15479198.32349 -12051257.28447  21489633.696    21489645.202
       240.000         200.000
  23441254.647    -9874617.02049  -7459033.31046  23441253.788    23441270.030
       218.000         165.000
  20725021.503   -11301514.75349  -8781692.33947  20725020.557    20725031.672
       242.000         209.000
 02  2 13 23 50 30.0000000  0  7G30G24G23G 5G 6G17G10
  20495430.416    -9408734.22449  -7312346.49247  20495430.769    20495440.517
       244.000         210.000
  23476991.532    14881078.74749  11592163.21345  23476992.197    23477008.159
       220.000         162.000
  21971040.774   -15100974.30449 -11741226.69347  21971040.125    21971053.062
       231.000         188.000
  21618351.458     5249087.14649   4102183.60047  21618351.087    21618363.203
       239.000         197.000
  21478699.507   -15536660.33249 -12096032.80847  21478699.126    21478710.459
       239.000         201.000
  23428403.027    -9942151.82549  -7511657.61946  23428401.535    23428418.365
       217.000         166.000
  20728754.431   -11281897.93049  -8766406.50247  20728753.483    20728764.587
       242.000         209.000
 02  2 13 23 51  0.0000000  0  7G30G24G23G 5G 6G17G10
  20500144.970    -9383959.08449  -7293041.18947  20500145.245    20500154.890
       244.000         210.000
  23491580.653    14957744.38849  11651902.54945  23491581.357    23491595.493
       220.000         162.000
  21955365.994   -15183345.18449 -11805411.61947  21955365.087    21955378.036
       231.000         188.000
  21633567.083     5329045.30849   4164488.57547  21633566.663    21633578.949
       237.000         197.000
  21467791.150   -15593983.78949 -12140700.36147  21467791.147    21467802.356
       239.000         201.000
  23415587.364   -10009497.81449  -7564134.80246  23415586.097    23415602.635
       218.000         166.000
  20732603.718   -11261669.99449  -8750644.47447  20732602.968    20732613.750
       242.000         209.000
 02  2 13 23 51 30.0000000  0  7G30G24G23G 5G 6G17G10
  20504969.611    -9358605.46949  -7273285.13347  20504969.685    20504979.590
       243.000         210.000
  23506167.288    15034397.09549  11711631.81245  23506167.579    23506182.653
       220.000         162.000
  21939756.760   -15265371.53249 -11869328.08147  21939756.063    21939769.002
       231.000         188.000
  21648850.571     5409360.51649   4227071.77147  21648850.263    21648861.910
       237.000         197.000
  21456909.648   -15651166.39349 -12185258.15647  21456909.461    21456920.721
       240.000         202.000
  23402807.755   -10076654.29049  -7616464.31546  23402806.454    23402823.168
       219.000         166.000
  20736569.162   -11240831.30549  -8734406.54047  20736568.292    20736579.308
       241.000         208.000
 02  2 13 23 52  0.0000000  0  7G30G24G23G 5G 6G17G10
  20509904.043    -9332674.53949  -7253079.22647  20509904.119    20509914.013
       243.000         210.000
  23520751.280    15111035.83949  11771350.19145  23520751.223    23520766.361
       219.000         162.000
  21924213.549   -15347051.31049 -11932974.49347  21924212.454    21924225.143
       232.000         188.000
  21664201.529     5490029.99049   4289931.01547  21664201.016    21664212.859
       237.000         196.000
  21446055.182   -15708207.29549 -12229705.53747  21446054.995    21446065.855
       239.000         202.000
  23390064.113   -10143621.75749  -7668646.54546  23390062.876    23390078.750
       219.000         166.000
  20740650.548   -11219383.30949  -8717693.82147  20740649.637    20740660.736
       241.000         208.000
 02  2 13 23 52 30.0000000  0  7G30G24G23G 5G 6G17G10
  20514948.178    -9306167.34649  -7232424.28047  20514948.457    20514958.420
       244.000         210.000
  23535332.245    15187659.48649  11831056.81645  23535331.419    23535348.221
       216.000         161.000
  21908736.605   -15428382.28149 -11996349.10147  21908735.608    21908748.761
       232.000         189.000
  21679619.384     5571051.18449   4353064.33247  21679619.192    21679630.992
       237.000         196.000
  21435227.853   -15765105.18249 -12274041.48047  21435227.781    21435238.468
       239.000         202.000
  23377356.438   -10210400.10849  -7720681.42746  23377355.454    23377371.390
       218.000         166.000
  20744847.675   -11197327.17749  -8700507.23247  20744846.851    20744857.810
       241.000         208.000
 02  2 13 23 53  0.0000000  0  8G30G24G23G 5G 6G17G10G15
  20520100.354    -9279092.61949  -7211327.08947  20520100.480    20520110.547
       244.000         210.000
  23549908.686    15264259.36049  11890744.90245  23549907.418    23549924.449
       217.000         160.000
  21893325.102   -15509369.70949 -12059456.00647  21893323.817    21893337.015
       232.000         190.000
  21695102.307     5652414.12249   4416463.95347  21695101.943    21695114.213
       238.000         197.000
  21424426.633   -15821865.86649 -12318270.49547  21424426.228    21424437.561
       239.000         202.000
  23364683.347   -10276997.09449  -7772574.96646  23364681.637    23364698.298
       218.000         166.000
  20749158.822   -11174671.65849  -8682853.58547  20749157.867    20749169.109
       241.000         207.000
  24716554.206    -1516431.47649  -1169950.64645  24716553.036    24716575.718
       214.000         144.000
 02  2 13 23 53 30.0000000  0  8G30G24G23G 5G 6G17G10G15
  20525361.078    -9251446.99949  -7189785.06247  20525361.358    20525371.290
       243.000         209.000
  23564481.427    15340839.16349  11950417.36545  23564481.589    23564497.440
       218.000         160.000
  21877980.140   -15590007.40849 -12122290.40747  21877979.000    21877991.910
       233.000         190.000
  21710650.497     5734120.18649   4480130.92347  21710650.140    21710662.196
       237.000         197.000
  21413652.605   -15878484.01349 -12362388.44947  21413652.557    21413663.564
       240.000         203.000
  23352045.456   -10343408.48949  -7824323.89846  23352044.636    23352061.206
       219.000         166.000
  20753584.570   -11151414.02049  -8664730.76947  20753583.733    20753594.874
       241.000         207.000
  24700656.251    -1599974.26649  -1235048.57045  24700654.563    24700677.347
       214.000         143.000
 02  2 13 23 54  0.0000000  0  8G30G24G23G 5G 6G17G10G15
  20530732.112    -9223222.15949  -7167791.68447  20530732.410    20530742.140
       244.000         210.000
  23579051.914    15417406.87249  12010080.39845  23579052.192    23579067.200
       218.000         161.000
  21862703.933   -15670283.57949 -12184843.09347  21862703.046    21862715.964
       233.000         191.000
  21726265.341     5816176.33449   4544070.69047  21726264.950    21726277.335
       237.000         197.000
  21402907.737   -15934948.71249 -12406386.82047  21402907.276    21402918.528
       239.000         203.000
  23339444.703   -10409624.92049  -7875920.93546  23339442.470    23339459.153
       219.000         166.000
  20758126.597   -11127545.70249  -8646132.08747  20758125.589    20758136.660
       241.000         207.000
  24684786.360    -1683368.55449  -1300030.77645  24684784.779    24684808.062
       212.000         142.000
 02  2 13 23 54 30.0000000  0  8G30G24G23G 5G 6G17G10G15
  20536212.611    -9194422.03049  -7145350.03347  20536212.826    20536222.737
       244.000         209.000
  23593619.456    15493959.11649  12069731.38145  23593618.838    23593635.549
       217.000         160.000
  21847496.449   -15750198.67049 -12247114.42747  21847495.923    21847508.006
       234.000         191.000
  21741945.834     5898577.47149   4608279.27547  21741945.654    21741957.716
       237.000         196.000
  21392191.743   -15991261.13649 -12450266.54847  21392191.374    21392202.476
       239.000         202.000
  23326880.556   -10475649.07249  -7927368.13346  23326878.978    23326895.552
       220.000         166.000
  20762784.054   -11103070.66449  -8627060.64547  20762782.924    20762794.161
       241.000         207.000
  24668944.476    -1766616.77249  -1364899.15845  24668942.307    24668965.713
       209.000         143.000
 02  2 13 23 55  0.0000000  0  8G30G24G23G 5G 6G17G10G15
  20541802.125    -9165048.78349  -7122461.79947  20541802.456    20541812.319
       243.000         209.000
  23608183.577    15570493.96649  12129368.82645  23608183.295    23608199.420
       216.000         160.000
  21832357.909   -15829751.66849 -12309103.60447  21832357.034    21832369.500
       234.000         192.000
  21757691.254     5981319.78249   4672753.71747  21757690.844    21757702.992
       236.000         196.000
  21381504.795   -16047420.96949 -12494027.37147  21381504.582    21381515.514
       239.000         203.000
  23314352.734   -10541482.45349  -7978666.70446  23314351.670    23314368.090
       219.000         167.000
  20767556.475   -11077991.30749  -8607518.30347  20767555.890    20767566.441
       242.000         207.000
  24653130.221    -1849719.62649  -1429654.28745  24653128.644    24653151.140
       210.000         143.000
 02  2 13 23 55 30.0000000  0  8G30G24G23G 5G 6G17G10G15
  20547500.407    -9135104.33849  -7099128.47647  20547500.521    20547510.540
       243.000         210.000
  23622744.025    15647009.48649  12188991.17345  23622743.525    23622760.047
       217.000         160.000
  21817288.556   -15908941.26549 -12370809.62047  21817287.426    21817300.020
       233.000         192.000
  21773500.931     6064399.67049   4737491.20047  21773500.459    21773512.807
       236.000         196.000
  21370847.053   -16103427.57649 -12537668.78947  21370846.331    21370857.813
       239.000         203.000
  23301861.034   -10607125.85549  -8029817.23146  23301859.888    23301875.206
       219.000         168.000
  20772443.495   -11052310.13449  -8587507.01847  20772442.597    20772453.844
       241.000         207.000
  24637343.561    -1932677.88449  -1494296.74945  24637341.843    24637363.961
       209.000         142.000
 02  2 13 23 56  0.0000000  0  8G30G24G23G 5G 6G17G10G15
  20553307.059    -9104590.09649  -7075351.15747  20553307.261    20553317.213
       243.000         209.000
  23637300.692    15723504.47849  12248597.55345  23637301.537    23637316.724
       218.000         160.000
  21802288.646   -15987765.37149 -12432230.84047  21802288.060    21802300.351
       234.000         193.000
  21789374.244     6147814.62749   4802489.77647  21789373.870    21789386.046
       236.000         195.000
  21360218.544   -16159279.83549 -12581189.93147  21360217.939    21360229.544
       238.000         203.000
  23289405.492   -10672579.40549  -8080819.82346  23289404.771    23289420.134
       221.000         168.000
  20777444.690   -11026028.61249  -8567027.92047  20777443.795    20777454.900
       242.000         207.000
  24621584.391    -2015491.18549  -1558826.27045  24621583.253    24621605.496
       210.000         142.000
 02  2 13 23 56 30.0000000  0  8G30G24G23G 5G 6G17G10G15
  20559221.855    -9073507.71249  -7051131.13047  20559222.017    20559232.014
       243.000         209.000
  23651853.302    15799977.52649  12308186.84245  23651853.343    23651869.285
       218.000         160.000
  21787358.667   -16066222.50649 -12493366.11547  21787357.886    21787370.487
       235.000         194.000
  21805310.800     6231561.42249   4867746.92747  21805310.508    21805322.682
       236.000         195.000
  21349619.675   -16214976.73649 -12624590.03347  21349619.586    21349630.198
       240.000         203.000
  23276986.000   -10737843.76449  -8131674.98146  23276985.628    23277000.308
       223.000         170.000
  20782559.825   -10999148.39849  -8546082.32447  20782559.364    20782569.752
       242.000         207.000
  24605852.866    -2098159.85949  -1623243.08445  24605852.183    24605872.828
       206.000         141.000
 02  2 13 23 57  0.0000000  0  8G30G24G23G 5G 6G17G10G15
  20565244.595    -9041858.08649  -7026469.09747  20565244.817    20565254.879
       243.000         209.000
  23666401.442    15876428.19849  12367758.68545  23666400.862    23666417.160
       216.000         160.000
  21772498.945   -16144310.12049 -12554213.45047  21772497.983    21772510.249
       235.000         194.000
  21821310.096     6315638.00549   4933261.06247  21821309.802    21821322.055
       235.000         195.000
  21339050.805   -16270516.38549 -12667867.59947  21339050.403    21339061.500
       239.000         203.000
  23264602.631   -10802918.55749  -8182382.40646  23264601.711    23264616.784
       223.000         171.000
  20787788.805   -10971670.26349  -8524670.80947  20787788.164    20787798.890
       242.000         207.000
  24590148.810    -2180683.18549  -1687546.62845  24590146.446    24590170.717
       203.000         141.000
 02  2 13 23 57 30.0000000  0  8G30G24G23G 5G 6G17G10G15
  20571375.064    -9009642.07249  -7001365.73047  20571375.423    20571385.237
       243.000         209.000
  23680945.083    15952855.61849  12427312.40745  23680945.233    23680960.780
       217.000         160.000
  21757709.996   -16222025.78649 -12614770.96347  21757709.281    21757721.411
       236.000         195.000
  21837371.688     6400041.88049   4999030.21647  21837371.782    21837383.938
       235.000         194.000
  21328512.035   -16325897.17949 -12711021.37247  21328511.709    21328523.180
       239.000         203.000
  23252255.258   -10867803.83049  -8232942.15946  23252254.279    23252269.560
       224.000         172.000
  20793131.253   -10943595.64649  -8502794.49947  20793130.345    20793141.541
       242.000         208.000
  24574472.525    -2263060.39349  -1751736.33545  24574469.519    24574493.254
       202.000         140.000
 02  2 13 23 58  0.0000000  0  8G30G24G23G 5G 6G17G10G15
  20577613.058    -8976861.42249  -6975822.38147  20577613.565    20577623.182
       243.000         209.000
  23695484.058    16029258.82049  12486847.26645  23695484.298    23695499.542
       216.000         160.000
  21742992.258   -16299367.61849 -12675037.17847  21742991.780    21743003.985
       237.000         196.000
  21853494.999     6484770.19949   5065052.19147  21853494.710    21853506.651
       235.000         194.000
  21318003.838   -16381117.68349 -12754050.25047  21318003.593    21318014.669
       239.000         203.000
  23239943.921   -10932499.83449  -8283354.44946  23239942.702    23239958.404
       225.000         172.000
  20798586.925   -10914926.15749  -8480454.65347  20798586.328    20798597.306
       243.000         208.000
  24558824.102    -2345291.71349  -1815812.34245  24558823.230    24558844.145
       203.000         139.000
 02  2 13 23 58 30.0000000  0  8G30G24G23G 5G 6G17G10G15
  20583958.302    -8943516.92849  -6949839.67647  20583958.612    20583968.441
       244.000         210.000
  23710018.438    16105637.18249  12546362.76645  23710018.985    23710033.813
       219.000         160.000
  21728346.128   -16376333.20749 -12735010.22147  21728345.180    21728357.867
       236.000         196.000
  21869679.710     6569820.72349   5131325.23347  21869679.216    21869691.762
       235.000         193.000
  21307526.573   -16436176.23949 -12796952.95647  21307526.177    21307536.870
       239.000         203.000
  23227668.621   -10997006.48849  -8333619.19746  23227668.000    23227682.288
       225.000         172.000
  20804155.649   -10885662.85149  -8457652.10047  20804154.853    20804165.367
       242.000         208.000
  24543203.532    -2427376.82849  -1879774.42045  24543201.405    24543224.204
       201.000         139.000
 02  2 13 23 59  0.0000000  0  8G30G24G23G 5G 6G17G10G15
  20590410.496    -8909610.48649  -6923419.08947  20590410.955    20590420.739
       244.000         210.000
  23724547.881    16181989.29449  12605857.82445  23724546.958    23724563.614
       218.000         160.000
  21713771.896   -16452920.72549 -12794688.65947  21713771.009    21713783.441
       236.000         196.000
  21885925.121     6655190.38549   5197846.95647  21885924.460    21885937.191
       234.000         192.000
  21297080.142   -16491071.93649 -12839728.75047  21297079.399    21297090.514
       239.000         203.000
  23215429.280   -11061324.34649  -8383736.85246  23215428.733    23215443.290
       225.000         171.000
  20809836.783   -10855807.87849  -8434388.50147  20809836.040    20809846.913
       242.000         207.000
  24527610.641    -2509315.76449  -1943622.58345  24527609.889    24527632.734
       203.000         138.000
